     2.10           OBSERVATION DATA    G (GPS)             RINEX VERSION / TYPE
teqc 2002Apr3 Duncan Agnew 20050511 23:58:26UTC             PGM / RUN BY / DATE
OSX 5.3|G3|cc|OSX 5.3+|G3+                                  COMMENT
BIT 2 OF LLI FLAGS DATA COLLECTED UNDER A/S CONDITION       COMMENT
RALPH 1977                                                  MARKER NAME
6893                                                        MARKER NUMBER
Alex Espinoza Nolte Engineering                             OBSERVER / AGENCY
220136893 TRIMBLE 4800 NP 1.20 / SP 1.43                    REC # / TYPE / VERS
N/A TRM4800                                                 ANT # / TYPE
 -2309356.0000 -4839555.0000  3441729.0000                  APPROX POSITION XYZ
        2.0000        0.0000        0.0000                  ANTENNA: DELTA H/E/N
     1     1                                                WAVELENGTH FACT L1/2
     7    C1    L1    L2    P1    P2    S1    S2            # / TYPES OF OBSERV
SNR is mapped to RINEX snr flag value [1-9]                 COMMENT
L1: 3 -> 1; 8 -> 5; 40 -> 9                                 COMMENT
L2: 1 -> 1; 5 -> 5; 60 -> 9                                 COMMENT
  2004     6    30    18    17   40.0000000     GPS         TIME OF FIRST OBS
                                                            END OF HEADER
 04  6 30 18 17 40.0000000  0  8G 3G 9G14G15G18G19G21G22
  22346712.6784      41119.85259     23495.49457                  22346710.5074
        45.5004         35.0004
  23365406.0954      23871.97759     13064.17156                  23365404.4004
        40.7504         22.7504
  20327642.9264     -34373.54759    -19611.81158                  20327639.7694
        52.0004         45.0004
  19965663.9894       7446.30159      4312.86858                  19965661.4504
        53.7504         45.7504
  22456644.0254      56404.87559     32414.94257                  22456640.9944
        46.0004         31.2504
  22867265.6074     -44402.51259    -25318.28457                  22867261.5634
        45.2504         33.7504
  22699985.3604      93636.15259     53569.33257                  22699982.7054
        46.5004         32.2504
  21032857.7754      16856.86759      9471.69258                  21032853.4624
        52.5004         42.2504
 04  6 30 18 17 50.0000000  0  8G 3G 9G14G15G18G19G21G22
  22348965.8814      52960.54749     32722.01147                  22348963.8384
        45.5004         34.7504
  23367539.3994      35081.64849     21799.00446                  23367538.1904
        39.5004         22.2504
  20325676.2824     -44707.87149    -27664.52948                  20325672.9264
        51.2504         45.0004
  19966033.9514       9390.84049      5828.09148                  19966031.0344
        53.0004         45.5004
  22459755.1414      72751.85949     45152.83747                  22459752.3044
        46.7504         32.0004
  22864739.3774     -57678.78549    -35663.43947                  22864735.4114
        45.5004         34.0004
  22705169.5234     120878.23849     74796.90447                  22705166.4844
        46.5004         32.0004
  21033739.3344      21489.56649     13081.59548                  21033734.1964
        52.2504         42.2504
 04  6 30 18 18  0.0000000  0  8G 3G 9G14G15G18G19G21G22
  22351206.7904      64739.16049     41900.14247                  22351204.9174
        46.0004         34.5004
  23369663.7144      46245.92249     30498.40446                  23369662.3434
        40.7504         22.2504
  20323699.6764     -55095.60949    -35758.88548                  20323695.9334
        51.5004         45.0004
  19966393.7734      11280.92249      7300.86348                  19966390.8614
        53.7504         45.5004
  22462846.5104      88998.50049     57812.56147                  22462843.4354
        45.7504         31.5004
  22862203.4754     -71005.08649    -46047.58347                  22862199.5804
        44.5004         34.5004
  22710338.9854     148043.50449     95964.62347                  22710335.8914
        46.5004         31.7504
  21034602.9574      26027.75849     16617.83148                  21034597.8044
        52.5004         42.2504
 04  6 30 18 18 10.0000000  0  8G 3G 9G14G15G18G19G21G22
  22353444.2394      76492.88349     51058.85747                  22353442.2724
        45.0004         34.5004
  23371786.6494      57402.06349     39191.47846                  23371785.1354
        41.5004         21.5004
  20321719.8644     -65499.49649    -43865.80448                  20321716.2664
        51.5004         44.7504
  19966750.1584      13153.79749      8760.24848                  19966747.5004
        54.0004         45.5004
  22465926.8854     105181.99249     70423.06247                  22465923.3134
        45.7504         31.0004
  22859664.6994     -84344.11349    -56441.61847                  22859661.0614
        44.5004         34.5004
  22715501.0154     175169.12549    117101.43947                  22715498.2144
        46.0004         31.7504
  21035455.7774      30508.67649     20109.44548                  21035450.7994
        52.0004         41.7504
 04  6 30 18 18 20.0000000  0  8G 3G 9G14G15G18G19G21G22
  22355679.7794      88242.37949     60214.31447                  22355677.5124
        44.2504         34.5004
  23373912.2394      68570.77349     47894.32146                  23373910.7304
        40.0004         21.7504
  20319741.1084     -75898.79349    -51969.15548                  20319737.8464
        52.0004         44.7504
  19967107.1134      15030.23449     10222.39948                  19967104.4084
        53.5004         45.2504
  22468997.6424     121323.17649     83000.59347                  22468995.2874
        46.2504         30.2504
  22857128.3384     -97675.08649    -66829.38847                  22857124.2744
        45.2504         34.2504
  22720659.2614     202275.81649    138223.52247                  22720656.7344
        46.2504         32.2504
  21036301.3364      34953.01249     23572.55448                  21036296.7554
        52.2504         41.0004
 04  6 30 18 18 30.0000000  0  8G 3G 9G14G15G18G19G21G22
  22357917.7144     100002.83249     69378.28747                  22357915.8064
        45.5004         34.5004
  23376042.4264      79767.28949     56618.91746                  23376041.0604
        39.7504         22.2504
  20317766.0354     -86278.31649    -60057.10348                  20317762.2714
        51.5004         44.7504
  19967467.7884      16925.57049     11699.27348                  19967464.7114
        54.0004         45.5004
  22472064.3994     137437.40249     95557.12047                  22472061.3424
        45.2504         30.5004
  22854595.7244    -110982.71949    -77198.97647                  22854591.9134
        44.7504         34.5004
  22725816.9204     229378.80949    159342.67447                  22725813.7334
        46.7504         31.5004
  21037142.9714      39376.05149     27019.07548                  21037138.3214
        52.2504         41.2504
 04  6 30 18 18 40.0000000  0  8G 3G 9G14G15G18G19G21G22
  22360159.8674     111785.89849     78559.89147                  22360158.6914
        47.7504         35.0004
  23378180.7204      91003.28149     65374.21146                  23378179.6244
        39.0004         20.5004
  20315796.6334     -96626.23849    -68120.41548                  20315792.5804
        51.7504         44.7504
  19967834.5014      18851.59449     13200.06548                  19967831.7604
        53.0004         45.7504
  22475128.0184     153536.24249    108101.65947                  22475125.3114
        46.5004         31.2504
  22852070.8024    -124255.21149    -87541.17047                  22852066.1854
        45.0004         33.7504
  22730975.4154     256489.93049    180468.20147                  22730973.1424
        45.7504         31.7504
  21037982.7874      43789.57449     30458.17948                  21037978.0444
        51.5004         41.0004
 04  6 30 18 18 50.0000000  0  8G 3G 9G14G15G18G19G21G22
  22362407.4264     123595.16849     87761.90947                  22362405.5334
        44.2504         35.0004
  23380326.9634     102282.41849     74163.20546                  23380325.8934
        37.2504         19.5004
  20313834.2324    -106938.87549    -76156.23148                  20313830.5264
        52.0004         44.5004
  19968207.7204      20812.00449     14727.65748                  19968204.8544
        52.5004         45.7504
  22478189.0574     169623.51249    120637.21347                  22478186.2944
        46.2504         31.0004
  22849551.9654    -137488.82049    -97853.06347                  22849548.0094
        46.0004         34.5004
  22736137.0054     283612.71149    201602.81447                  22736134.3274
        46.0004         31.2504
  21038821.5014      48197.27749     33892.74948                  21038816.4504
        52.0004         41.0004
 04  6 30 18 19  0.0000000  0  8G 3G 9G14G15G18G19G21G22
  22364659.3554     135429.56649     96983.51947                  22364657.2854
        45.5004         35.5004
  23382480.5674     113603.64149     82984.88446                  23382480.0254
        38.5004         20.5004
  20311878.2614    -117217.30949    -84165.41048                  20311874.6534
        51.7504         45.2504
  19968586.9904      22805.78549     16281.25348                  19968584.2384
        53.2504         46.2504
  22481248.0134     185698.09449    133162.83847                  22481245.1814
        46.5004         31.0004
  22847041.1464    -150684.55149   -108135.46447                  22847036.4614
        45.7504         34.5004
  22741299.6644     310745.77749    222745.41747                  22741297.4364
        45.0004         31.2504
  21039659.0934      52598.09449     37321.95348                  21039654.1214
        51.5004         41.0004
 04  6 30 18 19 10.0000000  0  8G 3G 9G14G15G18G19G21G22
  22366916.7124     147290.66449    106225.91847                  22366914.6074
        46.0004         35.0004
  23384642.9674     124968.63349     91840.68646                  23384642.7404
        38.5004         18.2504
  20309929.3134    -127459.75449    -92146.53848                  20309925.5704
        52.0004         44.7504
  19968972.9724      24834.69949     17862.21848                  19968969.9134
        53.5004         46.0004
  22484304.9994     201761.69949    145679.91547                  22484301.6214
        46.7504         31.5004
  22844537.8964    -163840.70349   -118387.01347                  22844533.0694
        46.7504         34.5004
  22746465.8714     337891.11349    243897.59747                  22746463.1244
        44.7504         29.7504
  21040495.4804      56993.67649     40747.06648                  21040490.7974
        52.2504         41.2504
 04  6 30 18 19 20.0000000  0  8G 3G 9G14G15G18G19G21G22
  22369178.4904     159178.83649    115489.41247                  22369176.8174
        47.5004         35.0004
  23386815.1734     136377.68449    100730.85746                  23386814.0034
        38.2504         18.5004
  20307987.1064    -137665.95349   -100099.41548                  20307983.7044
        52.0004         44.7504
  19969365.8204      26899.15649     19470.88548                  19969363.0664
        53.7504         45.5004
  22487359.4364     217814.66849    158188.72147                  22487357.1274
        46.0004         30.2504
  22842041.5104    -176956.81249   -128607.34447                  22842036.8834
        46.5004         34.2504
  22751633.5384     365049.16049    265059.68747                  22751631.1934
        43.0004         28.5004
  21041331.1144      61384.37549     44168.39848                  21041326.6704
        52.2504         41.0004
 04  6 30 18 19 30.0000000  0  8G 3G 9G14G15G18G19G21G22
  22371445.3844     171089.73049    124770.61147                  22371443.7684
        44.7504         34.5004
  23388992.9874     147826.59449    109652.07446                  23388992.6374
        38.5004         17.5004
  20306051.0684    -147840.09449   -108027.32148                  20306048.1274
        52.5004         44.7504
  19969764.6294      28994.93849     21103.95048                  19969761.3294
        53.2504         45.5004
  22490411.3924     233852.85249    170686.00447                  22490408.8814
        46.2504         30.7504
  22839552.6404    -190037.13749   -138799.80747                  22839547.8584
        47.0004         34.2504
  22756803.0604     392215.56649    286228.28147                  22756800.3514
        43.5004         28.5004
  21042164.6204      65765.98449     47582.62648                  21042160.1484
        52.0004         41.2504
 04  6 30 18 19 40.0000000  0  8G 3G 9G14G15G18G19G21G22
  22373716.6114     183024.21149    134070.17547                  22373714.6314
        47.7504         34.0004
  23391179.4914     159316.23049    118605.02046                  23391179.0384
        37.7504         17.7504
  20304121.3634    -157981.23449   -115929.51948                  20304118.0794
        52.5004         44.0004
  19970169.6264      31123.02049     22762.18548                  19970167.0494
        54.7504         44.7504
  22493460.9794     249877.14849    183172.46247                  22493458.2784
        46.0004         30.0004
  22837070.2784    -203080.73849   -148963.66547                  22837066.1464
        47.5004         33.5004
  22761974.3064     419391.00449    307403.93947                  22761971.8884
        42.7504         27.7504
  21042997.1784      70139.43049     50990.50248                  21042992.3504
        51.7504         40.2504
 04  6 30 18 19 50.0000000  0  8G 3G 9G14G15G18G19G21G22
  22375992.0554     194983.32449    143388.96347                  22375990.3824
        46.2504         35.0004
  23393373.7944     170847.75448    127590.60946                  23393373.5564
        35.7504         18.5004
  20302197.7514    -168088.29349   -123805.14048                  20302194.5604
        52.0004         45.0004
  19970581.1484      33284.55149     24446.49648                  19970578.2024
        54.2504         46.0004
  22496507.7674     265888.80149    195649.06247                  22496505.1414
        46.7504         31.0004
  22834595.2894    -216086.42249   -159097.95847                  22834591.3464
        47.5004         34.2504
  22767146.9774     446576.82449    328587.68647                  22767145.4134
        44.0004         27.2504
  21043828.1754      74505.89149     54392.93848                  21043823.0024
        51.7504         41.5004
 04  6 30 18 20  0.0000000  0  8G 3G 9G14G15G18G19G21G22
  22378271.4584     206962.91849    152723.69547                  22378269.5214
        45.5004         35.2504
  23395575.5824     182416.93448    136605.50946                  23395574.7004
        33.2504         18.5004
  20300280.2834    -178165.39849   -131657.42848                  20300276.6684
        52.5004         44.7504
  19970998.0544      35475.44149     26153.67548                  19970994.8234
        52.5004         45.5004
  22499551.5514     281883.60549    208112.53447                  22499549.0634
        46.2504         30.5004
  22832127.2084    -229058.26649   -169205.89847                  22832122.5194
        48.0004         34.5004
  22772321.4604     473768.82049    349776.21747                  22772319.8654
        43.7504         29.5004
  21044656.9444      78861.21549     57786.69648                  21044652.5304
        52.2504         41.2504
 04  6 30 18 20 10.0000000  0  8G 3G 9G14G15G18G19G21G22
  22380555.5934     218963.06349    162074.43747                  22380553.4204
        44.0004         35.5004
  23397784.3554     194023.99248    145650.00846                  23397783.7684
        33.5004         17.5004
  20298368.5264    -188212.30549   -139486.19248                  20298365.2334
        52.0004         45.2504
  19971420.4724      37695.94949     27883.92648                  19971417.5144
        52.5004         46.0004
  22502592.4954     297861.75449    220563.02247                  22502588.9084
        46.5004         31.7504
  22829665.6164    -241996.00849   -179287.25647                  22829660.8304
        47.5004         35.5004
  22777497.6814     500967.09449    370969.65047                  22777495.4384
        44.0004         30.0004
  21045483.5084      83205.64149     61171.95348                  21045478.4154
        51.7504         42.0004
 04  6 30 18 20 20.0000000  0  8G 3G 9G14G15G18G19G21G22
  22382842.7774     230984.28149    171441.62347                  22382841.3514
        44.5004         34.5004
  23399999.8674     205669.32848    154724.26946                  23399999.2074
        33.7504         18.2504
  20296462.3474    -198228.52049   -147291.02648                  20296458.7434
        52.2504         45.0004
  19971848.7994      39946.64849     29637.73748                  19971845.6904
        53.0004         45.7504
  22505630.0094     313823.79349    233000.99647                  22505626.5144
        47.5004         31.5004
  22827210.1814    -254899.09449   -189341.59047                  22827205.5924
        48.0004         35.5004
  22782674.4684     528171.83649    392168.14147                  22782672.1684
        45.7504         29.7504
  21046308.1664      87539.66849     64549.13748                  21046303.3214
        53.0004         42.0004
 04  6 30 18 20 30.0000000  0  8G 3G 9G14G15G18G19G21G22
  22385135.2344     243029.68449    180827.62947                  22385133.0774
        46.2504         34.5004
  23402224.6934     217356.13748    163830.77446                  23402223.3884
        34.0004         19.2504
  20294562.9724    -208210.79349   -155069.41948                  20294559.2134
        52.0004         44.7504
  19972283.2234      42230.79349     31417.57348                  19972280.7044
        53.2504         45.5004
  22508664.8144     329773.03549    245428.96347                  22508661.2064
        47.0004         30.7504
  22824761.7744    -267764.23449   -199366.37847                  22824757.6684
        48.2504         34.7504
  22787853.7614     555386.68049    413374.48247                  22787850.9454
        46.2504         30.5004
  21047131.8394      91866.54349     67920.71548                  21047126.9114
        52.2504         42.0004
 04  6 30 18 20 40.0000000  0  8G 3G 9G14G15G18G19G21G22
  22387430.7614     255093.46549    190227.95547                  22387429.2634
        44.5004         34.5004
  23404454.9364     229078.75448    172965.31346                  23404454.3574
        35.5004         17.7504
  20292668.4684    -218164.85249   -162825.82348                  20292664.8134
        52.2504         44.7504
  19972723.3064      44542.71949     33219.06948                  19972720.1214
        53.5004         45.5004
  22511696.2964     345703.67649    257842.44847                  22511693.0784
        47.0004         30.7504
  22822319.7174    -280597.16849   -209366.07847                  22822315.4844
        49.2504         35.2504
  22793033.5064     582605.86349    434584.22647                  22793031.1224
        47.0004         30.7504
  21047952.4704      96180.49249     71282.22948                  21047947.6234
        52.2504         41.7504
 04  6 30 18 20 50.0000000  0  8G 3G 9G14G15G18G19G21G22
  22389730.0254     267175.13349    199642.24247                  22389728.5104
        45.2504         34.0004
  23406692.3414     240836.71149    182127.38546                  23406692.0654
        37.0004         19.2504
  20290779.7634    -228091.07849   -170560.54048                  20290776.2504
        52.5004         44.0004
  19973168.2574      46882.07049     35041.94748                  19973165.9304
        53.0004         44.7504
  22514724.0074     361615.35249    270241.14747                  22514720.7494
        47.0004         29.5004
  22819883.9164    -293398.20349   -219340.89947                  22819879.2684
        48.5004         34.7504
  22798214.1414     609828.96549    455796.99547                  22798211.5064
        47.0004         31.2504
  21048770.7084     100481.23449     74633.46048                  21048766.3674
        52.5004         41.2504
 04  6 30 18 21  0.0000000  0  8G 3G 9G14G15G18G19G21G22
  22392033.0754     279278.59849    209073.50447                  22392031.2304
        44.7504         34.5004
  23408937.6874     252633.96549    191319.96946                  23408936.7194
        38.5004         20.0004
  20288896.9164    -237985.53549   -178270.51048                  20288893.2174
        52.0004         44.5004
  19973619.5884      49252.82049     36889.27648                  19973616.5224
        53.0004         45.5004
  22517749.2774     377512.08249    282628.20347                  22517746.1054
        46.5004         30.0004
  22817454.6304    -306163.30149   -229287.73047                  22817450.2364
        48.7504         35.0004
  22803396.1134     637059.59849    477015.65047                  22803393.5104
        47.5004         31.7504
  21049587.8264     104772.67649     77977.44448                  21049582.9564
        52.5004         42.2504
 04  6 30 18 21 10.0000000  0  8G 3G 9G14G15G18G19G21G22
  22394340.1744     291402.84049    218520.94547                  22394338.3764
        46.0004         34.5004
  23411189.7924     264469.47749    200542.43646                  23411188.8954
        39.5004         20.0004
  20287020.1154    -247849.16849   -185956.45748                  20287016.5594
        51.7504         44.7504
  19974076.3214      51653.99249     38760.30848                  19974073.8904
        54.2504         45.5004
  22520771.2644     393392.90249    295002.85947                  22520767.8644
        46.5004         30.0004
  22815032.6714    -318893.48849   -239207.35947                  22815028.1394
        49.0004         35.2504
  22808579.5074     664296.96549    498239.52647                  22808576.2094
        47.5004         32.0004
  21050402.3004     109053.76649     81313.35548                  21050397.5094
        51.5004         42.2504
 04  6 30 18 21 20.0000000  0  8G 3G 9G14G15G18G19G21G22
  22396650.2034     303543.70749    227981.35347                  22396648.7824
        43.7504         34.5004
  23413448.2334     276339.06349    209791.43746                  23413447.5534
        39.0004         21.5004
  20285147.9184    -257686.07849   -193621.57548                  20285144.3544
        52.5004         45.2504
  19974538.4474      54081.54749     40651.90948                  19974535.7084
        52.7504         46.0004
  22523789.3514     409253.66849    307361.90447                  22523786.4364
        45.7504         30.2504
  22812615.4704    -331592.78949   -249102.91247                  22812611.2694
        47.7504         36.2504
  22813762.9214     691537.02349    519465.53547                  22813759.6484
        47.2504         31.7504
  21051214.0834     113320.41449     84638.00548                  21051209.3424
        52.0004         42.7504
 04  6 30 18 21 30.0000000  0  8G 3G 9G14G15G18G19G21G22
  22398964.6414     315703.79749    237456.75347                  22398963.1004
        45.0004         34.2504
  23415715.5614     288245.41849    219069.11046                  23415713.7074
        38.5004         21.7504
  20283281.4074    -267493.59449   -201263.78748                  20283278.0654
        52.5004         45.0004
  19975005.9214      56538.18449     42566.17648                  19975002.9404
        52.5004         45.5004
  22526803.9984     425097.11749    319707.43047                  22526802.0124
        46.0004         30.5004
  22810205.5074    -344258.50849   -258972.30447                  22810201.0594
        48.5004         35.2504
  22818947.6114     718782.12149    540695.46247                  22818943.9574
        47.0004         31.2504
  21052023.9224     117575.34849     87953.54748                  21052019.2314
        51.7504         42.5004
 04  6 30 18 21 40.0000000  0  8G 3G 9G14G15G18G19G21G22
  22401282.2824     327883.91049    246947.72947                  22401281.2974
        44.0004         33.7504
  23417988.1904     300189.39849    228376.09746                  23417986.8554
        39.0004         21.7504
  20281421.1654    -277270.87149   -208882.45148                  20281417.8274
        52.0004         45.0004
  19975479.1334      59024.81349     44503.80248                  19975476.2384
        53.2504         45.5004
  22529816.1344     440924.07449    332040.10147                  22529813.2714
        46.5004         29.7504
  22807801.8624    -356889.77749   -268814.85347                  22807797.2894
        48.5004         34.5004
  22824133.1714     746033.30949    561930.12347                  22824130.3664
        47.0004         31.2504
  21052831.6894     121819.44949     91260.62948                  21052826.7514
        53.0004         42.5004
 04  6 30 18 21 50.0000000  0  8G 3G 9G14G15G18G19G21G22
  22403603.1704     340081.66849    256452.46847                  22403602.2074
        43.0004         34.0004
  23420266.7104     312168.65249    237710.59046                  23420266.5104
        37.7504         21.0004
  20279565.9904    -287020.18049   -216479.31648                  20279562.3554
        52.0004         45.0004
  19975957.6234      61539.20349     46463.05948                  19975954.3564
        52.5004         45.5004
  22532824.1514     456732.34049    344358.22347                  22532821.2174
        46.5004         29.5004
  22805404.4964    -369488.69549   -278632.19147                  22805399.3504
        47.0004         34.5004
  22829319.8854     773288.21149    583167.68847                  22829316.5854
        45.7504         32.0004
  21053636.6984     126050.47749     94557.53748                  21053631.9114
        52.5004         42.5004
 04  6 30 18 22  0.0000000  0  8G 3G 9G14G15G18G19G21G22
  22405927.9544     352297.61349    265971.36747                  22405927.1054
        46.0004         34.5004
  23422553.5834     324183.68849    247072.91846                  23422552.9674
        37.5004         21.5004
  20277715.8144    -296740.99649   -224053.98248                  20277712.7884
        52.2504         44.7504
  19976441.4384      64081.96549     48444.42548                  19976438.9624
        53.5004         45.2504
  22535829.8294     472522.33649    356662.11647                  22535825.9444
        46.2504         30.0004
  22803012.8594    -382054.80949   -288423.97347                  22803008.4364
        47.2504         34.7504
  22834506.9984     800547.39149    604408.60147                  22834504.1084
        46.0004         30.0004
  21054439.4694     130268.91449     97844.63048                  21054434.6634
        53.0004         42.0004
 04  6 30 18 22 10.0000000  0  8G 3G 9G14G15G18G19G21G22
  22408256.8894     364536.52349    275508.17547                  22408256.0144
        44.0004         34.7504
  23424847.5834     336239.32049    256466.92646                  23424846.6794
        37.7504         22.2504
  20275872.7904    -306428.44949   -231602.63648                  20275869.6764
        52.0004         45.2504
  19976931.7104      66657.97749     50451.70948                  19976928.6944
        53.2504         46.0004
  22538831.1354     488299.02749    368955.63447                  22538828.1134
        46.5004         29.7504
  22800629.0624    -394583.09849   -298186.26747                  22800624.6814
        47.2504         35.0004
  22839695.5394     827815.54749    625656.49547                  22839693.0834
        45.7504         30.5004
  21055240.5584     134479.69549    101125.76648                  21055235.6294
        52.0004         43.0004
 04  6 30 18 22 20.0000000  0  8G 3G 9G14G15G18G19G21G22
  22410589.1294     376793.79749    285059.27847                  22410588.1154
        44.5004         34.2504
  23427148.4694     348331.05949    265889.07146                  23427148.1814
        39.5004         22.5004
  20274034.1224    -316087.01649   -239128.79648                  20274031.2724
        52.0004         45.0004
  19977427.3794      69262.74649     52481.38448                  19977424.2074
        53.0004         46.0004
  22541830.1014     504057.94949    381235.28547                  22541827.0504
        46.2504         29.2504
  22798250.9194    -407078.09049   -307922.62647                  22798246.1434
        47.0004         35.0004
  22844885.1114     855088.05149    646907.76447                  22844882.5304
        45.0004         30.0004
  21056039.6894     138678.26249    104397.36748                  21056034.9134
        52.5004         42.7504
 04  6 30 18 22 30.0000000  0  8G 3G 9G14G15G18G19G21G22
  22412925.5684     389070.90249    294625.85947                  22412924.2614
        44.0004         34.7504
  23429457.3104     360460.44149    275340.48746                  23429456.2594
        37.2504         23.0004
  20272202.3784    -325715.16449   -246631.24448                  20272199.3014
        52.0004         45.5004
  19977929.0284      71897.85949     54534.72048                  19977925.6644
        52.5004         46.0004
  22544825.7104     519800.65249    393502.33747                  22544822.4664
        46.5004         29.7504
  22795880.0864    -419538.25449   -317631.84147                  22795875.2204
        47.5004         34.2504
  22850076.4854     882366.53949    668163.69847                  22850072.9374
        45.0004         30.5004
  21056836.7704     142866.23049    107660.71848                  21056831.8784
        52.7504         43.2504
 04  6 30 18 22 40.0000000  0  8G 3G 9G14G15G18G19G21G22
  22415264.5864     401362.49649    304203.71147                  22415263.5444
        45.0004         35.2504
  23431770.7004     372622.18849    284817.17746                  23431770.2564
        37.0004         22.5004
  20270375.0354    -335318.13349   -254114.08148                  20270371.9924
        51.5004         45.5004
  19978435.0084      74558.13749     56607.66048                  19978432.0454
        52.7504         46.0004
  22547817.1724     535521.91449    405752.67747                  22547814.2784
        45.7504         30.2504
  22793514.3714    -431968.78949   -327317.98747                  22793510.1924
        47.2504         35.0004
  22855267.2314     909645.77049    689420.22347                  22855264.4554
        45.0004         30.7504
  21057630.4854     147038.29349    110911.66748                  21057625.4834
        52.5004         43.0004
 04  6 30 18 22 50.0000000  0  8G 3G 9G14G15G18G19G21G22
  22417607.6654     413672.80949    313796.15747                  22417606.2284
        44.5004         34.2504
  23434092.8614     384820.51649    294322.35946                  23434092.1554
        37.5004         23.5004
  20268553.5014    -344891.61349   -261573.93848                  20268550.2544
        52.0004         45.5004
  19978946.8344      77247.92649     58703.59148                  19978943.8254
        53.0004         45.7504
  22550806.0474     551226.05949    417989.64747                  22550802.9174
        46.0004         29.5004
  22791155.8054    -444365.34849   -336977.63747                  22791151.1584
        46.0004         34.2504
  22860459.6894     936929.80949    710680.47647                  22860456.0194
        45.0004         30.7504
  21058422.5624     151198.79349    114153.60648                  21058417.3534
        52.5004         43.0004
 04  6 30 18 23  0.0000000  0  8G 3G 9G14G15G18G19G21G22
  22419952.9714     426000.18449    323401.89247                  22419952.1734
        45.0004         34.5004
  23436420.1554     397053.87149    303854.83946                  23436420.0184
        39.0004         22.2504
  20266737.1804    -354437.17649   -269012.03848                  20266733.4434
        52.0004         45.2504
  19979464.0844      79965.68849     60821.32348                  19979460.7614
        53.5004         45.7504
  22553790.5464     566911.53549    430212.05747                  22553787.7924
        46.5004         29.0004
  22788802.7084    -456729.43049   -346611.98647                  22788798.1134
        46.5004         34.5004
  22865652.2884     964217.36749    731943.49047                  22865649.1344
        46.0004         30.0004
  21059211.6494     155346.16449    117385.33148                  21059206.5094
        52.5004         42.7504
 04  6 30 18 23 10.0000000  0  8G 3G 9G14G15G18G19G21G22
  22422302.7064     438344.89849    333021.12847                  22422301.3284
        45.5004         34.0004
  23438755.0814     409322.45749    313414.78146                  23438754.6024
        38.2504         22.5004
  20264925.9294    -363954.58649   -276428.20248                  20264922.4704
        51.7504         45.2504
  19979986.8874      82711.69149     62961.05648                  19979983.8224
        53.5004         45.5004
  22556771.7774     582578.48849    442420.11147                  22556769.1924
        46.5004         29.0004
  22786455.7704    -469060.73849   -356220.80047                  22786451.9654
        46.5004         34.2504
  22870845.3914     991508.69949    753209.40947                  22870842.4784
        45.2504         30.2504
  21059998.2744     159480.74249    120607.07548                  21059993.3604
        52.0004         42.5004
 04  6 30 18 23 20.0000000  0  8G 3G 9G14G15G18G19G21G22
  22424655.0004     450707.71149    342654.48447                  22424653.6904
        44.5004         34.2504
  23441096.3684     421627.18049    323002.89646                  23441096.1674
        38.0004         22.2504
  20263119.9814    -373442.94949   -283821.72448                  20263116.5744
        52.5004         45.5004
  19980514.5714      85486.89549     65123.55248                  19980511.6194
        52.2504         45.7504
  22559749.9824     598227.98049    454614.50847                  22559746.9574
        45.5004         29.5004
  22784115.7224    -481358.39549   -365803.37647                  22784111.9414
        46.5004         34.5004
  22876040.5164    1018804.45749    774478.81047                  22876037.0314
        45.5004         30.0004
  21060782.8944     163603.35949    123819.50848                  21060777.9914
        50.5004         43.0004
 04  6 30 18 23 30.0000000  0  8G 3G 9G14G15G18G19G21G22
  22427010.1584     463083.82049    352298.19647                  22427008.8584
        45.2504         34.5004
  23443444.1544     433963.18049    332615.34246                  23443443.3854
        39.7504         22.7504
  20261319.2324    -382907.03549   -291196.34948                  20261315.5584
        51.5004         46.2504
  19981047.5634      88286.53949     67305.09248                  19981044.3024
        53.0004         46.0004
  22562723.5524     613855.10249    466791.45747                  22562720.5954
        46.5004         28.7504
  22781781.3534    -493627.08649   -375363.38747                  22781777.0104
        46.5004         34.5004
  22881234.2254    1046099.74649    795747.83247                  22881231.1104
        46.2504         29.7504
  21061564.0784     167709.23049    127018.87948                  21061559.2874
        51.7504         42.7504
 04  6 30 18 23 40.0000000  0  8G 3G 9G14G15G18G19G21G22
  22429367.8154     475475.85949    361954.32147                  22429366.6664
        44.7504         35.2504
  23445797.5204     446333.11349    342254.27446                  23445797.3064
        37.7504         22.7504
  20259523.5994    -392344.08249   -298549.88748                  20259519.7814
        52.0004         45.5004
  19981585.4834      91113.43849     69507.86148                  19981582.3314
        52.2504         46.0004
  22565694.0424     629462.73449    478953.23547                  22565690.5074
        46.5004         28.2504
  22779452.7014    -505864.00449   -384898.65247                  22779448.3084
        47.0004         35.0004
  22886428.5674    1073397.41849    817018.71347                  22886425.5564
        45.7504         30.5004
  21062342.6054     171801.09049    130207.33148                  21062337.8384
        50.0004         42.7504
 04  6 30 18 23 50.0000000  0  8G 3G 9G14G15G18G19G21G22
  22431728.9824     487881.83249    371621.29847                  22431727.0264
        47.2504         34.5004
  23448158.4654     458735.08649    351918.11546                  23448157.2624
        38.0004         23.0004
  20257732.3684    -401756.00449   -305883.85148                  20257728.9294
        52.0004         46.0004
  19982128.5024      93965.70349     71730.40148                  19982125.3554
        53.5004         46.2504
  22568659.5064     645048.93049    491098.33947                  22568656.1574
        45.5004         28.2504
  22777129.3654    -518071.10949   -394410.69447                  22777125.1604
        47.0004         35.0004
  22891624.0614    1100695.64149    838290.01747                  22891620.3054
        45.5004         30.5004
  21063118.4184     175877.03149    133383.39848                  21063113.7754
        52.0004         42.7504
 04  6 30 18 24  0.0000000  0  8G 3G 9G14G15G18G19G21G22
  22434092.6504     500303.80149    381300.76247                  22434091.0404
        44.7504         34.2504
  23450524.4954     471171.22349    361608.63546                  23450524.1694
        40.2504         24.0004
  20255946.6224    -411140.69549   -313196.58448                  20255943.3284
        52.0004         45.7504
  19982676.1154      96845.46149     73974.37348                  19982673.1994
        53.7504         46.0004
  22571621.7224     660615.89149    503228.42947                  22571618.7824
        45.7504         28.0004
  22774812.7724    -530246.22749   -403897.78647                  22774808.4614
        47.5004         34.2504
  22896817.8094    1127996.38349    859563.31647                  22896815.8154
        45.5004         29.2504
  21063891.1614     179939.26649    136548.77048                  21063886.4384
        52.0004         42.5004
 04  6 30 18 24 10.0000000  0  8G 3G 9G14G15G18G19G21G22
  22436460.1594     512744.32049    390994.63747                  22436458.8254
        44.7504         34.0004
  23452897.5554     483644.00849    371327.64046                  23452897.2864
        40.5004         22.5004
  20254166.6124    -420495.50049   -320486.05648                  20254163.0834
        51.5004         45.7504
  19983230.0854      99755.38349     76241.83748                  19983227.2574
        53.5004         46.0004
  22574580.9444     676166.26649    515345.56547                  22574577.7924
        45.2504         28.5004
  22772502.5394    -542386.63749   -413357.84747                  22772498.5894
        47.2504         34.0004
  22902014.0114    1155302.10949    880840.45147                  22902011.9094
        45.0004         29.2504
  21064662.5494     183990.35249    139705.44648                  21064657.5564
        52.0004         42.5004
 04  6 30 18 24 20.0000000  0  8G 3G 9G14G15G18G19G21G22
  22438830.9554     525202.05549    400701.94547                  22438828.5234
        47.0004         34.0004
  23455278.4554     496152.15649    381074.23746                  23455277.7754
        38.0004         24.2504
  20252391.9064    -429821.69549   -327753.21848                  20252388.1564
        52.5004         46.0004
  19983789.0894     102694.19549     78531.80948                  19983786.0704
        53.0004         45.7504
  22577536.6574     691698.78949    527448.82147                  22577533.5614
        46.0004         27.7504
  22770198.5394    -554493.65249   -422791.88547                  22770194.5464
        47.0004         34.5004
  22907211.0264    1182611.59049    902120.55747                  22907209.0374
        45.5004         29.0004
  21065430.7494     188029.05949    142852.48948                  21065425.9014
        50.0004         42.0004
 04  6 30 18 24 30.0000000  0  8G 3G 9G14G15G18G19G21G22
  22441204.2664     537674.99249    410421.08947                  22441202.5974
        46.0004         33.7504
  23457664.6054     508693.72749    390846.88146                  23457663.9154
        41.5004         22.7504
  20250622.3964    -439121.27349   -334999.65748                  20250618.6014
        52.0004         45.0004
  19984353.4734     105660.04349     80842.83348                  19984350.4264
        53.2504         45.2504
  22580488.7204     707211.61749    539536.71247                  22580485.4474
        46.0004         26.7504
  22767900.9384    -566569.07849   -432201.33547                  22767896.8214
        47.5004         33.7504
  22912407.7814    1209922.87549    923402.04447                  22912405.9634
        44.7504         28.2504
  21066196.8994     192053.45749    145988.35948                  21066192.0704
        51.5004         41.5004
 04  6 30 18 24 40.0000000  0  8G 3G 9G14G15G18G19G21G22
  22443581.5404     550166.97349    420155.10347                  22443580.2984
        46.7504         34.5004
  23460058.0644     521272.65249    400648.65346                  23460057.3314
        41.2504         24.2504
  20248858.3294    -448390.34449   -342222.28848                  20248855.0404
        52.2504         45.7504
  19984923.9324     108656.82449     83178.01148                  19984921.0364
        53.2504         46.0004
  22583437.6964     722708.48849    551612.21947                  22583434.6394
        46.5004         28.2504
  22765609.1604    -578609.02349   -441583.08547                  22765605.9294
        47.5004         34.5004
  22917606.5394    1237239.62149    944687.82247                  22917604.6894
        44.5004         29.7504
  21066960.6664     196067.41449    149116.14048                  21066955.5844
        52.0004         42.7504
 04  6 30 18 24 50.0000000  0  8G 3G 9G14G15G18G19G21G22
  22445962.0484     562675.02749    429901.61747                  22445960.0954
        46.2504         34.2504
  23462459.1204     533885.95749    410477.19446                  23462457.8934
        40.0004         25.5004
  20247099.7744    -457631.75449   -349423.38848                  20247096.5364
        52.0004         45.7504
  19985499.5824     111681.70749     85535.04748                  19985496.5194
        53.7504         46.0004
  22586383.2904     738186.57849    563673.05147                  22586379.7694
        46.0004         27.7504
  22763324.9644    -590616.35949   -450939.46847                  22763320.7954
        47.0004         34.0004
  22922804.8794    1264559.27049    965975.80847                  22922803.2584
        45.0004         30.0004
  21067722.1284     200068.15649    152233.58448                  21067717.1194
        51.5004         42.0004
 04  6 30 18 25  0.0000000  0  8G 3G 9G14G15G18G19G21G22
  22448345.2864     575199.89549    439661.24947                  22448344.0194
        46.2504         34.5004
  23464865.9124     546534.48049    420333.17846                  23464864.1654
        41.0004         22.5004
  20245346.4944    -466844.73849   -356602.32648                  20245342.9024
        52.0004         45.7504
  19986080.4894     114735.59449     87914.70548                  19986077.5824
        53.5004         46.5004
  22589325.0624     753646.71149    575719.88947                  22589322.1684
        46.0004         29.0004
  22761046.3634    -602590.20749   -460269.72847                  22761042.0144
        47.2504         35.0004
  22928004.3854    1291882.55949    987266.67947                  22928003.1164
        45.0004         30.5004
  21068480.6884     204056.45349    155341.36048                  21068475.7634
        51.5004         42.5004
 04  6 30 18 25 10.0000000  0  8G 3G 9G14G15G18G19G21G22
  22450731.5674     587738.73849    449431.76747                  22450729.9474
        45.7504         34.5004
  23467279.1134     559215.38349    430214.33846                  23467277.6534
        41.5004         23.5004
  20243598.2534    -476032.01249   -363761.23748                  20243594.9654
        52.0004         46.0004
  19986666.6364     117815.69549     90314.78348                  19986664.0144
        52.0004         46.0004
  22592263.0774     769086.14849    587750.58647                  22592260.0984
        45.2504         29.2504
  22758773.3734    -614533.30949   -469576.04447                  22758769.0914
        47.5004         34.5004
  22933204.5024    1319206.39149   1008557.94547                  22933202.6654
        46.2504         30.0004
  21069236.7664     208029.48849    158437.22648                  21069231.9884
        49.0004         42.2504
 04  6 30 18 25 20.0000000  0  8G 3G 9G14G15G18G19G21G22
  22453120.8784     600295.97349    459216.60447                  22453119.0974
        47.2504         34.5004
  23469699.1094     571933.13349    440124.29846                  23469697.7234
        42.0004         24.2504
  20241855.6654    -485189.09449   -370896.63148                  20241852.5594
        52.0004         45.5004
  19987258.9534     120926.52349     92738.79448                  19987255.7934
        53.5004         46.2504
  22595198.1184     784509.43049    599768.73547                  22595195.0994
        46.0004         28.0004
  22756507.1304    -626441.15249   -478854.87447                  22756503.6234
        47.2504         33.2504
  22938404.6984    1346535.44949   1029853.27747                  22938403.1944
        46.7504         29.5004
  21069990.9424     211991.80949    161524.73748                  21069985.8264
        51.2504         42.0004
 04  6 30 18 25 30.0000000  0  8G 3G 9G14G15G18G19G21G22
  22455512.7374     612865.61349    469011.11447                  22455511.3074
        46.7504         34.5004
  23472125.5514     584681.68849    450058.21346                  23472124.2624
        39.0004         22.2504
  20240117.8054    -494321.91849   -378013.11248                  20240114.3294
        51.5004         45.2504
  19987855.4524     124062.21149     95182.17948                  19987852.4304
        52.5004         45.7504
  22598129.1074     799910.63749    611769.65347                  22598125.9234
        46.5004         27.7504
  22754247.0884    -638319.61349   -488110.82347                  22754242.4934
        46.5004         33.5004
  22943605.3514    1373863.77049   1051148.03247                  22943603.4954
        47.0004         30.5004
  21070741.9244     215937.52349    164599.31248                  21070736.6874
        52.0004         41.7504
 04  6 30 18 25 40.0000000  0  8G 3G 9G14G15G18G19G21G22
  22457907.6364     625449.39549    478816.64347                  22457905.7864
        45.5004         33.5004
  23474557.3664     597462.94149    460017.59946                  23474555.8584
        41.5004         24.0004
  20238384.5954    -503428.60549   -385109.24848                  20238381.4074
        51.7504         44.2504
  19988457.2214     127224.59049     97646.36048                  19988455.0744
        54.0004         45.0004
  22601055.6324     815291.57049    623754.78447                  22601052.3384
        46.2504         27.7504
  22751992.8694    -650166.82449   -497342.42747                  22751988.1754
        47.0004         32.7504
  22948806.3354    1401193.12949   1072443.58047                  22948804.2594
        46.5004         29.0004
  21071489.5884     219868.50849    167662.41148                  21071484.7984
        51.5004         41.2504
 04  6 30 18 25 50.0000000  0  8G 3G 9G14G15G18G19G21G22
  22460304.9364     638048.72349    488634.30347                  22460303.6844
        46.0004         35.0004
  23476996.3134     610278.15649    470003.49846                  23476994.8274
        42.5004         25.5004
  20236656.9214    -512507.82049   -392183.94548                  20236653.9184
        51.7504         45.0004
  19989064.2334     130415.14849    100132.51048                  19989061.3574
        54.0004         46.0004
  22603978.7534     830653.78149    635725.34247                  22603975.8194
        45.5004         27.2504
  22749744.3164    -661981.39549   -506548.56547                  22749740.3664
        47.5004         33.5004
  22954007.9084    1428524.76649   1093740.94547                  22954004.8164
        46.5004         31.2504
  21072235.1174     223786.10949    170715.09448                  21072230.2474
        52.5004         42.0004
 04  6 30 18 26  0.0000000  0  8G 3G 9G14G15G18G19G21G22
  22462705.5434     650665.07049    498465.21747                  22462704.3614
        44.5004         34.7504
  23479441.6144     623129.00849    480017.11946                  23479440.0774
        42.0004         24.7504
  20234934.8384    -521557.91449   -399235.95948                  20234931.1894
        52.0004         45.2504
  19989677.2624     133635.58649    102641.94748                  19989674.0514
        53.5004         46.0004
  22606899.0064     845998.86749    647682.53247                  22606895.7654
        45.7504         28.2504
  22747502.8984    -673761.64149   -515727.97447                  22747498.3644
        47.7504         33.5004
  22959209.5604    1455860.44149   1115041.45547                  22959206.8354
        46.5004         30.2504
  21072978.4864     227692.04749    173758.68148                  21072973.8644
        51.5004         42.0004
 04  6 30 18 26 10.0000000  0  8G 3G 9G14G15G18G19G21G22
  22465109.0194     663293.90649    508305.85147                  22465107.9074
        44.5004         35.2504
  23481892.6214     636010.93449    490054.99647                  23481891.2924
        41.7504         26.0004
  20233217.5774    -530583.34449   -406268.75948                  20233214.0754
        50.7504         45.2504
  19990294.8044     136881.47749    105171.20648                  19990292.1334
        53.2504         46.0004
  22609815.0674     861322.32449    659622.88147                  22609811.4704
        45.5004         29.5004
  22745267.1794    -685512.00849   -524884.10947                  22745262.3194
        47.5004         33.5004
  22964411.2174    1483195.50849   1136341.47347                  22964408.6004
        46.2504         29.2504
  21073718.8624     231581.77749    176789.63948                  21073713.3204
        52.5004         42.7504
 04  6 30 18 26 20.0000000  0  8G 3G 9G14G15G18G19G21G22
  22467514.6094     675937.93049    518158.31747                  22467514.2124
        46.0004         34.5004
  23484350.4324     648926.67649    500119.18046                  23484349.3554
        39.5004         25.0004
  20231505.0034    -539581.40249   -413280.23848                  20231501.2274
        51.5004         45.0004
  19990917.6994     140155.57849    107722.45348                  19990915.2404
        53.7504         46.0004
  22612727.6164     876626.91049    671548.52647                  22612724.5284
        46.2504         28.0004
  22743037.0084    -697229.67649   -534014.76347                  22743032.4354
        47.7504         33.7504
  22969612.9634    1510532.73049   1157643.18247                  22969610.3274
        45.7504         29.2504
  21074456.3834     235458.04749    179810.09948                  21074451.3804
        52.5004         42.0004
 04  6 30 18 26 30.0000000  0  8G 3G 9G14G15G18G19G21G22
  22469924.3224     688599.86749    528024.76547                  22469923.4524
        44.0004         33.5004
  23486815.2814     661879.00449    510211.93646                  23486813.6424
        38.5004         23.2504
  20229798.3184    -548549.27749   -420268.18948                  20229794.6204
        51.2504         44.5004
  19991546.5014     143460.67249    110297.84148                  19991543.7544
        53.5004         45.7504
  22615636.6024     891915.45749    683461.65147                  22615633.4004
        46.0004         28.7504
  22740813.8024    -708911.82449   -543117.73747                  22740809.7164
        47.5004         33.7504
  22974815.7434    1537874.69549   1178948.56947                  22974813.1704
        45.5004         28.0004
  21075191.9764     239323.68849    182822.29648                  21075186.9144
        52.5004         42.2504
 04  6 30 18 26 40.0000000  0  8G 3G 9G14G15G18G19G21G22
  22472336.5024     701276.49649    537902.62747                  22472335.3904
        45.5004         34.0004
  23489286.4424     674864.71949    520330.62646                  23489285.0734
        40.0004         24.0004
  20228097.1714    -557490.11749   -427235.07948                  20228093.8404
        52.2504         45.0004
  19992181.2254     146793.68849    112894.99248                  19992178.3524
        53.0004         45.5004
  22618541.9104     907184.85549    695359.87247                  22618539.4434
        46.0004         27.7504
  22738596.7034    -720561.53949   -552195.43847                  22738592.6214
        47.2504         34.0004
  22980018.9034    1565218.57449   1200255.46447                  22980016.3334
        45.0004         28.0004
  21075925.0174     243175.63749    185823.80748                  21075919.9054
        52.0004         42.2504
 04  6 30 18 26 50.0000000  0  8G 3G 9G14G15G18G19G21G22
  22474751.5014     713966.59049    547791.00547                  22474750.6954
        45.5004         33.0004
  23491763.6684     687882.63349    530474.45846                  23491761.8964
        41.5004         23.2504
  20226400.5874    -566405.06249   -434181.78748                  20226397.1994
        51.2504         44.0004
  19992820.1414     150153.52349    115513.04248                  19992817.5604
        52.7504         44.5004
  22621444.4874     922433.96549    707242.28747                  22621441.5594
        45.5004         27.0004
  22736385.7424    -732179.98449   -561248.76647                  22736381.5074
        47.0004         32.5004
  22985221.8974    1592563.05549   1221562.81646                  22985220.1234
        44.7504         25.5004
  21076655.2164     247012.62549    188813.66248                  21076649.8934
        49.5004         40.5004
 04  6 30 18 27  0.0000000  0  8G 3G 9G14G15G18G19G21G22
  22477168.6474     726669.05149    557689.02747                  22477167.7264
        45.0004         33.7504
  23494246.6944     700931.59449    540642.48447                  23494245.4594
        40.0004         25.7504
  20224709.2174    -575295.25049   -441109.19148                  20224705.6494
        51.2504         45.0004
  19993464.4944     153539.09449    118151.15048                  19993461.6364
        50.2504         45.5004
  22624342.5004     937661.72349    719108.06647                  22624339.4914
        45.7504         29.5004
  22734180.8144    -743768.19949   -570278.54047                  22734176.8804
        47.0004         33.5004
  22990425.2454    1619906.89849   1242869.69146                  22990423.6014
        44.0004         25.5004
  21077382.0844     250833.53549    191790.99948                  21077377.3214
        48.0004         41.7504
 04  6 30 18 27 10.0000000  0  8G 3G 9G14G15G18G19G21G22
  22479588.7454     739386.59849    567598.78547                  22479587.4784
        43.2504         33.0004
  23496736.1184     714014.48449    550836.92947                  23496734.8264
        40.0004         26.5004
  20223022.2534    -584157.78949   -448015.07548                  20223018.9954
        51.5004         45.7504
  19994114.4064     156953.28149    120811.54848                  19994111.5394
        48.2504         45.5004
  22627236.1784     952870.94949    730959.40147                  22627233.6924
        45.5004         30.0004
  22731982.2804    -755323.28549   -579282.51747                  22731977.4084
        47.2504         33.0004
  22995629.3194    1647253.06349   1264178.37747                  22995627.1004
        43.5004         25.7504
  21078106.9814     254641.34849    194758.12848                  21078101.5814
        48.2504         42.0004
 04  6 30 18 27 20.0000000  0  8G 3G 9G14G15G18G19G21G22
  22482012.6684     752122.11749    577522.56547                  22482010.6384
        44.0004         34.2504
  23499233.1644     727134.14849    561060.05247                  23499231.2514
        39.5004         27.2504
  20221341.7484    -592989.74249   -454897.11148                  20221338.2564
        51.2504         46.0004
  19994769.8964     160399.10949    123496.60748                  19994767.0024
        48.2504         45.7504
  22630127.2624     968064.68849    742798.67747                  22630124.8414
        45.0004         29.2504
  22729790.2524    -766842.30949   -588258.37047                  22729786.2924
        47.0004         34.0004
  23000834.1724    1674604.51249   1285491.17547                  23000831.9634
        44.7504         27.0004
  21078829.5454     258439.05549    197717.37348                  21078824.4114
        48.2504         42.0004
 04  6 30 18 27 30.0000000  0  8G 3G 9G14G15G18G19G21G22
  22484438.1814     764870.24249    587456.16047                  22484436.6324
        45.0004         34.0004
  23501735.6924     740285.25849    571307.65647                  23501733.8894
        41.2504         26.7504
  20219666.2054    -601796.40249   -461759.45448                  20219662.5154
        51.2504         45.7504
  19995430.8074     163871.29349    126202.18548                  19995427.8404
        48.5004         45.5004
  22633014.3844     983237.64149    754621.72747                  22633012.5434
        45.2504         29.2504
  22727603.7454    -778330.53149   -597210.25547                  22727599.5494
        47.0004         33.2504
  23006039.0024    1701955.75449   1306803.77847                  23006037.2544
        45.0004         26.2504
  21079549.6414     262221.35549    200664.60448                  21079544.1454
        48.2504         42.0004
 04  6 30 18 27 40.0000000  0  8G 3G 9G14G15G18G19G21G22
  22486867.3764     777635.22349    597402.88947                  22486865.8094
        45.5004         33.5004
  23504245.0144     753472.12149    581583.13147                  23504244.0064
        40.2504         28.0004
  20217995.9684    -610573.47749   -468598.72848                  20217992.2444
        52.0004         45.7504
  19996097.3544     167374.18449    128931.70848                  19996094.5024
        51.0004         45.0004
  22635898.9454     998394.19149    766432.03647                  22635896.5114
        44.7504         29.5004
  22725424.2994    -789783.50849   -606134.65547                  22725420.3064
        46.7504         33.5004
  23011244.9184    1729311.12549   1328119.64347                  23011242.4874
        44.5004         27.0004
  21080266.9494     265992.54349    203603.19448                  21080261.9244
        49.0004         41.7504
 04  6 30 18 27 50.0000000  0  8G 3G 9G14G15G18G19G21G22
  22489298.8774     790410.66849    607357.76547                  22489297.3794
        46.5004         33.5004
  23506760.0504     766688.43849    591881.55247                  23506758.6654
        42.2504         28.0004
  20216330.2984    -619327.24249   -475419.84048                  20216326.2274
        52.2504         45.7504
  19996768.6304     170901.48849    131680.25148                  19996765.7424
        51.7504         45.0004
  22638778.5344    1013527.99649    778224.59247                  22638775.9514
        44.5004         28.7504
  22723250.7694    -801207.45349   -615036.41947                  22723245.8464
        46.2504         33.5004
  23016450.3484    1756664.23049   1349433.74047                  23016447.6354
        44.7504         26.7504
  21080980.9914     269746.34849    206528.24548                  21080976.2354
        50.5004         41.7504
 04  6 30 18 28  0.0000000  0  8G 3G 9G14G15G18G19G21G22
  22491732.4214     803201.44149    617324.58647                  22491731.0144
        46.0004         33.0004
  23509282.0644     779939.03549    602206.69047                  23509280.8954
        43.5004         26.2504
  20214669.6154    -628052.83249   -482218.99648                  20214666.5224
        52.0004         45.2504
  19997445.2704     174458.17649    134451.69548                  19997442.7644
        53.0004         44.5004
  22641655.5104    1028643.96549    790003.27447                  22641653.0824
        44.5004         28.0004
  22721083.1044    -812597.57449   -623911.82647                  22721079.1074
        46.7504         32.7504
  23021656.0264    1784020.07049   1370749.93046                  23021653.2104
        45.0004         24.7504
  21081693.3254     273487.72749    209443.60948                  21081688.2694
        51.5004         41.0004
 04  6 30 18 28 10.0000000  0  8G 3G 9G14G15G18G19G21G22
  22494169.2924     816006.80149    627302.77947                  22494168.0124
        47.2504         33.7504
  23511809.1994     793223.18049    612557.94347                  23511808.5114
        41.5004         29.0004
  20213014.3364    -636750.88349   -488996.69548                  20213010.6204
        52.0004         46.0004
  19998127.1604     178043.61349    137245.53848                  19998125.1524
        53.0004         45.2504
  22644528.0744    1043741.45749    801767.55047                  22644525.5804
        44.7504         29.0004
  22718922.2894    -823954.52349   -632761.41147                  22718917.9194
        47.2504         33.2504
  23026861.8484    1811377.88349   1392067.68347                  23026859.6664
        44.2504         26.2504
  21082402.7034     277215.98049    212348.73248                  21082397.6584
        51.5004         42.0004
 04  6 30 18 28 20.0000000  0  8G 3G 9G14G15G18G19G21G22
  22496609.0784     828828.34449    637293.57947                  22496608.0334
        47.2504         34.2504
  23514344.0584     806542.59049    622936.69947                  23514342.7664
        41.0004         28.2504
  20211365.0044    -645419.72349   -495751.62948                  20211360.9894
        51.5004         46.0004
  19998815.7414     181659.52749    140063.12648                  19998813.2014
        52.5004         45.2504
  22647398.0204    1058822.25849    813518.80047                  22647395.0554
        45.0004         29.2504
  22716767.3064    -835276.47749   -641583.70347                  22716763.1804
        47.5004         33.7504
  23032068.2534    1838739.29349   1413388.23747                  23032065.8504
        45.2504         27.2504
  21083110.0064     280932.77749    215244.95848                  21083105.0484
        51.0004         41.7504
 04  6 30 18 28 30.0000000  0  8G 3G 9G14G15G18G19G21G22
  22499051.3314     841662.39149    647294.10247                  22499049.7824
        45.7504         34.0004
  23516884.7824     819893.52749    633340.00747                  23516883.7774
        42.0004         29.0004
  20209720.0454    -654062.96549   -502486.64048                  20209716.0624
        51.2504         46.5004
  19999508.8364     185302.26249    142901.60848                  19999505.7504
        53.5004         45.7504
  22650264.0844    1073882.73049    825254.19747                  22650261.4344
        44.5004         29.5004
  22714618.9074    -846567.16849   -650381.64647                  22714614.6724
        47.5004         33.7504
  23037274.6384    1866100.58249   1434708.68047                  23037272.6594
        44.5004         26.5004
  21083814.6404     284634.54349    218129.42648                  21083810.2654
        51.0004         42.5004
 04  6 30 18 28 40.0000000  0  8G 3G 9G14G15G18G19G21G22
  22501496.4964     854511.79749    657306.64247                  22501494.8744
        45.7504         33.2504
  23519431.9904     833278.89149    643770.17647                  23519430.9994
        41.7504         29.5004
  20208080.8374    -662677.72749   -509199.41948                  20208077.2924
        51.7504         45.7504
  20000207.8004     188974.83649    145763.35548                  20000205.1504
        52.2504         45.2504
  22653127.0554    1088925.75449    836976.05247                  22653123.4764
        45.0004         29.0004
  22712476.8364    -857823.50049   -659152.80447                  22712472.4904
        47.5004         33.5004
  23042482.4574    1893464.62149   1456031.27946                  23042480.2084
        44.0004         24.7504
  21084516.3494     288324.24249    221004.53148                  21084511.4914
        52.0004         42.7504
 04  6 30 18 28 50.0000000  0  8G 3G 9G14G15G18G19G21G22
  22503944.6554     867376.22749    667330.84247                  22503942.7504
        47.0004         33.0004
  23521985.3384     846698.38349    654226.88747                  23521983.8474
        42.2504         29.2504
  20206446.8984    -671264.23049   -515890.20748                  20206442.5664
        51.5004         46.0004
  20000912.4654     192676.94949    148648.11548                  20000909.6874
        53.5004         45.0004
  22655985.5294    1103951.06649    848684.08547                  22655983.2804
        45.2504         28.7504
  22710340.7494    -869045.78949   -667897.45647                  22710336.8394
        48.0004         33.0004
  23047689.7914    1920831.23849   1477355.87246                  23047687.9024
        44.5004         25.5004
  21085216.2164     292001.52749    223869.93248                  21085211.5324
        52.2504         42.0004
 04  6 30 18 29  0.0000000  0  8G 3G 9G14G15G18G19G21G22
  22506395.8984     880256.56349    677367.45447                  22506393.7844
        47.0004         33.5004
  23524545.9174     860152.96149    664710.96947                  23524544.1724
        42.2504         29.0004
  20204818.4244    -679821.52049   -522558.23048                  20204814.6844
        52.0004         45.5004
  20001622.6914     196409.64149    151556.69448                  20001619.9384
        53.5004         45.0004
  22658841.8084    1118959.76249    860379.15647                  22658838.9134
        46.0004         28.7504
  22708212.1464    -880233.00049   -676614.76347                  22708207.7224
        47.2504         32.7504
  23052898.4624    1948201.34849   1498683.19746                  23052896.2544
        44.2504         24.7504
  21085913.9844     295667.47349    226726.51848                  21085909.2454
        51.7504         42.0004
 04  6 30 18 29 10.0000000  0  8G 3G 9G14G15G18G19G21G22
  22508848.6014     893147.79749    687412.56247                  22508846.8504
        45.5004         33.0004
  23527112.6274     873637.66849    675218.52847                  23527111.1084
        41.7504         28.0004
  20203194.3954    -688354.59049   -529207.37148                  20203190.8544
        51.5004         45.0004
  20002337.9684     200168.05549    154485.32948                  20002335.2944
        53.7504         44.5004
  22661693.9204    1133946.78149    872057.35147                  22661691.4274
        45.7504         28.7504
  22706088.8494    -891390.03149   -685308.55447                  22706085.0614
        47.0004         31.2504
  23058106.5584    1975569.96549   1520009.34847                  23058104.4784
        44.5004         26.0004
  21086608.4774     299317.17649    229570.44248                  21086603.5514
        51.5004         41.5004
 04  6 30 18 29 20.0000000  0  8G 3G 9G14G15G18G19G21G22
  22511304.8804     906054.97749    697470.09147                  22511303.1744
        45.2504         32.5004
  23529684.6704     887157.57449    685753.51047                  23529682.9594
        43.0004         29.0004
  20201576.4204    -696858.29349   -535833.63048                  20201572.9594
        51.0004         46.0004
  20003058.9834     203957.31349    157437.99248                  20003056.5474
        53.5004         45.2504
  22664542.4014    1148917.35949    883722.72647                  22664540.2014
        45.5004         28.5004
  22703972.9734    -902511.76649   -693974.84347                  22703968.5144
        46.5004         32.5004
  23063314.9134    2002942.05549   1541338.21747                  23063313.0194
        44.2504         25.7504
  21087301.0984     302955.72349    232405.66848                  21087296.3764
        51.5004         41.7504
 04  6 30 18 29 30.0000000  0  8G 3G 9G14G15G18G19G21G22
  22513763.4334     918974.49649    707537.24347                  22513760.7954
        46.0004         33.5004
  23532263.4614     900709.06649    696313.11047                  23532262.1764
        41.0004         29.0004
  20199963.0264    -705336.18049   -542439.77348                  20199959.5974
        52.0004         46.0004
  20003785.6124     207773.92649    160411.96948                  20003783.0354
        52.7504         45.2504
  22667387.2224    1163868.00049    895372.55647                  22667384.6574
        45.2504         28.0004
  22701862.4634    -913601.63749   -702616.29747                  22701858.3694
        47.0004         33.0004
  23068524.1994    2030314.13749   1562667.09847                  23068521.7774
        44.5004         26.7504
  21087990.2594     306579.60949    235229.47848                  21087985.5604
        50.2504         41.7504
 04  6 30 18 29 40.0000000  0  8G 3G 9G14G15G18G19G21G22
  22516224.2454     931905.92249    717613.64947                  22516222.1774
        46.2504         33.5004
  23534848.1274     914291.72749    706896.98247                  23534846.4594
        41.0004         27.7504
  20198354.3964    -713788.61749   -549026.08548                  20198351.1304
        52.2504         46.5004
  20004516.6324     211617.51249    163406.96548                  20004514.3434
        52.0004         45.5004
  22670229.0434    1178798.34049    907006.59947                  22670225.6234
        45.0004         29.0004
  22699758.1254    -924660.10249   -711233.29047                  22699753.7474
        46.7504         33.2504
  23073733.2144    2057685.82849   1583995.65347                  23073730.7514
        45.0004         27.5004
  21088677.1694     310188.43449    238041.54148                  21088672.2174
        50.2504         42.2504
 04  6 30 18 29 50.0000000  0  8G 3G 9G14G15G18G19G21G22
  22518688.2984     944853.92249    727703.00147                  22518686.4854
        47.5004         33.7504
  23537439.0974     927910.31649    717508.87047                  23537438.0444
        43.0004         29.5004
  20196751.7744    -722210.82849   -555588.85148                  20196748.7404
        52.0004         46.0004
  20005254.1004     215492.89849    166426.73848                  20005251.4684
        50.2504         45.5004
  22673067.4284    1193713.19549    918628.56047                  22673064.2364
        45.7504         28.2504
  22697660.4144    -935682.30149   -719822.02447                  22697656.0154
        47.0004         33.0004
  23078942.8854    2085061.75849   1605327.50547                  23078940.1174
        45.7504         29.7504
  21089361.8164     313787.01249    240845.63348                  21089357.0954
        48.5004         42.0004
 04  6 30 18 30  0.0000000  0  8G 3G 9G14G15G18G19G21G22
  22521155.0204     957816.03549    737803.31847                  22521152.8434
        46.5004         33.5004
  23540037.1614     941562.35549    728146.80947                  23540035.5514
        42.7504         29.0004
  20195154.5134    -730605.25449   -562129.96148                  20195150.9664
        51.5004         46.0004
  20005997.1794     219397.75449    169469.47248                  20005994.5524
        48.2504         45.2504
  22675901.7904    1208610.15649    930236.55247                  22675898.7164
        45.5004         28.5004
  22695569.9944    -946670.57449   -728384.30047                  22695565.2064
        47.2504         33.5004
  23084152.5254    2112439.59849   1626660.87247                  23084149.9644
        46.0004         28.2504
  21090044.3714     317372.93849    243639.84648                  21090039.4644
        48.2504         41.7504
 04  6 30 18 30 10.0000000  0  8G 3G 9G14G15G18G19G21G22
  22523624.6214     970791.50049    747914.07247                  22523622.4204
        46.0004         34.5004
  23542641.6174     955247.12549    738810.28147                  23542639.5764
        42.2504         28.5004
  20193562.2734    -738972.49649   -568649.89648                  20193559.0544
        51.2504         46.0004
  20006745.9964     223331.43049    172534.66748                  20006743.2884
        48.2504         45.5004
  22678732.6264    1223488.55549    941830.10547                  22678729.7384
        45.2504         28.0004
  22693484.5254    -957625.55549   -736920.66247                  22693480.6374
        47.5004         33.0004
  23089363.4004    2139818.66049   1647995.16947                  23089360.2234
        46.2504         29.0004
  21090723.7814     320945.69149    246423.80748                  21090719.3004
        48.0004         42.0004
 04  6 30 18 30 20.0000000  0  8G 3G 9G14G15G18G19G21G22
  22526096.1134     983780.29349    758035.20347                  22526093.9574
        45.5004         33.7504
  23545252.3984     968964.58249    749499.21647                  23545249.9614
        41.7504         28.0004
  20191975.2374    -747312.63349   -575148.69348                  20191971.7004
        52.0004         45.5004
  20007499.8034     227293.86349    175622.27648                  20007497.1624
        49.5004         45.2504
  22681560.7204    1238348.51249    953409.28947                  22681558.0964
        45.5004         27.7504
  22691406.4494    -968547.22349   -745431.04447                  22691402.5684
        46.5004         32.7504
  23094572.5934    2167198.92649   1669330.42847                  23094570.2294
        47.0004         30.0004
  21091401.7194     324505.14149    249197.42148                  21091396.6914
        48.2504         42.0004
 04  6 30 18 30 30.0000000  0  8G 3G 9G14G15G18G19G21G22
  22528570.4394     996783.29749    768167.39347                  22528568.4734
        46.2504         34.5004
  23547868.7414     982715.69949    760214.34447                  23547867.1834
        40.5004         28.0004
  20190393.5814    -755624.63749   -581625.58048                  20190390.1774
        52.0004         46.0004
  20008259.4374     231286.14549    178733.13148                  20008256.6714
        52.0004         45.5004
  22684385.4274    1253190.97349    964974.84647                  22684382.6994
        44.5004         29.7504
  22689335.2544    -979434.53549   -753914.66347                  22689330.8444
        46.7504         33.5004
  23099783.4524    2194581.25849   1690667.26647                  23099781.2564
        46.2504         30.2504
  21092076.6344     328052.28149    251961.41148                  21092071.7714
        48.5004         42.5004
 04  6 30 18 30 40.0000000  0  8G 3G 9G14G15G18G19G21G22
  22531047.5134    1009802.06349    778311.87547                  22531046.2774
        45.0004         33.7504
  23550491.7394     996502.00049    770956.91347                  23550490.3784
        41.0004         28.0004
  20188817.4394    -763906.95749   -588079.33148                  20188814.1074
        51.2504         46.2504
  20009025.2604     235309.87949    181868.51048                  20009022.5704
        53.0004         45.5004
  22687206.7674    1268017.50049    976527.96747                  22687204.1454
        44.2504         28.2504
  22687269.6634    -990285.96549   -762370.32447                  22687265.4794
        47.2504         33.2504
  23104994.6644    2221967.20349   1712006.92747                  23104992.6864
        45.5004         29.5004
  21092749.5704     331588.74249    254717.09648                  21092744.6054
        50.0004         42.5004
 04  6 30 18 30 50.0000000  0  8G 3G 9G14G15G18G19G21G22
  22533527.4894    1022833.64549    788466.34347                  22533525.7944
        44.5004         34.0004
  23553121.5744    1010320.65649    781724.64547                  23553120.4094
        41.0004         29.0004
  20187246.5174    -772162.42249   -594512.15848                  20187243.2654
        52.2504         46.5004
  20009796.2264     239362.27749    185026.20848                  20009793.5184
        54.0004         45.7504
  22690024.4064    1282825.35549    988066.53547                  22690021.5584
        44.5004         28.7504
  22685211.2714   -1001104.28149   -770800.17947                  22685207.1904
        46.7504         33.5004
  23110207.0054    2249353.86749   1733347.14547                  23110204.4394
        45.0004         30.5004
  21093420.1364     335111.73449    257462.28548                  21093414.8474
        50.7504         43.0004
 04  6 30 18 31  0.0000000  0  8G 3G 9G14G15G18G19G21G22
  22536009.5254    1035877.06649    798630.01847                  22536007.7554
        46.0004         34.2504
  23555757.0274    1024170.74249    792516.96647                  23555755.9754
        41.0004         30.0004
  20185680.7624    -780391.93749   -600924.77948                  20185676.9434
        51.5004         46.7504
  20010572.7844     243442.48849    188205.57448                  20010569.8064
        53.0004         45.7504
  22692838.5884    1297613.65649    999589.85247                  22692835.9044
        44.5004         28.5004
  22683158.2794   -1011890.35949   -779204.95147                  22683154.4774
        46.7504         33.2504
  23115418.4614    2276740.43449   1754687.26947                  23115415.7924
        46.0004         29.0004
  21094087.7344     338620.39849    260196.29548                  21094082.5044
        52.0004         43.0004
 04  6 30 18 31 10.0000000  0  8G 3G 9G14G15G18G19G21G22
  22538493.7934    1048932.99249    808803.45747                  22538492.4284
        46.5004         34.5004
  23558398.3954    1038052.89849    803334.23847                  23558397.4514
        41.7504         29.0004
  20184119.5454    -788594.73449   -607316.55848                  20184116.3644
        51.0004         46.2504
  20011354.6174     247551.22749    191407.19348                  20011352.1034
        53.0004         45.5004
  22695649.3024    1312383.14549   1011098.54647                  22695646.2134
        44.5004         29.2504
  22681112.6334   -1022643.45749   -787583.98147                  22681108.8344
        47.7504         33.2504
  23120629.4074    2304127.57849   1776027.87547                  23120627.4634
        45.0004         28.5004
  21094752.6264     342115.51649    262919.77148                  21094747.9424
        51.5004         42.0004
 04  6 30 18 31 20.0000000  0  8G 3G 9G14G15G18G19G21G22
  22540980.5224    1062000.94149    818986.26147                  22540979.4844
        43.2504         34.2504
  23561046.8694    1051966.70749    814176.16047                  23561045.1084
        41.2504         29.7504
  20182563.7074    -796771.28949   -613687.89948                  20182560.2494
        51.7504         45.7504
  20012141.5964     251688.12149    194630.74748                  20012139.3564
        52.5004         45.5004
  22698456.5254    1327133.39549   1022592.21747                  22698453.3974
        45.0004         29.0004
  22679072.3094   -1033363.97349   -795937.61947                  22679068.2224
        47.5004         33.5004
  23125841.4284    2331514.77049   1797368.50947                  23125839.1424
        46.0004         29.5004
  21095415.1394     345596.64149    265632.32548                  21095410.0524
        50.2504         42.0004
 04  6 30 18 31 30.0000000  0  9G 3G 9G14G15G18G19G21G22G25
  22543469.6684    1075080.45749    829178.08747                  22543468.3004
        45.2504         33.7504
  23563699.8904    1065911.75049    825042.42547                  23563698.8494
        42.2504         28.5004
  20181012.6674    -804921.94149   -620039.05348                  20181008.7524
        52.0004         45.5004
  20012934.2354     255852.82049    197875.96848                  20012931.8134
        53.5004         45.2504
  22701259.9924    1341864.10249   1034070.69047                  22701256.6304
        44.5004         29.2504
  22677038.6334   -1044052.13749   -804266.07247                  22677034.6024
        47.5004         33.5004
  23131052.5324    2358901.57449   1818708.88347                  23131050.6094
        45.5004         28.5004
  21096074.5814     349063.38349    268333.69548                  21096069.9404
        50.5004         42.0004
  24061157.4914     -29280.64859
        38.5004
 04  6 30 18 31 40.0000000  0  9G 3G 9G14G15G18G19G21G22G25
  22545960.8594    1088172.97349    839380.03347                  22545959.9964
        44.5004         33.7504
  23566359.8454    1079889.42649    835934.10947                  23566358.9044
        41.0004         29.2504
  20179466.6714    -813045.23849   -626368.89348                  20179463.0814
        51.2504         45.7504
  20013732.3304     260046.86749    201144.05548                  20013730.0184
        53.0004         45.5004
  22704058.9044    1356576.71949   1045535.06047                  22704055.6004
        43.0004         29.0004
  22675011.0734   -1054706.51649   -812568.17547                  22675007.0044
        46.0004         33.0004
  23136264.6954    2386289.62549   1840050.17547                  23136262.5274
        45.5004         29.5004
  21096731.9244     352517.19149    271024.95948                  21096726.6944
        50.5004         41.5004
  24053820.9764     -67833.19949    -43252.34356                  24053820.1684
        38.0004         20.0004
 04  6 30 18 31 50.0000000  0  9G 3G 9G14G15G18G19G21G22G25
  22548455.6244    1101281.48849    849594.44147                  22548454.4364
        45.2504         33.2504
  23569026.2424    1093902.80949    846853.62047                  23569025.9164
        42.5004         30.7504
  20177926.5434    -821138.14149   -632675.05748                  20177923.0924
        52.0004         46.0004
  20014536.6764     264273.36749    204437.42648                  20014534.4764
        53.5004         45.5004
  22706856.3444    1371274.35949   1056987.74747                  22706853.0544
        45.7504         30.2504
  22672990.9314   -1065324.02349   -820841.56647                  22672986.3434
        47.5004         33.5004
  23141477.1624    2413681.71949   1861394.63247                  23141474.9024
        45.5004         29.2504
  21097387.5844     355961.22349    273708.61648                  21097382.7444
        50.7504         42.0004
  24046480.4954    -106411.44949    -73313.26246                  24046478.7034
        37.5004         17.7504
 04  6 30 18 32  0.0000000  0  9G 3G 9G14G15G18G19G21G22G25
  22550952.1204    1114403.23049    859819.17647                  22550951.1414
        46.0004         34.0004
  23571699.4754    1107949.12149    857798.78147                  23571699.0044
        42.5004         30.2504
  20176391.9874    -829203.37949   -638959.65148                  20176388.2234
        51.5004         45.7504
  20015346.7124     268529.63749    207753.98448                  20015344.1404
        52.2504         45.5004
  22709650.0234    1385954.32049   1068426.65847                  22709645.7844
        44.0004         30.5004
  22670976.9894   -1075907.35249   -829088.32447                  22670972.4704
        48.5004         33.0004
  23146690.0964    2441075.25049   1882740.24447                  23146688.1114
        45.5004         27.5004
  21098040.4464     359392.73449    276382.52248                  21098035.5174
        50.5004         41.7504
  24039133.1034    -145017.98849   -103396.25046                  24039132.4614
        37.5004         18.5004
 04  6 30 18 32 10.0000000  0  9G 3G 9G14G15G18G19G21G22G25
  22553452.1654    1127540.27749    870055.82047                  22553451.2854
        46.2504         33.7504
  23574378.5274    1122030.52749    868771.32447                  23574377.8924
        41.5004         31.0004
  20174862.9244    -837238.74649   -645220.97648                  20174858.9784
        52.2504         46.2504
  20016162.9744     272817.88749    211095.48148                  20016160.1374
        52.0004         45.5004
  22712439.9094    1400618.89549   1079853.60147                  22712436.7874
        44.2504         30.0004
  22668970.1134   -1086454.29749   -837306.70947                  22668965.7434
        47.5004         33.5004
  23151903.5074    2468472.37549   1904088.58947                  23151901.2994
        46.0004         27.7504
  21098691.3374     362813.98849    279048.43648                  21098686.8354
        48.7504         42.2504
  24031781.4094    -183650.56649   -133499.47946                  24031780.3234
        37.2504         20.0004
 04  6 30 18 32 20.0000000  0  9G 3G 9G14G15G18G19G21G22G25
  22555954.6664    1140690.39849    880302.65447                  22555953.9564
        44.7504         33.5004
  23577065.1584    1136144.78949    879769.44247                  23577064.0214
        41.0004         32.0004
  20173338.8764    -845246.44149   -651460.73148                  20173335.1224
        51.2504         45.7504
  20016984.3074     277135.92249    214460.18048                  20016981.8594
        51.7504         45.5004
  22715227.3724    1415265.88749   1091266.83047                  22715223.7624
        43.0004         30.7504
  22666969.4374   -1096966.99249   -845498.42947                  22666964.9164
        47.5004         33.7504
  23157116.8964    2495870.83249   1925438.03647                  23157115.4334
        45.5004         28.0004
  21099339.9064     366222.83649    281704.66848                  21099335.5314
        50.0004         42.0004
  24024424.6634    -222311.16049   -163624.61146                  24024423.6914
        38.7504         20.0004
 04  6 30 18 32 30.0000000  0  9G 3G 9G14G15G18G19G21G22G25
  22558459.0964    1153849.94549    890556.83547                  22558458.0064
        45.5004         33.5004
  23579756.3964    1150288.32849    890790.35547                  23579755.8224
        41.7504         32.2504
  20171819.7394    -853230.03549   -657681.71648                  20171816.5724
        51.2504         45.5004
  20017811.0984     281480.20749    217845.33448                  20017808.7234
        51.2504         45.2504
  22718010.6704    1429891.79749   1102663.64847                  22718007.2534
        43.0004         30.2504
  22664974.7114   -1107448.98449   -853666.21747                  22664970.7324
        48.0004         33.5004
  23162330.9034    2523266.95749   1946785.61647                  23162328.7324
        45.2504         28.5004
  21099985.5504     369615.69549    284348.45348                  21099980.7704
        49.7504         42.0004
  24017061.7044    -261003.30549   -193774.33246                  24017060.3934
        38.2504         17.5004
 04  6 30 18 32 40.0000000  0  9G 3G 9G14G15G18G19G21G22G25
  22560965.3634    1167021.30149    900820.22547                  22560964.2974
        46.7504         32.7504
  23582453.8434    1164463.51549    901835.91247                  23582452.8534
        41.0004         31.5004
  20170305.7184    -861187.05949   -663881.99148                  20170301.9494
        52.0004         46.0004
  20018643.1424     285853.23449    221252.88248                  20018640.7044
        52.2504         45.0004
  22720790.6824    1444498.95749   1114045.82747                  22720787.1014
        44.5004         30.7504
  22662986.4774   -1117897.75449   -861808.10747                  22662982.5954
        47.5004         33.7504
  23167543.8224    2550663.17649   1968133.29347                  23167541.4864
        45.0004         29.2504
  21100628.8924     372994.99649    286981.67048                  21100623.9964
        50.7504         42.0004
  24009693.3004    -299724.41449   -223946.55946                  24009691.8444
        39.5004         18.5004
 04  6 30 18 32 50.0000000  0  9G 3G 9G14G15G18G19G21G22G25
  22563473.7424    1180201.28549    911090.33047                  22563472.2354
        47.0004         32.5004
  23585156.4864    1178667.14549    912903.69847                  23585155.7574
        45.0004         31.5004
  20168795.7984    -869120.64549   -670064.02348                  20168792.3324
        52.0004         45.0004
  20019480.2304     290251.90249    224680.40448                  20019477.5304
        52.5004         44.2504
  22723565.9794    1459084.37949   1125411.05747                  22723562.8894
        46.2504         31.0004
  22661003.4514   -1128316.39549   -869926.54747                  22660999.7754
        47.5004         32.7504
  23172756.0924    2578056.39549   1989478.59447                  23172754.8174
        45.0004         27.7504
  21101268.6194     376357.68049    289601.92648                  21101264.0244
        51.0004         41.5004
  24002318.8674    -338477.46949   -254143.76646                  24002317.2004
        39.2504         18.2504
 04  6 30 18 33  0.0000000  0  9G 3G 9G14G15G18G19G21G22G25
  22565984.6724    1193396.67649    921372.44347                  22565983.0724
        46.5004         33.5004
  23587866.4224    1192906.09849    923998.98847                  23587865.2714
        43.5004         32.0004
  20167291.9724    -877023.96549   -676222.44348                  20167288.3044
        51.5004         45.5004
  20020323.6944     294683.11749    228133.30248                  20020320.8334
        50.7504         45.0004
  22726338.4024    1473654.95749   1136764.76647                  22726335.0894
        45.7504         30.5004
  22659028.2524   -1138698.03549   -878016.13947                  22659023.7834
        47.2504         34.0004
  23177970.1464    2605453.38349   2010826.87947                  23177968.2444
        44.2504         27.0004
  21101906.9464     379710.61749    292214.60548                  21101901.7974
        49.2504         42.0004
  23994939.5594    -377255.59449   -284360.44646                  23994937.7254
        39.5004         20.0004
 04  6 30 18 33 10.0000000  0  9G 3G 9G14G15G18G19G21G22G25
  22568497.4724    1206603.02349    931663.09947                  22568496.1754
        46.5004         33.5004
  23590582.0864    1207175.84849    935118.26447                  23590580.9834
        43.5004         32.2504
  20165792.8514    -884901.49249   -682360.76948                  20165789.6134
        51.5004         45.7504
  20021172.2504     299142.51649    231608.15748                  20021169.5834
        52.0004         44.7504
  22729107.8624    1488206.23849   1148103.39747                  22729104.5204
        45.7504         31.5004
  22657058.9094   -1149047.11349   -886080.35247                  22657054.5394
        47.5004         34.0004
  23183183.0454    2632849.77049   2032174.64947                  23183181.9254
        44.0004         28.0004
  21102542.2254     383049.40249    294816.24748                  21102537.3324
        51.0004         42.2504
  23987555.1084    -416063.00049   -314599.98946                  23987552.8804
        41.5004         21.5004
 04  6 30 18 33 20.0000000  0  9G 3G 9G14G15G18G19G21G22G25
  22571013.1384    1219821.42249    941963.13147                  22571011.6784
        46.0004         34.0004
  23593303.7344    1221477.58649    946262.46147                  23593303.1434
        42.2504         32.5004
  20164299.1084    -892751.89149   -688477.95748                  20164295.8134
        51.5004         46.0004
  20022026.5004     303631.32449    235105.92848                  20022023.7464
        52.2504         45.0004
  22731872.9754    1502739.46949   1159427.98447                  22731869.6794
        46.2504         32.0004
  22655095.8644   -1159362.44949   -894118.28447                  22655092.1774
        47.0004         34.0004
  23188396.6374    2660246.60249   2053522.79847                  23188395.2424
        44.0004         28.2504
  21103175.0204     386375.24249    297407.80548                  21103169.8434
        50.7504         42.2504
  23980164.7434    -454898.33249   -344861.24946                  23980162.9064
        42.0004         20.5004
 04  6 30 18 33 30.0000000  0  9G 3G 9G14G15G18G19G21G22G25
  22573531.1724    1233052.19549    952272.81547                  22573529.4224
        45.5004         34.0004
  23596030.7534    1235811.69949    957431.91247                  23596030.5584
        42.0004         32.0004
  20162810.5474    -900574.81249   -694573.73648                  20162806.9254
        51.5004         46.0004
  20022886.3584     308150.04749    238627.01048                  20022883.6024
        51.5004         45.2504
  22734635.5314    1517255.13749   1170738.88047                  22734632.2234
        44.0004         32.5004
  22653139.4874   -1169643.48849   -902129.47347                  22653135.2494
        48.0004         33.5004
  23193609.9254    2687644.42649   2074871.70647                  23193609.1984
        44.0004         27.0004
  21103805.6474     389688.64849    299989.67848                  21103800.3144
        51.0004         42.0004
  23972769.4984    -493761.02349   -375143.79846                  23972767.8334
        42.2504         21.7504
 04  6 30 18 33 40.0000000  0  9G 3G 9G14G15G18G19G21G22G25
  22576049.3834    1246289.01649    962587.19347                  22576048.0144
        47.5004         33.2504
  23598763.8674    1250171.88349    968621.64547                  23598763.5174
        41.7504         31.2504
  20161325.5984    -908376.57849   -700653.03748                  20161322.1074
        51.7504         45.5004
  20023750.5684     312692.41049    242166.50848                  20023747.6334
        50.0004         44.5004
  22737393.1954    1531746.93849   1182031.17447                  22737390.4214
        43.2504         31.5004
  22651188.8524   -1179896.51249   -910118.85147                  22651184.7764
        47.2504         33.7504
  23198823.0654    2715036.84449   2096216.41247                  23198821.6294
        44.0004         26.0004
  21104432.3924     392983.33249    302556.95048                  21104427.6314
        50.0004         41.2504
  23965367.4664    -532657.23449   -405452.51746                  23965366.6734
        42.7504         22.2504
 04  6 30 18 33 50.0000000  0  9G 3G 9G14G15G18G19G21G22G25
  22578569.7204    1259531.98449    972906.39847                  22578567.9294
        47.2504         33.5004
  23601501.1064    1264558.27049    979831.79547                  23601500.6984
        42.2504         31.2504
  20159845.2384    -916156.87549   -706715.59648                  20159841.6814
        52.2504         45.2504
  20024619.5364     317258.66849    245724.63348                  20024616.9784
        52.0004         44.5004
  22740146.0584    1546215.16049   1193305.10847                  22740143.3184
        44.5004         32.0004
  22649242.8064   -1190121.22749   -918086.15647                  22649238.9654
        47.0004         33.5004
  23204034.8834    2742423.98449   2117557.04347                  23204033.4754
        44.0004         25.7504
  21105055.6904     396259.54749    305109.84548                  21105050.7204
        51.0004         41.7504
  23957960.0804    -571586.67249   -435787.17446                  23957958.9344
        43.2504         22.2504
 04  6 30 18 34  0.0000000  0  9G 3G 9G14G15G18G19G21G22G25
  22581092.1944    1272786.48849    983234.55347                  22581090.0854
        47.2504         32.7504
  23604244.2414    1278976.30949    991066.62747                  23604244.5314
        43.5004         29.7504
  20158369.7624    -923910.35549   -712757.28448                  20158365.9904
        51.5004         44.5004
  20025494.1574     321854.32449    249305.64448                  20025491.1694
        51.5004         43.5004
  22742896.0034    1560665.29749   1204564.91747                  22742893.3874
        46.5004         31.5004
  22647303.2224   -1200312.18749   -926027.17347                  22647299.5984
        47.0004         32.7504
  23209246.7994    2769811.34849   2138897.80546                  23209244.9304
        44.5004         24.7504
  21105676.8534     399522.80149    307652.62448                  21105672.0824
        49.2504         40.5004
  23950546.5404    -610543.70349   -466143.31946                  23950546.3994
        43.5004         24.0004
 04  6 30 18 34 10.0000000  0  9G 3G 9G14G15G18G19G21G22G25
  22583616.4814    1286052.58649    993571.75847                  22583614.7804
        46.7504         32.5004
  23606994.8934    1293425.94049   1002326.09747                  23606994.4734
        39.2504         30.5004
  20156899.5194    -931636.99649   -718778.02948                  20156895.9754
        51.0004         45.5004
  20026374.1754     326479.41449    252909.61348                  20026371.3744
        52.0004         44.7504
  22745642.1264    1575097.35949   1215810.68547                  22745639.4814
        45.5004         32.5004
  22645370.6574   -1210469.30149   -933941.80347                  22645366.9354
        46.0004         34.0004
  23214458.1694    2797199.14849   2160238.90547                  23214456.4574
        44.5004         26.2504
  21106295.3964     402773.14149    310185.35548                  21106290.5624
        50.7504         42.0004
  23943128.2054    -649528.17249   -496520.76246                  23943128.0004
        44.0004         22.7504
 04  6 30 18 34 20.0000000  0  9G 3G 9G14G15G18G19G21G22G25
  22586142.9364    1299329.68849   1003917.55647                  22586141.1744
        45.7504         33.5004
  23609750.2864    1307906.78949   1013609.84247                  23609749.6574
        41.5004         30.5004
  20155433.8384    -939337.25049   -724778.22148                  20155430.7184
        51.5004         45.5004
  20027259.8214     331133.47749    256536.16048                  20027256.7524
        53.5004         45.0004
  22748385.3954    1589510.91049   1227042.02747                  22748382.1854
        45.7504         32.5004
  22643443.8424   -1220593.05549   -941830.43347                  22643440.2984
        46.7504         34.0004
  23219670.1394    2824586.76249   2181579.89546                  23219668.2114
        44.7504         24.7504
  21106911.3624     406010.01249    312707.59948                  21106906.4024
        51.0004         41.7504
  23935704.5194    -688540.53149   -526919.98846                  23935704.0054
        43.0004         24.5004
 04  6 30 18 34 30.0000000  0  9G 3G 9G14G15G18G19G21G22G25
  22588671.7524    1312617.94149   1014272.02247                  22588669.7104
        46.2504         33.2504
  23612512.0954    1322418.93849   1024917.97947                  23612510.9974
        39.5004         31.0004
  20153973.5804    -947010.84449   -730757.65348                  20153970.6404
        51.7504         46.0004
  20028151.2014     335816.79749    260185.47748                  20028148.2484
        52.7504         45.0004
  22751124.8934    1603906.28149   1238259.18147                  22751121.6374
        45.7504         33.2504
  22641523.9804   -1230683.16049   -949692.86047                  22641520.3474
        47.2504         34.0004
  23224882.0304    2851974.15249   2202920.69346                  23224879.2914
        44.2504         22.5004
  21107524.4324     409233.73049    315219.57048                  21107519.7844
        50.7504         42.2504
  23928275.5814    -727580.39149   -557340.64546                  23928274.9424
        42.5004         24.5004
 04  6 30 18 34 40.0000000  0  9G 3G 9G14G15G18G19G21G22G25
  22591202.8234    1325917.99249   1024635.68747                  22591200.8044
        45.5004         33.2504
  23615279.5084    1336963.14149   1036251.14347                  23615278.3654
        38.5004         30.5004
  20152518.8754    -954656.98049   -736715.68048                  20152515.4544
        51.2504         46.0004
  20029048.0174     340530.17249    263858.22748                  20029045.3154
        53.0004         45.0004
  22753860.8474    1618284.25449   1249462.79547                  22753857.9014
        45.2504         33.5004
  22639610.5504   -1240738.80149   -957528.42247                  22639606.7704
        47.0004         33.5004
  23230093.7634    2879362.20749   2224262.00746                  23230090.9464
        44.5004         23.0004
  21108136.2184     412445.14549    317721.96848                  21108131.2214
        50.2504         41.7504
  23920841.1674    -766646.81649   -587782.01246                  23920841.3644
        43.2504         24.5004
 04  6 30 18 34 50.0000000  0  9G 3G 9G14G15G18G19G21G22G25
  22593736.4534    1339229.10549   1035007.96447                  22593733.8134
        46.0004         33.0004
  23618052.7474    1351538.68049   1047608.67247                  23618052.5504
        39.0004         29.7504
  20151069.1904    -962276.39149   -742652.88548                  20151065.3024
        50.5004         45.7504
  20029950.6964     345272.94549    267553.89148                  20029947.7584
        52.7504         45.0004
  22756593.2304    1632644.13349   1260652.29047                  22756590.2094
        45.2504         33.5004
  22637703.0194   -1250760.67249   -965337.67447                  22637699.4844
        47.0004         32.5004
  23235305.4454    2906750.13749   2245603.23046                  23235302.5904
        44.0004         23.0004
  21108744.6614     415643.54349    320214.21448                  21108740.0174
        50.7504         41.7504
  23913401.6514    -805740.37949   -618244.49246                  23913401.9294
        42.7504         24.2504
 04  6 30 18 35  0.0000000  0  9G 3G 9G14G15G18G19G21G22G25
  22596270.2104    1352551.05549   1045388.68747                  22596268.8924
        46.5004         32.7504
  23620832.2344    1366145.32449   1058990.46947                  23620831.8164
        40.7504         29.0004
  20149623.8724    -969869.29749   -748569.43648                  20149620.7894
        51.0004         46.0004
  20030858.5514     350044.95749    271272.33148                  20030855.7994
        53.2504         45.0004
  22759322.3634    1646985.80149   1271827.60547                  22759319.0634
        46.5004         33.2504
  22635802.3204   -1260748.89849   -973120.72247                  22635798.5374
        46.2504         32.5004
  23240516.7494    2934137.73049   2266944.16246                  23240514.2284
        44.5004         22.5004
  21109350.3874     418828.74649    322696.18948                  21109345.6664
        51.2504         41.5004
  23905957.3504    -844861.10249   -648728.19046                  23905957.9454
        42.7504         25.5004
 04  6 30 18 35 10.0000000  0  9G 3G 9G14G15G18G19G21G22G25
  22598808.4964    1365886.33649   1055779.81547                  22598806.4454
        46.2504         32.5004
  23623618.2544    1380785.54749   1070398.42647                  23623617.3164
        41.0004         29.7504
  20148184.7304    -977433.14549   -754463.33948                  20148181.3624
        50.7504         45.5004
  20031773.0164     354848.78949    275015.56848                  20031770.1314
        53.0004         45.0004
  22762048.3714    1661311.81349   1282990.73347                  22762045.5794
        44.0004         33.2504
  22633908.7734   -1270700.94949   -980875.55847                  22633904.7584
        46.5004         33.0004
  23245729.4744    2961527.57449   2288286.83046                  23245726.3724
        42.5004         24.2504
  21109955.0904     422003.37149    325169.90848                  21109949.9064
        50.2504         42.0004
  23898508.6454    -884006.36349   -679230.95846                  23898508.3544
        43.0004         24.7504
 04  6 30 18 35 20.0000000  0  9G 3G 9G14G15G18G19G21G22G25
  22601348.0234    1379232.10249   1066179.10747                  22601346.1654
        45.5004         33.5004
  23626410.3314    1395456.52349   1081830.33847                  23626409.1084
        39.5004         30.2504
  20146750.1374    -984970.75849   -760336.80148                  20146746.5684
        50.0004         46.0004
  20032692.6284     359681.67249    278781.44348                  20032689.8584
        54.2504         45.2504
  22764771.0604    1675619.38749   1294139.48647                  22764768.4314
        47.0004         33.7504
  22632021.4804   -1280619.64549   -988604.40647                  22632017.3934
        46.7504         33.2504
  23250940.8444    2988916.82849   2309629.08746                  23250938.3564
        44.0004         24.2504
  21110556.3684     425164.61349    327633.21748                  21110551.2664
        50.7504         42.0004
  23891054.7934    -923178.82049   -709754.89246                  23891054.5414
        42.2504         24.7504
 04  6 30 18 35 30.0000000  0  9G 3G 9G14G15G18G19G21G22G25
  22603889.5934    1392586.71149   1076585.28347                  22603887.3684
        46.2504         32.0004
  23629207.9574    1410156.65649   1093284.98647                  23629206.9354
        40.5004         29.2504
  20145320.7504    -992483.76249   -766191.08848                  20145317.1174
        48.0004         45.5004
  20033617.4214     364542.07049    282568.76648                  20033614.5854
        53.5004         45.5004
  22767489.6624    1689907.05149   1305272.70847                  22767487.0974
        47.0004         34.0004
  22630140.0084   -1290506.45349   -996308.42347                  22630136.1754
        46.5004         33.2504
  23256152.7824    3016303.87949   2330969.56946                  23256150.5404
        43.7504         25.0004
  21111155.0084     428311.00049    330084.94248                  21111150.4534
        47.7504         42.2504
  23883594.0474    -962379.80549   -740301.12346                  23883594.6514
        41.7504         24.0004
 04  6 30 18 35 40.0000000  0  9G 3G 9G14G15G18G19G21G22G25
  22606432.9894    1405953.13749   1087000.66447                  22606431.9634
        45.0004         33.2504
  23632011.0524    1424888.90249   1104764.65547                  23632009.9514
        39.2504         29.7504
  20143895.9634    -999969.04749   -772023.77348                  20143892.6764
        50.2504         46.0004
  20034548.1344     369433.04349    286379.90648                  20034545.7224
        54.0004         45.7504
  22770205.2614    1704177.76249   1316392.72247                  22770202.9394
        46.0004         34.2504
  22628265.1654   -1300358.28949  -1003985.18547                  22628261.2524
        46.5004         33.7504
  23261364.3724    3043691.81349   2352310.80546                  23261362.5754
        44.5004         25.5004
  21111751.1604     431445.46549    332527.37548                  21111746.4784
        50.0004         42.5004
  23876130.0654   -1001606.25449   -770867.14846                  23876129.9564
        40.5004         24.0004
 04  6 30 18 35 50.0000000  0  9G 3G 9G14G15G18G19G21G22G25
  22608978.1054    1419326.85249   1097421.73747                  22608976.5074
        45.2504         32.7504
  23634820.7964    1439648.94149   1116265.94847                  23634818.9144
        40.5004         30.7504
  20142476.1484   -1007430.99649   -777838.27848                  20142472.7854
        48.2504         45.5004
  20035483.7054     374350.24249    290211.48648                  20035481.0024
        54.0004         45.7504
  22772917.1604    1718427.19949   1327496.16647                  22772914.4054
        44.5004         34.5004
  22626395.7164   -1310179.55549  -1011638.12447                  22626392.3934
        46.2504         33.0004
  23266575.1534    3071075.92249   2373648.99946                  23266573.5624
        44.7504         24.5004
  21112345.0754     434563.72749    334957.18448                  21112339.9084
        47.5004         42.0004
  23868659.0314   -1040862.36749   -801456.30246                  23868659.5394
        40.0004         22.7504
 04  6 30 18 36  0.0000000  0  9G 3G 9G14G15G18G19G21G22G25
  22611524.0074    1432709.00449   1107849.38847                  22611523.0434
        43.2504         33.0004
  23637635.2824    1454437.78949   1127789.73647                  23637632.6414
        41.5004         29.5004
  20141060.7314   -1014868.37549   -783633.62748                  20141057.9244
        49.0004         45.5004
  20036424.9464     379294.88349    294064.45748                  20036422.0534
        52.0004         45.2504
  22775625.0734    1732656.58649   1338584.00347                  22775622.5134
        46.0004         33.5004
  22624533.4574   -1319969.00049  -1019266.26047                  22624529.4944
        46.0004         33.2504
  23271786.8154    3098457.53949   2394985.33747                  23271784.5674
        45.2504         26.5004
  21112935.3864     437666.97349    337375.30748                  21112930.4204
        49.2504         41.7504
  23861183.6274   -1080146.91849   -832067.62046                  23861183.9264
        39.2504         24.5004
 04  6 30 18 36 10.0000000  0  9G 3G 9G14G15G18G19G21G22G25
  22614072.6694    1446100.57849   1118284.35747                  22614071.3904
        45.7504         33.0004
  23640454.9374    1469256.44149   1139336.73447                  23640452.7504
        44.0004         30.5004
  20139650.5924   -1022280.22349   -789409.09448                  20139646.9434
        48.2504         45.5004
  20037371.0674     384267.98049    297939.59448                  20037368.3264
        53.2504         45.5004
  22778329.2074    1746866.97749   1349657.00947                  22778326.3054
        47.5004         34.0004
  22622676.9114   -1329725.63349  -1026868.84047                  22622673.0414
        46.7504         33.5004
  23276996.7124    3125837.73449   2416320.49347                  23276994.9744
        45.2504         26.5004
  21113523.4514     440756.23849    339782.51448                  21113518.4394
        48.7504         42.0004
  23853702.4444   -1119458.76249   -862700.20746                  23853702.3084
        39.7504         22.5004
 04  6 30 18 36 20.0000000  0  9G 3G 9G14G15G18G19G21G22G25
  22616623.4154    1459503.72349   1128728.35547                  22616621.7304
        45.0004         32.5004
  23643280.9304    1484107.11349   1150908.69147                  23643278.7774
        42.2504         29.5004
  20138245.2424   -1029664.36349   -795162.97348                  20138242.0304
        48.7504         44.7504
  20038323.2974     389271.82849    301838.69748                  20038320.6954
        52.7504         44.7504
  22781030.2364    1761060.57449   1360716.95647                  22781027.6564
        47.0004         33.0004
  22620826.4944   -1339447.11349  -1034444.01747                  22620822.3384
        46.0004         32.2504
  23282207.0974    3153218.70349   2437656.27646                  23282205.2924
        45.2504         24.7504
  21114108.8454     443833.77349    342180.58648                  21114104.4664
        49.5004         41.0004
  23846217.1524   -1158795.50449   -893352.15646                  23846216.8594
        40.7504         22.2504
 04  6 30 18 36 30.0000000  0  9G 3G 9G14G15G18G19G21G22G25
  22619175.2694    1472915.59849   1139179.15947                  22619173.6454
        44.0004         33.2504
  23646112.0404    1498986.94949   1162503.36647                  23646110.1634
        43.2504         29.5004
  20136844.7134   -1037023.67249   -800897.49548                  20136841.4184
        49.5004         45.5004
  20039280.9644     394303.59849    305759.56148                  20039277.8774
        53.0004         45.2504
  22783727.0884    1775234.61749   1371761.64347                  22783724.6064
        47.5004         34.5004
  22618982.8734   -1349136.29749  -1041994.03147                  22618978.7664
        47.0004         33.5004
  23287417.1114    3180597.55949   2458990.42647                  23287415.3384
        45.0004         26.0004
  21114691.7744     446896.80549    344567.36748                  21114686.7904
        49.0004         42.0004
  23838725.4444   -1198159.93449   -924025.71446                  23838725.5944
        40.5004         22.0004
 04  6 30 18 36 40.0000000  0  9G 3G 9G14G15G18G19G21G22G25
  22621728.9524    1486334.09049   1149635.10847                  22621726.8784
        42.5004         32.5004
  23648948.4364    1513893.88349   1174119.17747                  23648947.0864
        44.2504         30.5004
  20135448.8604   -1044360.03549   -806614.14148                  20135445.2444
        49.0004         45.5004
  20040243.3454     399361.35249    309700.65948                  20040240.5984
        52.5004         45.5004
  22786420.5444    1789387.19949   1382789.61647                  22786417.8814
        48.0004         34.0004
  22617145.4554   -1358795.21549  -1049520.46147                  22617141.0254
        46.5004         34.0004
  23292625.8924    3207972.38749   2480321.42446                  23292623.8674
        44.0004         25.2504
  21115271.5724     449943.35249    346941.28648                  21115266.2784
        49.0004         42.0004
  23831229.9004   -1237553.82049   -954722.22746                  23831228.4644
        40.5004         22.2504
 04  6 30 18 36 50.0000000  0  9G 3G 9G14G15G18G19G21G22G25
  22624284.0374    1499760.60249   1160097.32547                  22624282.4834
        44.2504         33.0004
  23651790.8154    1528829.41849   1185757.24447                  23651789.1774
        42.2504         31.0004
  20134057.3734   -1051672.05149   -812311.80548                  20134054.1254
        49.7504         45.7504
  20041210.9664     404446.61349    313663.19648                  20041208.2044
        53.5004         45.7504
  22789109.7334    1803519.80149   1393802.03747                  22789106.9744
        47.5004         35.0004
  22615313.1124   -1368422.28949  -1057022.07847                  22615308.9944
        46.7504         34.0004
  23297834.7214    3235344.40249   2501650.22746                  23297832.9954
        44.0004         22.7504
  21115848.4214     452975.01649    349303.62348                  21115843.3254
        49.7504         42.5004
  23823728.2734   -1276975.53149   -985440.38746                  23823726.6984
        41.0004         22.2504
 04  6 30 18 37  0.0000000  0  9G 3G 9G14G15G18G19G21G22G25
  22626840.2894    1513195.32449   1170565.92547                  22626839.0794
        43.7504         33.5004
  23654638.6924    1543793.69549   1197417.70047                  23654636.6114
        41.2504         30.0004
  20132670.6164   -1058959.44549   -817990.30448                  20132667.1364
        50.0004         45.5004
  20042184.0104     409559.62949    317647.35648                  20042181.2114
        53.2504         45.5004
  22791795.4164    1817632.69149   1404799.08547                  22791792.5934
        46.7504         34.5004
  22613487.5144   -1378017.28549  -1064498.71647                  22613483.2774
        46.7504         33.7504
  23303043.3464    3262713.80149   2522977.02946                  23303040.8274
        44.2504         24.7504
  21116422.6694     455991.92649    351654.45248                  21116417.4894
        51.0004         42.0004
  23816221.2944   -1316424.64149  -1016179.97146                  23816219.9074
        41.5004         22.7504
 04  6 30 18 37 10.0000000  0  9G 3G 9G14G15G18G19G21G22G25
  22629398.2814    1526637.30549   1181040.19947                  22629397.2144
        43.5004         32.2504
  23657491.4524    1558785.88749   1209099.93147                  23657490.0974
        42.2504         29.5004
  20131288.2584   -1066223.05549   -823650.25048                  20131284.9304
        49.7504         45.2504
  20043162.2554     414699.58649    321652.51748                  20043159.2314
        54.5004         45.2504
  22794476.7114    1831725.12949   1415780.19547                  22794474.1144
        47.2504         34.5004
  22611667.4674   -1387580.95749  -1071950.91547                  22611662.7314
        46.7504         33.5004
  23308251.0934    3290079.83249   2544301.19546                  23308248.4414
        44.0004         24.0004
  21116993.6544     458993.35549    353993.23748                  21116988.6984
        50.0004         42.0004
  23808708.8904   -1355901.96949  -1046941.50546                  23808708.0134
        42.0004         23.0004
 04  6 30 18 37 20.0000000  0  9G 3G 9G14G15G18G19G21G22G25
  22631958.3054    1540088.67249   1191521.76847                  22631956.6354
        42.7504         32.5004
  23660349.4794    1573808.05949   1220805.49647                  23660348.5134
        40.2504         29.0004
  20129910.9534   -1073460.70749   -829289.97948                  20129907.9904
        49.2504         45.0004
  20044145.7344     419868.72749    325680.41048                  20044143.2574
        53.7504         45.2504
  22797155.2184    1845799.36349   1426747.10947                  22797152.5584
        47.5004         34.0004
  22609854.2034   -1397111.16849  -1079377.07847                  22609849.5404
        46.2504         33.2504
  23313458.3904    3317444.56349   2565624.34846                  23313455.7154
        44.5004         24.5004
  21117562.6434     461981.46149    356321.63048                  21117557.8274
        50.5004         41.7504
  23801192.0554   -1395405.16049  -1077723.18846                  23801191.4344
        41.5004         25.0004
 04  6 30 18 37 30.0000000  0  9G 3G 9G14G15G18G19G21G22G25
  22634519.5474    1553550.27049   1202011.32347                  22634518.2194
        42.5004         32.0004
  23663214.5904    1588861.10949   1232535.18347                  23663213.3354
        41.0004         28.0004
  20128538.7284   -1080671.55149   -834908.81648                  20128535.7954
        50.5004         44.7504
  20045135.0654     425067.94149    329731.74348                  20045132.3704
        53.5004         45.0004
  22799829.8454    1859856.22349   1437700.49447                  22799827.5304
        46.0004         33.7504
  22608046.8344   -1406606.93749  -1086776.36747                  22608042.6164
        47.0004         33.0004
  23318665.6114    3344808.95349   2586947.20747                  23318663.1264
        44.7504         26.5004
  21118128.4314     464957.15649    358640.34648                  21118123.7374
        50.7504         41.7504
  23793670.1114   -1434933.27749  -1108524.29646                  23793669.3944
        41.7504         25.2504
 04  6 30 18 37 40.0000000  0  9G 3G 9G14G15G18G19G21G22G25
  22637083.0844    1567020.98849   1212507.96847                  22637081.7424
        43.5004         32.0004
  23666084.2464    1603943.99649   1244288.08347                  23666083.3644
        40.5004         28.2504
  20127171.9764   -1087856.49649   -840507.47848                  20127168.3074
        48.7504         45.2504
  20046130.0944     430296.30149    333805.77248                  20046127.4514
        53.7504         45.5004
  22802501.5954    1873894.78549   1448639.61247                  22802499.1284
        46.5004         34.0004
  22606246.2954   -1416069.25849  -1094149.62347                  22606242.1294
        47.0004         33.2504
  23323872.6334    3372172.00449   2608269.05947                  23323870.8704
        45.2504         26.7504
  21118692.2494     467919.54749    360948.69848                  21118687.7204
        50.5004         42.0004
  23786143.1114   -1474487.16849  -1139345.50346                  23786142.6744
        41.0004         24.7504
 04  6 30 18 37 50.0000000  0  9G 3G 9G14G15G18G19G21G22G25
  22639647.6934    1580500.57049   1223011.53147                  22639646.7084
        43.2504         32.2504
  23668960.2284    1619056.48449   1256064.02647                  23668959.3084
        40.2504         29.0004
  20125809.3954   -1095015.77749   -846086.13348                  20125806.2994
        49.5004         45.0004
  20047130.9364     435553.60249    337902.35848                  20047128.1504
        54.0004         45.0004
  22805169.4174    1887914.82049   1459564.30547                  22805166.9274
        48.0004         34.7504
  22604452.1444   -1425498.30549  -1101496.93347                  22604447.4034
        46.5004         33.0004
  23329079.4684    3399533.44949   2629589.62047                  23329077.9244
        46.0004         28.5004
  21119253.6674     470868.40649    363246.50748                  21119248.5614
        51.0004         42.0004
  23778611.3474   -1514066.83649  -1170186.76047                  23778610.7844
        40.2504         26.7504
 04  6 30 18 38  0.0000000  0  9G 3G 9G14G15G18G19G21G22G25
  22642214.6814    1593986.24249   1233519.83147                  22642213.2304
        43.0004         32.7504
  23671840.9694    1634195.73049   1267860.81147                  23671840.2664
        41.0004         28.2504
  20124451.4734   -1102152.17249   -851646.95848                  20124448.0574
        50.5004         45.0004
  20048136.0734     440837.16049    342019.41948                  20048133.1874
        54.0004         45.0004
  22807833.2814    1901913.63749   1470472.45047                  22807830.5984
        47.2504         34.5004
  22602663.4674   -1434896.80149  -1108820.45047                  22602658.5884
        46.5004         32.7504
  23334285.5624    3426890.41849   2650906.67047                  23334283.7284
        46.5004         29.0004
  21119811.6534     473801.06649    365531.68748                  21119806.6744
        51.2504         42.0004
  23771074.0874   -1553674.91449  -1201050.17246                  23771074.4014
        40.0004         24.7504
 04  6 30 18 38 10.0000000  0  9G 3G 9G14G15G18G19G21G22G25
  22644781.4944    1607477.72749   1244032.67347                  22644780.5034
        43.7504         33.0004
  23674726.4214    1649361.54349   1279678.33347                  23674726.1784
        40.2504         28.0004
  20123097.5914   -1109265.91049   -857190.11748                  20123094.3684
        50.5004         45.2504
  20049146.3524     446146.80549    346156.79748                  20049143.5924
        54.2504         45.2504
  22810493.7844    1915891.10549   1481363.98447                  22810490.9194
        46.5004         34.5004
  22600880.6964   -1444264.93049  -1116120.28447                  22600876.3064
        46.7504         33.0004
  23339490.3154    3454242.71149   2672220.13947                  23339488.6874
        46.0004         30.0004
  21120366.3614     476717.33649    367804.11348                  21120361.4474
        51.5004         42.0004
  23763531.3354   -1593311.50849  -1231935.79546                  23763531.5174
        39.2504         25.5004
 04  6 30 18 38 20.0000000  0  9G 3G 9G14G15G18G19G21G22G25
  22647351.1864    1620978.12949   1254552.45547                  22647349.7724
        42.5004         32.0004
  23677618.0724    1664557.03549   1291518.96947                  23677618.1224
        38.0004         26.5004
  20121748.9824   -1116353.80949   -862713.15548                  20121745.5044
        51.2504         45.5004
  20050162.2944     451485.73849    350317.00548                  20050159.5374
        53.7504         45.0004
  22813150.0914    1929850.41049   1492241.34947                  22813147.4814
        45.0004         35.2504
  22599104.4094   -1453599.42249  -1123393.91547                  22599100.2234
        46.5004         33.7504
  23344694.9864    3481593.55149   2693532.45747                  23344693.0194
        46.0004         28.5004
  21120919.0954     479620.44949    370066.27248                  21120914.3404
        51.7504         41.7504
  23755984.1054   -1632973.17249  -1262840.97047                  23755984.4534
        39.2504         26.0004
 04  6 30 18 38 30.0000000  0  9G 3G 9G14G15G18G19G21G22G25
  22649923.0444    1634492.21149   1265082.89247                  22649921.1974
        42.2504         32.5004
  23680516.8324    1679787.02749   1303386.47647                  23680516.6414
        39.2504         27.7504
  20120405.9924   -1123411.04749   -868212.30648                  20120402.1664
        50.2504         45.0004
  20051184.9584     456858.86749    354503.85248                  20051182.0224
        54.5004         45.0004
  22815803.8594    1943796.50049   1503108.41947                  22815801.1064
        44.0004         34.2504
  22597335.9124   -1462895.48849  -1130637.59847                  22597331.2184
        46.5004         32.5004
  23349900.3234    3508947.66449   2714847.29347                  23349898.9744
        45.0004         29.5004
  21121469.6424     482515.20749    372321.93348                  21121465.0264
        51.2504         41.5004
  23748432.9204   -1672654.99649  -1293761.81447                  23748433.7474
        40.2504         26.0004
 04  6 30 18 38 40.0000000  0  9G 3G 9G14G15G18G19G21G22G25
  22652496.3374    1648018.56649   1275622.88847                  22652495.0144
        42.5004         32.0004
  23683420.4364    1695050.11749   1315279.75247                  23683421.0804
        37.0004         28.0004
  20119068.7474   -1130438.95749   -873688.60348                  20119065.2964
        49.0004         45.0004
  20052213.7534     462264.85249    358716.30448                  20052210.6824
        53.2504         44.7504
  22818454.6064    1957728.03549   1513964.13447                  22818452.4264
        44.7504         34.2504
  22595573.1644   -1472154.42249  -1137852.36547                  22595569.7264
        46.5004         32.7504
  23355106.0744    3536303.71549   2736163.68247                  23355104.2874
        44.5004         27.5004
  21122019.0454     485400.32449    374570.06548                  21122013.8364
        50.7504         41.7504
  23740876.8294   -1712358.25449  -1324699.44446                  23740878.0084
        38.7504         24.5004
 04  6 30 18 38 50.0000000  0  9G 3G 9G14G15G18G19G21G22G25
  22655073.0524    1661556.21949   1286171.70847                  22655071.2844
        43.2504         31.2504
  23686331.7464    1710345.42649   1327198.16047                  23686331.9434
        39.0004         26.5004
  20117736.4604   -1137438.40249   -879142.71848                  20117732.9704
        49.7504         44.2504
  20053248.4694     467702.85549    362953.70548                  20053245.2814
        54.5004         44.0004
  22821102.9614    1971644.21949   1524807.90347                  22821100.1944
        46.0004         33.7504
  22593818.5464   -1481377.02049  -1145038.79947                  22593814.5684
        46.7504         32.7504
  23360312.0624    3563660.92649   2757480.93047                  23360310.5154
        44.0004         26.7504
  21122566.0424     488274.98849    376810.05348                  21122561.1674
        51.2504         40.7504
  23733316.9954   -1752083.66449  -1355654.24746                  23733318.7324
        39.2504         23.5004
 04  6 30 18 39  0.0000000  0  9G 3G 9G14G15G18G19G21G22G25
  22657649.6334    1675100.93449   1296725.99347                  22657648.9274
        45.2504         33.0004
  23689247.1374    1725668.64549   1339138.30747                  23689247.5064
        37.0004         27.0004
  20116409.3244   -1144413.59849   -884577.94348                  20116405.9624
        48.2504         45.0004
  20054288.6464     473168.63349    367212.74348                  20054285.4864
        53.7504         44.7504
  22823747.4254    1985540.76249   1535636.35847                  22823745.1524
        46.7504         35.0004
  22592069.1974   -1490567.60549  -1152200.31547                  22592065.0064
        45.7504         33.5004
  23365516.9774    3591015.07449   2778795.78846                  23365516.0474
        42.5004         25.0004
  21123110.4204     491134.95349    379038.60248                  21123105.0684
        51.0004         41.7504
  23725753.3144   -1791835.30949  -1386629.49146                  23725753.9434
        39.5004         22.2504
 04  6 30 18 39 10.0000000  0  9G 3G 9G14G15G18G19G21G22G25
  22660228.9554    1688651.27049   1307284.70247                  22660227.6984
        44.0004         32.2504
  23692168.3844    1741018.38749   1351099.13447                  23692168.0814
        38.7504         26.7504
  20115086.2334   -1151365.94149   -889995.34448                  20115082.7924
        47.7504         45.0004
  20055333.7354     478660.89849    371492.43248                  20055330.9414
        53.5004         44.7504
  22826387.6804    1999416.34849   1546448.48647                  22826385.5604
        47.0004         34.0004
  22590326.7174   -1499727.44949  -1159337.85147                  22590322.7924
        46.0004         33.0004
  23370721.4444    3618364.55149   2800107.01246                  23370720.3374
        41.5004         23.2504
  21123651.4194     493978.90649    381254.66848                  21123646.3414
        50.0004         41.2504
  23718182.7664   -1831614.46949  -1417626.20446                  23718183.7494
        39.7504         22.5004
 04  6 30 18 39 20.0000000  0  9G 3G 9G14G15G18G19G21G22G25
  22662808.4404    1702207.44949   1317847.93347                  22662807.0434
        44.5004         32.5004
  23695094.3534    1756394.91049   1363080.82647                  23695093.7824
        38.5004         28.2504
  20113767.6334   -1158295.09849   -895394.68448                  20113763.8384
        47.0004         45.5004
  20056383.9474     484179.94149    375792.97948                  20056380.9224
        53.2504         45.2504
  22829024.2654    2013271.27049   1557244.51447                  22829021.9004
        46.2504         35.0004
  22588589.1824   -1508856.21549  -1166451.17047                  22588585.2864
        46.2504         33.2504
  23375924.6584    3645709.53549   2821414.74846                  23375923.8264
        40.7504         24.5004
  21124189.4324     496807.18849    383458.51748                  21124184.4014
        50.2504         42.0004
  23710608.5684   -1871420.62149  -1448643.99746                  23710608.5144
        39.5004         22.2504
 04  6 30 18 39 30.0000000  0  9G 3G 9G14G15G18G19G21G22G25
  22665389.8544    1715771.18049   1328417.07047                  22665387.6514
        43.7504         31.5004
  23698026.3994    1771799.87549   1375084.67847                  23698025.8914
        37.5004         28.0004
  20112453.6724   -1165199.35549   -900774.62748                  20112450.5154
        47.7504         45.5004
  20057439.5944     489727.52749    380115.76848                  20057436.5474
        53.7504         44.7504
  22831657.1794    2027107.44149   1568025.92347                  22831655.1784
        47.5004         35.0004
  22586858.5524   -1517952.15649  -1173538.91847                  22586854.7244
        46.5004         33.5004
  23381127.8484    3673051.89549   2842720.41846                  23381126.8304
        41.5004         22.5004
  21124725.1714     499621.52049    385651.50948                  21124720.4024
        50.2504         41.5004
  23703028.6044   -1911251.98849  -1479681.40046                  23703029.0404
        39.7504         22.5004
 04  6 30 18 39 40.0000000  0  9G 3G 9G14G15G18G19G21G22G25
  22667971.5164    1729341.76649   1338991.54447                  22667969.9774
        45.0004         32.0004
  23700963.3054    1787232.68449   1387110.22147                  23700962.5994
        38.7504         28.5004
  20111144.5784   -1172079.35549   -906135.65648                  20111141.2264
        50.2504         45.0004
  20058500.5674     495303.12149    384460.39148                  20058497.6494
        53.7504         44.7504
  22834286.2424    2040924.30949   1578792.30847                  22834284.2064
        46.2504         34.7504
  22585134.0824   -1527015.83649  -1180601.52947                  22585129.9574
        46.7504         33.2504
  23386330.7624    3700390.98449   2864023.60746                  23386329.3824
        42.2504         25.0004
  21125257.8924     502421.37949    387833.22248                  21125253.0424
        51.5004         41.5004
  23695444.2454   -1951108.95349  -1510738.70846                  23695443.8494
        40.5004         21.7504
 04  6 30 18 39 50.0000000  0  9G 3G 9G14G15G18G19G21G22G25
  22670556.0044    1742920.09049   1349572.05147                  22670553.7414
        43.7504         32.0004
  23703906.1264    1802694.23049   1399158.16047                  23703904.9094
        41.7504         28.7504
  20109840.2134   -1178934.12149   -911477.03148                  20109836.9464
        48.0004         45.0004
  20059567.1884     500907.71949    388827.61148                  20059564.3034
        53.7504         44.5004
  22836911.7654    2054722.78949   1589544.34447                  22836909.8204
        45.0004         34.2504
  22583415.4044   -1536046.30949  -1187638.26747                  22583411.1744
        46.5004         33.2504
  23391533.3464    3727727.75049   2885324.93747                  23391531.7354
        42.2504         25.7504
  21125788.4464     505207.80949    390004.46248                  21125782.9364
        49.2504         41.5004
  23687854.5594   -1990990.44549  -1541815.17946                  23687854.3344
        40.0004         22.0004
 04  6 30 18 40  0.0000000  0  9G 3G 9G14G15G18G19G21G22G25
  22673140.9394    1756504.54349   1360157.32647                  22673139.0504
        42.7504         32.0004
  23706853.2724    1818182.89949   1411227.26547                  23706852.2124
        39.2504         28.2504
  20108540.1854   -1185765.15249   -916799.92048                  20108536.8074
        48.0004         44.7504
  20060638.9384     506539.78949    393216.22948                  20060636.3814
        53.2504         44.5004
  22839534.1754    2068501.32849   1600280.83947                  22839532.1204
        45.0004         34.2504
  22581702.9204   -1545045.05549  -1194650.28547                  22581699.2124
        47.0004         32.7504
  23396734.3504    3755060.58249   2906623.19846                  23396733.0894
        43.0004         25.2504
  21126315.6074     507979.27749    392164.03848                  21126310.4284
        50.5004         41.2504
  23680261.0504   -2030897.92649  -1572911.87046                  23680260.5364
        40.0004         21.0004
 04  6 30 18 40 10.0000000  0  9G 3G 9G14G15G18G19G21G22G25
  22675727.2504    1770094.37149   1370746.79047                  22675725.3154
        42.5004         32.5004
  23709806.2384    1833698.02749   1423316.92647                  23709804.7164
        40.2504         28.5004
  20107244.9184   -1192573.24649   -922104.92548                  20107241.8424
        49.0004         45.0004
  20061715.7684     512198.69149    397625.75648                  20061713.1724
        54.0004         45.2504
  22842152.1114    2082259.28949   1611001.32147                  22842150.0594
        45.5004         34.5004
  22579996.9344   -1554012.75849  -1201638.11447                  22579992.7004
        46.5004         34.0004
  23401934.6814    3782388.79349   2927917.90946                  23401933.7124
        43.0004         25.0004
  21126839.9734     510735.07049    394311.41348                  21126834.4534
        50.7504         41.0004
  23672661.8024   -2070831.94549  -1604029.27846                  23672660.4194
        41.0004         21.5004
 04  6 30 18 40 20.0000000  0  9G 3G 9G14G15G18G19G21G22G25
  22678313.7714    1783686.62149   1381338.15047                  22678311.4674
        42.2504         32.7504
  23712763.2694    1849236.64849   1435424.88747                  23712761.7964
        40.5004         29.7504
  20105952.7334   -1199361.25849   -927394.29048                  20105949.3514
        49.0004         45.5004
  20062797.1894     517881.56649    402053.95548                  20062794.1454
        52.5004         45.0004
  22844765.7944    2095993.93449   1621703.62547                  22844763.2914
        45.2504         34.2504
  22578295.2374   -1562952.26249  -1208603.97247                  22578290.9364
        47.2504         33.2504
  23407133.4664    3809709.44549   2949206.68746                  23407131.9174
        42.5004         24.7504
  21127361.1694     513472.35949    396444.36048                  21127356.0834
        51.0004         41.2504
  23665056.6064   -2110795.16449  -1635169.41246                  23665055.2034
        41.2504         22.0004
 04  6 30 18 40 30.0000000  0  9G 3G 9G14G15G18G19G21G22G25
  22680901.5374    1797288.92249   1391937.33347                  22680900.3614
        42.5004         32.5004
  23715725.7634    1864806.33249   1447557.13647                  23715724.3544
        43.5004         30.0004
  20104666.6604   -1206121.44549   -932661.96748                  20104663.5514
        49.2504         45.7504
  20063884.6484     523596.17249    406506.89048                  20063881.6584
        53.0004         45.7504
  22847376.5904    2109712.93049   1632393.72547                  22847374.4294
        44.2504         34.7504
  22576600.7754   -1571855.82449  -1215541.81547                  22576597.0494
        47.5004         34.0004
  23412332.8074    3837030.30549   2970495.64047                  23412331.3224
        42.0004         26.2504
  21127879.7314     516198.89149    398568.92648                  21127874.5094
        51.0004         41.5004
  23657448.6994   -2150779.73849  -1666326.18946                  23657447.0404
        41.7504         22.5004
 04  6 30 18 40 40.0000000  0  9G 3G 9G14G15G18G19G21G22G25
  22683491.2054    1810897.73049   1402541.59047                  22683490.4734
        43.0004         32.5004
  23718693.2754    1880403.66449   1459710.91947                  23718692.3184
        43.0004         29.2504
  20103384.6424   -1212857.29749   -937910.67248                  20103381.8084
        47.5004         45.5004
  20064977.4054     529339.01649    410981.84048                  20064974.6464
        54.0004         45.2504
  22849983.2624    2123412.88749   1643069.00547                  22849980.8714
        45.7504         35.0004
  22574912.5794   -1580726.95749  -1222454.37347                  22574908.8844
        47.2504         34.0004
  23417530.7744    3864347.84049   2991781.97346                  23417529.4254
        41.7504         23.5004
  21128395.7764     518911.16449    400682.39348                  21128391.0004
        49.5004         41.2504
  23649835.3194   -2190789.13349  -1697502.28946                  23649833.0544
        42.5004         22.2504
 04  6 30 18 40 50.0000000  0  9G 3G 9G14G15G18G19G21G22G25
  22686081.1584    1824508.44149   1413147.33647                  22686080.4554
        43.5004         32.5004
  23721666.1394    1896024.05949   1471882.64447                  23721664.9184
        41.5004         28.2504
  20102106.8474   -1219573.31649   -943143.94348                  20102103.5624
        48.2504         45.5004
  20066074.6624     535105.65249    415475.30448                  20066072.0984
        53.5004         45.5004
  22852586.2594    2137089.27349   1653725.91947                  22852583.2384
        46.0004         35.7504
  22573230.4924   -1589570.10249  -1229345.14247                  22573226.0474
        47.2504         33.2504
  23422728.1654    3891657.43049   3013062.07346                  23422726.4374
        41.7504         23.0004
  21128908.2364     521604.78949    402781.30248                  21128903.5284
        50.7504         41.0004
  23642215.9104   -2230827.63349  -1728701.10846                  23642213.9794
        43.0004         22.7504
 04  6 30 18 40 59.9990000  0  9G 3G 9G14G15G18G19G21G22G25
  22688672.0694    1838124.62149   1423757.34347                  22688671.4424
        43.0004         33.0004
  23724643.9584    1911670.89149   1484074.98247                  23724642.0104
        40.7504         26.5004
  20100833.6964   -1226263.98449   -948357.45048                  20100829.9514
        47.0004         45.5004
  20067177.2584     540900.39149    419990.68848                  20067174.7524
        53.5004         45.2504
  22855185.0754    2150745.67649   1664367.25247                  22855182.1274
        47.0004         35.0004
  22571554.2554   -1598379.39849  -1236209.53447                  22571549.8084
        48.0004         33.2504
  23427923.2774    3918961.28549   3034337.75346                  23427922.5754
        41.5004         24.2504
  21129418.2824     524284.41849    404869.33748                  21129413.5304
        49.0004         40.7504
  23634593.1614   -2270886.25049  -1759915.55546                  23634591.4734
        43.5004         25.0004
 04  6 30 18 41  9.9990000  0  9G 3G 9G14G15G18G19G21G22G25
  22691264.7144    1851749.19949   1434373.86847                  22691264.3384
        43.7504         32.5004
  23727627.4314    1927347.56349   1496290.54047                  23727624.8394
        39.5004         26.0004
  20099565.0024   -1232930.30949   -953551.98048                  20099561.2424
        48.5004         45.5004
  20068285.9254     546724.75449    424529.15248                  20068283.0524
        53.5004         45.2504
  22857780.2054    2164385.14849   1674995.40947                  22857777.7954
        46.2504         34.2504
  22569883.4244   -1607156.37149  -1243048.72947                  22569879.8634
        47.0004         32.7504
  23433118.8344    3946265.19949   3055613.44546                  23433118.6124
        41.0004         24.0004
  21129925.7294     526950.96549    406947.16048                  21129921.0884
        50.5004         40.7504
  23626964.7244   -2310972.52749  -1791151.61146                  23626963.8044
        43.7504         25.5004
 04  6 30 18 41 19.9990000  0  9G 3G 9G14G15G18G19G21G22G25
  22693859.0944    1865379.83249   1444995.11447                  22693857.6364
        44.7504         32.0004
  23730615.4294    1943051.46549   1508527.38747                  23730612.8264
        41.7504         25.7504
  20098301.1064   -1239572.50049   -958727.72348                  20098297.9694
        48.2504         45.7504
  20069399.7604     552577.35949    429089.61248                  20069396.9894
        53.7504         46.0004
  22860372.0534    2178005.61749   1685608.73647                  22860369.4954
        45.2504         34.7504
  22568219.9844   -1615900.98049  -1249862.71647                  22568215.8494
        47.5004         33.5004
  23438315.1844    3973565.39849   3076886.25946                  23438313.3544
        41.0004         22.0004
  21130430.4394     529603.32849    409013.92848                  21130425.8004
        50.5004         40.7504
  23619331.5514   -2351083.19149  -1822406.65847                  23619331.1554
        44.0004         25.7504
 04  6 30 18 41 29.9990000  0  9G 3G 9G14G15G18G19G21G22G25
  22696453.8944    1879016.57049   1455621.16447                  22696452.9634
        43.7504         32.0004
  23733609.0834    1958782.70349   1520785.50246                  23733605.7534
        40.7504         23.7504
  20097041.7954   -1246190.52049   -963884.61748                  20097038.4134
        49.0004         46.0004
  20070518.5664     558458.25849    433672.13048                  20070516.0584
        53.0004         45.5004
  22862960.5454    2191607.07849   1696207.26847                  22862957.9874
        45.5004         34.5004
  22566561.6544   -1624613.08249  -1256651.38647                  22566557.3884
        46.5004         33.2504
  23443509.1094    4000862.02749   3098156.33646                  23443507.8994
        42.5004         23.2504
  21130932.6464     532241.56349    411069.70148                  21130927.5464
        51.0004         41.0004
  23611694.8594   -2391218.05549  -1853680.54446                  23611694.1774
        43.7504         25.2504
 04  6 30 18 41 39.9990000  0  9G 3G 9G14G15G18G19G21G22G25
  22699050.4904    1892661.03949   1466253.18047                  22699048.8054
        44.2504         32.5004
  23736607.7514    1974542.84049   1533066.18346                  23736604.7044
        39.7504         24.2504
  20095787.3904   -1252782.69549   -969021.37848                  20095783.5694
        48.5004         46.0004
  20071643.3374     564369.15649    438278.01648                  20071640.8314
        53.2504         45.5004
  22865545.5674    2205191.20349   1706792.28347                  22865542.9324
        45.7504         35.2504
  22564910.6404   -1633291.02749  -1263413.43447                  22564905.9744
        47.2504         33.5004
  23448703.4574    4028156.59449   3119424.78746                  23448701.1254
        43.0004         23.0004
  21131432.2724     534867.33649    413115.74648                  21131427.3694
        51.0004         41.0004
  23604052.8264   -2431375.35249  -1884971.90046                  23604052.7594
        43.5004         24.0004
 04  6 30 18 41 49.9990000  0  9G 3G 9G14G15G18G19G21G22G25
  22701647.6914    1906309.61749   1476888.42647                  22701646.6784
        42.5004         32.2504
  23739611.5394    1990328.32849   1545366.60446                  23739608.8514
        39.5004         22.5004
  20094537.1384   -1259352.52049   -974140.71548                  20094533.6174
        49.2504         46.2504
  20072773.1294     570306.57449    442904.58048                  20072770.4284
        53.5004         45.7504
  22868126.4744    2218754.57449   1717361.14447                  22868124.1114
        45.7504         35.0004
  22563265.0744   -1641938.26249  -1270151.53047                  22563260.6194
        47.5004         33.2504
  23453896.5754    4055445.60949   3140688.93046                  23453894.1594
        43.7504         25.2504
  21131928.6304     537477.19149    415149.41048                  21131923.8134
        50.5004         41.2504
  23596405.8064   -2471558.38349  -1916283.36647                  23596406.6454
        43.7504         26.0004
 04  6 30 18 41 59.9990000  0  9G 3G 9G14G15G18G19G21G22G25
  22704245.6424    1919960.95749   1487525.82347                  22704244.2084
        42.5004         32.2504
  23742619.7664    2006137.88749   1557685.69746                  23742617.4484
        40.2504         22.5004
  20093291.1334   -1265901.32849   -979243.68448                  20093287.4464
        49.7504         46.5004
  20073907.8574     576269.23049    447550.80648                  20073905.3904
        53.2504         45.5004
  22870703.6854    2232295.87949   1727912.78347                  22870701.0304
        45.0004         35.0004
  22561625.3564   -1650556.13749  -1276866.77747                  22561620.9064
        47.5004         33.0004
  23459087.8974    4082727.73449   3161947.69546                  23459086.0424
        43.5004         22.7504
  21132422.2594     540069.89849    417169.69248                  21132417.5684
        50.7504         40.5004
  23588754.8514   -2511768.23849  -1947615.66347                  23588754.9024
        44.5004         25.7504
 04  6 30 18 42  9.9990000  0  9G 3G 9G14G15G18G19G21G22G25
  22706844.3414    1933617.32849   1498167.14347                  22706842.8224
        43.5004         32.0004
  23745634.2584    2021973.73449   1570025.37346                  23745631.5804
        41.0004         25.0004
  20092048.8374   -1272426.71949   -984328.41048                  20092045.0644
        49.5004         46.0004
  20075047.6414     582259.53949    452218.57148                  20075045.0914
        53.7504         45.0004
  22873276.3084    2245817.64549   1738449.20047                  22873274.2224
        44.0004         34.5004
  22559991.5284   -1659142.12549  -1283557.16547                  22559987.1294
        47.2504         32.7504
  23464278.6404    4110005.37949   3183202.97746                  23464276.6214
        43.5004         22.5004
  21132912.9204     542647.86749    419178.48748                  21132907.5434
        50.7504         41.0004
  23581097.9384   -2552002.50049  -1978966.96846                  23581098.8794
        44.0004         25.2504
 04  6 30 18 42 19.9990000  0  9G 3G 9G14G15G18G19G21G22G25
  22709444.0404    1947281.00849   1508814.14647                  22709442.9634
        43.0004         31.5004
  23748652.8744    2037838.24249   1582387.33146                  23748650.8364
        40.2504         24.5004
  20090812.3354   -1278926.45749   -989393.13648                  20090808.7794
        49.5004         46.0004
  20076193.4474     588279.78949    456909.67448                  20076191.0464
        53.5004         45.0004
  22875846.5774    2259322.10949   1748972.14547                  22875844.0054
        43.7504         34.5004
  22558363.7194   -1667693.99249  -1290220.93947                  22558359.4334
        47.2504         33.2504
  23469468.5654    4137280.72349   3204456.46946                  23469466.1654
        43.5004         24.2504
  21133400.7784     545213.43049    421177.63948                  21133395.9174
        51.0004         40.5004
  23573437.3034   -2592258.72349  -2010335.47446                  23573437.4084
        44.0004         25.2504
 04  6 30 18 42 29.9990000  0  9G 3G 9G14G15G18G19G21G22G25
  22712045.7884    1960950.03549   1519465.31347                  22712043.9664
        42.2504         31.0004
  23751676.6604    2053729.46149   1594770.12146                  23751674.6194
        40.0004         24.5004
  20089580.1954   -1285402.38349   -994439.32448                  20089576.9304
        49.2504         45.5004
  20077344.4534     594328.17649    461622.68348                  20077341.4984
        53.5004         44.5004
  22878412.7584    2272807.46949   1759480.18147                  22878410.1924
        44.5004         34.2504
  22556742.8724   -1676213.59849  -1296859.63247                  22556738.4514
        47.2504         32.7504
  23474658.1824    4164551.89549   3225706.69446                  23474655.5084
        43.7504         22.5004
  21133886.7864     547764.64549    423165.56648                  21133881.6484
        50.2504         40.0004
  23565771.9834   -2632538.69549  -2041722.44047                  23565772.1784
        43.0004         26.2504
 04  6 30 18 42 39.9990000  0  9G 3G 9G14G15G18G19G21G22G25
  22714647.9324    1974626.16849   1530122.03147                  22714646.1854
        42.5004         32.0004
  23754705.2134    2069649.18449   1607175.12246                  23754704.1544
        36.5004         25.2504
  20088352.6604   -1291852.73049   -999465.55348                  20088349.1094
        50.2504         46.0004
  20078501.0984     600406.58249    466359.11448                  20078498.2174
        54.0004         45.0004
  22880975.5974    2286275.66849   1769974.89147                  22880973.1354
        45.7504         34.7504
  22555128.1474   -1684699.07449  -1303471.67847                  22555123.3564
        47.0004         33.0004
  23479848.0014    4191820.77749   3246955.15546                  23479845.8734
        44.5004         24.5004
  21134369.4834     550303.52749    425143.92948                  21134365.5414
        51.2504         40.5004
  23558103.0044   -2672840.37949  -2073126.29047                  23558103.3064
        44.0004         26.5004
 04  6 30 18 42 49.9990000  0  9G 3G 9G14G15G18G19G21G22G25
  22717251.3434    1988305.36349   1540781.14247                  22717250.0094
        42.7504         31.7504
  23757740.6804    2085593.44149   1619599.21646                  23757738.2324
        39.7504         24.7504
  20087129.0914   -1298281.43749  -1004474.93248                  20087125.7304
        50.0004         46.0004
  20079662.4934     606511.02349    471115.81848                  20079659.9074
        54.0004         45.0004
  22883533.9504    2299722.66449   1780453.07147                  22883531.6194
        45.0004         34.7504
  22553518.7134   -1693154.36749  -1310060.22347                  22553514.7214
        47.5004         33.0004
  23485035.5544    4219083.37949   3268198.70346                  23485033.0514
        44.0004         22.5004
  21134849.7474     552826.07049    427109.55148                  21134844.3544
        50.2504         40.5004
  23550429.4104   -2713167.60249  -2104550.06047                  23550429.3244
        43.2504         26.0004
 04  6 30 18 42 59.9990000  0  9G 3G 9G14G15G18G19G21G22G25
  22719855.2754    2001992.44949   1551446.38147                  22719854.5574
        43.5004         33.0004
  23760780.0594    2101566.97348   1632046.06646                  23760778.5364
        35.7504         22.5004
  20085910.8344   -1304683.60249  -1009463.63948                  20085907.2924
        49.2504         46.5004
  20080830.0704     612646.42649    475896.63748                  20080827.1604
        53.0004         45.5004
  22886090.2164    2313153.37949   1790918.53547                  22886087.2354
        45.0004         34.5004
  22551916.4034   -1701574.57849  -1316621.43247                  22551911.6634
        47.5004         33.2504
  23490223.2754    4246344.52349   3289441.09746                  23490221.5824
        44.0004         25.2504
  21135327.6624     555337.14849    429066.21048                  21135323.0754
        49.7504         41.0004
  23542750.7094   -2753515.38749  -2135989.86247                  23542750.7154
        42.7504         26.0004
 04  6 30 18 43  9.9990000  0  9G 3G 9G14G15G18G19G21G22G25
  22722461.1874    2015682.59049   1562114.02847                  22722459.3694
        44.7504         32.5004
  23763823.9024    2117565.10548   1644512.16846                  23763822.6164
        35.2504         22.2504
  20084696.7044   -1311063.95749  -1014435.33848                  20084692.7964
        49.7504         46.2504
  20082002.3854     618808.05149    480697.90448                  20082000.1094
        53.5004         44.7504
  22888642.0254    2326563.20349   1801367.75747                  22888638.9294
        45.2504         35.0004
  22550320.2054   -1709964.44149  -1323158.98847                  22550315.9744
        47.2504         33.2504
  23495410.3244    4273599.40649   3310678.62947                  23495408.1244
        44.5004         27.5004
  21135802.1264     557832.12549    431010.36148                  21135797.2284
        50.2504         40.5004
  23535068.2314   -2793888.29749  -2167449.21046                  23535068.2034
        42.7504         25.5004
 04  6 30 18 43 19.9990000  0  9G 3G 9G14G15G18G19G21G22G25
  22725066.8454    2029377.63749   1572785.46847                  22725065.4334
        42.2504         32.5004
  23766872.3094    2133589.58648   1656998.73046                  23766872.2454
        35.0004         21.7504
  20083487.0464   -1317420.62149  -1019388.59148                  20083483.1024
        50.0004         46.0004
  20083180.6084     624997.78549    485521.06548                  20083177.9614
        52.5004         44.5004
  22891190.5314    2339954.04349   1811802.13847                  22891187.3474
        46.7504         34.0004
  22548729.4964   -1718322.07849  -1329671.44347                  22548725.3424
        47.2504         33.5004
  23500595.5504    4300849.95349   3331912.72947                  23500593.9154
        45.0004         27.0004
  21136274.3834     560312.84049    432943.37648                  21136269.7454
        50.0004         41.0004
  23527380.7004   -2834284.40249  -2198926.68047                  23527380.7744
        42.5004         26.2504
 04  6 30 18 43 29.9990000  0  9G 3G 9G14G15G18G19G21G22G25
  22727675.0274    2043083.46949   1583465.33947                  22727673.8874
        42.2504         32.0004
  23769928.1284    2149646.29748   1669510.46646                  23769927.8754
        31.0004         21.0004
  20082283.0004   -1323747.64149  -1024318.71948                  20082279.5024
        50.0004         45.7504
  20084364.8074     631221.60949    490370.80548                  20084362.7104
        52.7504         44.5004
  22893736.7244    2353331.81649   1822226.38847                  22893733.2064
        46.2504         34.2504
  22547146.4344   -1726641.50049  -1336154.10547                  22547142.1894
        45.7504         33.0004
  23505782.3194    4328102.10549   3353148.12347                  23505780.2514
        45.5004         28.2504
  21136744.6274     562785.35549    434870.01348                  21136739.9834
        49.2504         40.5004
  23519690.7944   -2874697.55949  -2230417.37646                  23519689.9264
        41.2504         24.5004
 04  6 30 18 43 39.9990000  0  9G 3G 9G14G15G18G19G21G22G25
  22730283.3804    2056792.70349   1594147.83647                  22730282.5114
        43.0004         31.2504
  23772986.7444    2165727.91458   1682041.59556                  23772987.9764
        31.2504         20.5004
  20081083.2664   -1330052.43049  -1029231.55548                  20081079.8414
        50.2504         45.0004
  20085554.0594     637472.29749    495241.44748                  20085551.3394
        53.2504         44.0004
  22896278.3244    2366689.25449   1832634.75847                  22896275.1274
        45.5004         33.5004
  22545569.4214   -1734929.98849  -1342612.67947                  22545565.3304
        45.7504         32.2504
  23510966.5244    4355348.44149   3374378.99947                  23510964.9964
        45.0004         27.2504
  21137212.1874     565242.39849    436784.57248                  21137207.2704
        50.0004         40.2504
  23511995.6894   -2915135.05149  -2261927.10846                  23511995.0344
        42.0004         22.5004
 04  6 30 18 43 49.9990000  0  9G 3G 9G14G15G18G19G21G22G25
  22732893.1664    2070505.25449   1604832.92947                  22732892.2554
        41.5004         32.0004
  23776049.4984    2181834.58658   1694592.07156                  23776053.0154
        30.0004         18.5004
  20079887.9024   -1336334.89149  -1034126.97248                  20079884.3574
        50.0004         45.5004
  20086749.0074     643749.88349    500133.07348                  20086746.6054
        53.0004         44.5004
  22898816.4194    2380026.44149   1843027.36547                  22898813.1604
        43.5004         34.0004
  22543997.8694   -1743187.50449  -1349047.11247                  22543993.3714
        45.2504         33.2504
  23516150.7324    4382588.85549   3395605.23847                  23516148.8854
        45.5004         26.2504
  21137676.9994     567683.99649    438687.11648                  21137671.9404
        50.0004         40.7504
  23504296.2124   -2955596.55149  -2293455.49346                  23504295.4484
        41.2504         25.0004
 04  6 30 18 43 59.9990000  0  8G 3G14G15G18G19G21G22G25
  22735504.8634    2084229.52049   1615527.13747                  22735503.3634
        41.0004         32.0004
  20078698.1764   -1342586.61349  -1038998.44248                  20078694.2564
        49.5004         45.7504
  20087950.3434     650062.83249    505052.24748                  20087948.1054
        52.5004         44.7504
  22901351.5614    2393351.87149   1853410.82947                  22901348.9134
        43.2504         33.7504
  22542433.6794   -1751405.60549  -1355450.83647                  22542429.8034
        47.0004         33.5004
  23521333.7084    4409831.84449   3416833.50247                  23521332.9814
        45.2504         27.7504
  21138140.0994     570118.59449    440584.19648                  21138134.9044
        50.2504         41.0004
  23496594.0464   -2996073.65649  -2324996.08446                  23496592.9014
        42.2504         24.5004
 04  6 30 18 44  9.9990000  0  8G 3G14G15G18G19G21G22G25
  22738116.9484    2097957.91049   1626224.58247                  22738115.6924
        41.0004         32.0004
  20077512.8874   -1348815.22749  -1043851.91248                  20077509.3614
        50.5004         46.0004
  20089156.9414     656403.57449    509993.06148                  20089154.3614
        52.7504         44.5004
  22903883.9494    2406658.03549   1863779.24547                  22903880.9964
        44.0004         33.2504
  22540876.5434   -1759591.81649  -1361829.72547                  22540872.1334
        46.0004         33.5004
  23526517.1014    4437069.81349   3438057.85047                  23526516.0584
        44.0004         26.0004
  21138601.0894     572538.75849    442470.02748                  21138595.8524
        50.0004         41.0004
  23488886.9714   -3036573.66449  -2356554.46147                  23488885.8974
        42.5004         25.7504
 04  6 30 18 44 19.9990000  0  9G 3G 9G14G15G18G19G21G22G25
  22740730.9354    2111693.39149   1636927.53047                  22740729.7594
        43.5004         31.7504
  23785283.8614    2230334.20358   1732383.87956                  23785282.3004
        32.5004         21.7504
  20076332.6624   -1355017.56649  -1048684.89848                  20076329.1034
        51.0004         45.5004
  20090369.4114     662775.28949    514958.03748                  20090367.0074
        53.5004         44.5004
  22906412.9614    2419948.10549   1874135.14947                  22906410.1274
        45.7504         33.5004
  22539325.2344   -1767742.94949  -1368181.24347                  22539321.2824
        45.5004         33.2504
  23531700.0064    4464305.86349   3459280.72546                  23531698.5214
        44.0004         24.7504
  21139059.1034     574947.60949    444347.05048                  21139054.6054
        49.2504         41.0004
  23481176.3134   -3077093.35249  -2388128.19247                  23481174.8504
        43.2504         26.5004
 04  6 30 18 44 29.9990000  0  9G 3G 9G14G15G18G19G21G22G25
  22743345.7154    2125434.02749   1647634.50347                  22743344.3724
        43.5004         32.0004
  23788370.4964    2246555.22749   1745023.60546                  23788369.4224
        36.0004         24.5004
  20075157.0084   -1361195.58249  -1053498.93548                  20075153.4674
        51.0004         45.5004
  20091587.4554     669176.06649    519945.65348                  20091584.8364
        54.0004         44.5004
  22908938.3154    2433220.16049   1884476.98447                  22908936.1614
        45.5004         33.0004
  22537780.5434   -1775861.00049  -1374507.01047                  22537775.9314
        46.5004         33.2504
  23536881.8824    4491538.00049   3480500.57146                  23536880.3124
        43.5004         23.5004
  21139515.2124     577343.23049    446213.75648                  21139510.4154
        49.5004         41.0004
  23473462.0804   -3117634.56249  -2419718.72647                  23473460.4194
        43.0004         26.0004
 04  6 30 18 44 39.9990000  0  9G 3G 9G14G15G18G19G21G22G25
  22745962.4704    2139183.21149   1658348.13147                  22745961.0774
        41.2504         31.7504
  23791463.2234    2262806.39149   1757686.84447                  23791461.5724
        37.0004         28.0004
  20073986.7974   -1367345.87149  -1058291.37748                  20073983.0934
        49.5004         45.5004
  20092812.1064     675609.39149    524958.62248                  20092809.2404
        54.0004         44.5004
  22911460.9184    2446477.71949   1894807.51347                  22911458.4294
        45.2504         32.2504
  22536242.6074   -1783942.44549  -1380804.25647                  22536238.4134
        45.5004         33.5004
  23542064.0374    4518769.66849   3501719.98546                  23542062.8364
        43.0004         22.7504
  21139969.0134     579729.13349    448072.89448                  21139963.6454
        49.5004         41.2504
  23465743.3974   -3158193.57449  -2451323.07946                  23465742.5994
        42.5004         25.0004
 04  6 30 18 44 49.9990000  0  9G 3G 9G14G15G18G19G21G22G25
  22748580.1154    2152939.81649   1669067.55447                  22748579.1004
        42.5004         30.7504
  23794561.4434    2279086.61749   1770372.73747                  23794560.2524
        36.5004         26.5004
  20072821.3294   -1373469.49649  -1063063.02948                  20072817.6844
        50.2504         45.0004
  20094042.0764     682074.15649    529996.09648                  20094039.1634
        54.5004         44.2504
  22913980.9274    2459719.77349   1905125.99647                  22913977.9574
        44.2504         32.5004
  22534711.3294   -1791988.39149  -1387073.83247                  22534706.7434
        46.2504         32.7504
  23547246.0704    4545999.71149   3522938.15746                  23547244.0554
        41.0004         22.2504
  21140420.8504     582104.24649    449923.62748                  21140416.4264
        50.0004         41.2504
  23458022.0864   -3198771.43049  -2482942.11646                  23458020.5944
        43.5004         25.2504
 04  6 30 18 44 59.9990000  0  9G 3G 9G14G15G18G19G21G22G25
  22751198.5164    2166701.30549   1679790.79147                  22751198.1884
        41.5004         31.5004
  23797664.5094    2295393.39849   1783079.27647                  23797663.9274
        38.2504         27.7504
  20071661.0614   -1379568.78149  -1067815.71748                  20071657.0324
        50.0004         45.5004
  20095277.6904     688568.02349    535056.24548                  20095274.8004
        53.7504         44.7504
  22916497.5724    2472943.95349   1915430.55447                  22916494.6204
        44.0004         32.5004
  22533186.6234   -1800001.18049  -1393317.56947                  22533182.5514
        45.7504         32.5004
  23552427.2074    4573225.81649   3544153.26346                  23552424.8004
        43.0004         22.0004
  21140870.6434     584466.23049    451764.12548                  21140865.9974
        49.0004         42.0004
  23450295.4644   -3239370.41049  -2514577.64947                  23450295.2284
        43.0004         26.2504
 04  6 30 18 45  9.9990000  0  9G 3G 9G14G15G18G19G21G22G25
  22753818.3924    2180467.12149   1690517.37647                  22753817.0654
        43.0004         31.5004
  23800771.6214    2311726.25849   1795806.16147                  23800771.1694
        37.5004         28.0004
  20070504.8574   -1385644.28949  -1072549.86748                  20070501.1744
        50.7504         45.7504
  20096518.9944     695090.53549    540138.72148                  20096516.2584
        53.5004         44.7504
  22919010.6294    2486149.76649   1925720.78147                  22919008.1314
        44.5004         32.2504
  22531667.9544   -1807981.34449  -1399535.87947                  22531663.9644
        45.5004         33.2504
  23557607.2844    4600447.40049   3565364.88546                  23557604.7384
        42.0004         21.0004
  21141317.5104     586814.60549    453594.02148                  21141312.7084
        49.5004         41.0004
  23442565.7904   -3279990.84449  -2546229.89847                  23442565.7664
        44.0004         26.0004
 04  6 30 18 45 19.9990000  0  9G 3G 9G14G15G18G19G21G22G25
  22756438.4344    2194236.98449   1701247.13547                  22756438.0034
        43.2504         31.7504
  23803885.7524    2328084.82049   1808553.09547                  23803883.6284
        38.0004         27.5004
  20069353.1524   -1391696.28549  -1077265.70948                  20069349.1794
        50.5004         45.7504
  20097765.4694     701641.42249    545243.30348                  20097762.8864
        53.5004         44.5004
  22921520.3404    2499337.01249   1935996.56047                  22921517.2834
        45.0004         32.5004
  22530155.6054   -1815929.01249  -1405728.89247                  22530151.4084
        45.2504         33.2504
  23562786.6844    4627664.16849   3586572.68946                  23562784.3884
        40.5004         22.2504
  21141761.7944     589149.18449    455413.16348                  21141756.7654
        49.0004         40.5004
  23434831.8974   -3320632.82849  -2577898.94147                  23434831.7294
        43.2504         27.0004
 04  6 30 18 45 29.9990000  0  9G 3G 9G14G15G18G19G21G22G25
  22759059.5074    2208008.77049   1711978.39247                  22759058.4584
        41.5004         31.5004
  23807002.7814    2344467.11749   1821318.50047                  23807000.9994
        38.5004         28.0004
  20068205.4094   -1397726.80949  -1081964.81848                  20068201.3594
        50.0004         46.0004
  20099017.1474     708218.66849    550368.42648                  20099014.3294
        53.5004         44.5004
  22924025.1394    2512503.76649   1946256.33447                  22924022.7984
        44.0004         32.7504
  22528649.0044   -1823846.26249  -1411898.17047                  22528645.1424
        47.0004         34.0004
  23567964.7914    4654874.07449   3607775.16046                  23567962.3824
        40.0004         22.7504
  21142202.9764     591467.95349    457219.98748                  21142197.9164
        50.2504         40.5004
  23427093.3634   -3361298.21949  -2609586.23347                  23427093.2264
        43.7504         27.7504
 04  6 30 18 45 39.9990000  0  9G 3G 9G14G15G18G19G21G22G25
  22761680.6654    2221786.94949   1722714.62047                  22761680.2044
        43.7504         31.0004
  23810124.4004    2360877.47349   1834105.78647                  23810124.4334
        37.0004         27.7504
  20067062.8084   -1403731.40249  -1086643.71448                  20067058.9004
        51.5004         46.0004
  20100274.7304     714826.81649    555517.62648                  20100272.0104
        54.0004         44.5004
  22926528.0034    2525654.50049   1956503.63847                  22926525.7774
        44.2504         32.2504
  22527149.2874   -1831728.64849  -1418040.31247                  22527144.9724
        46.7504         33.5004
  23573142.8314    4682081.55149   3628975.69646                  23573140.2084
        41.2504         24.7504
  21142641.6904     593775.35549    459017.95448                  21142637.1394
        50.2504         41.2504
  23419351.4324   -3401982.44149  -2641288.15947                  23419351.1594
        43.0004         26.7504
 04  6 30 18 45 49.9990000  0  9G 3G 9G14G15G18G19G21G22G25
  22764304.2004    2235572.84449   1733456.86947                  22764303.8314
        42.0004         31.2504
  23813253.6484    2377317.33649   1846916.06647                  23813252.5904
        36.0004         26.5004
  20065925.4854   -1409708.60549  -1091301.27648                  20065921.6944
        51.0004         45.5004
  20101538.2024     721467.34049    560692.06648                  20101535.7274
        53.5004         44.5004
  22929028.0724    2538790.64849   1966739.60147                  22929025.2674
        45.5004         31.5004
  22525655.7684   -1839574.64149  -1424154.06447                  22525651.6314
        46.7504         33.2504
  23578319.7274    4709288.02749   3650175.49347                  23578317.3874
        41.5004         26.2504
  21143079.3184     596072.95349    460808.29848                  21143074.4364
        50.5004         41.2504
  23411605.7464   -3442683.91049  -2673003.59547                  23411606.2214
        43.5004         26.5004
 04  6 30 18 45 59.9990000  0  8G 3G14G15G18G19G21G22G25
  22766928.4234    2249364.59049   1744203.66147                  22766927.8234
        43.5004         30.7504
  20064792.8124   -1415660.31249  -1095938.97348                  20064789.0494
        51.5004         45.5004
  20102807.5144     728138.39149    565890.27848                  20102804.8244
        53.2504         44.5004
  22931524.5854    2551910.40249   1976962.78347                  22931521.9554
        45.0004         31.5004
  22524169.8804   -1847386.07049  -1430240.90147                  22524165.6894
        47.0004         33.5004
  23583496.8314    4736491.64549   3671373.09346                  23583494.4274
        42.0004         25.2504
  21143514.4574     598358.94949    462589.58348                  21143509.8514
        50.0004         41.0004
  23403857.1374   -3483404.31649  -2704733.71247                  23403857.3064
        43.0004         26.2504
 04  6 30 18 46  9.9990000  0  8G 3G14G15G18G19G21G22G25
  22769554.5414    2263162.13349   1754954.98547                  22769553.2684
        43.0004         29.0004
  20063665.1524   -1421586.47349  -1100556.76848                  20063661.3224
        50.2504         45.0004
  20104083.0444     734840.05549    571112.33648                  20104080.6384
        53.0004         43.5004
  22934017.9084    2565013.96949   1987173.31947                  22934015.0974
        44.5004         29.7504
  22522689.9814   -1855162.92249  -1436300.80647                  22522685.5584
        46.2504         32.7504
  23588671.7874    4763692.35549   3692568.38547                  23588670.4444
        40.5004         25.7504
  21143947.2754     600633.39149    464361.84748                  21143942.4064
        50.5004         40.2504
  23396104.8524   -3524143.48849  -2736478.47946                  23396104.8114
        43.0004         25.2504
 04  6 30 18 46 19.9990000  0  8G 3G14G15G18G19G21G22G25
  22772181.0334    2276964.82449   1765710.30647                  22772180.1814
        43.0004         30.2504
  20062542.2864   -1427487.62549  -1105155.05548                  20062538.6714
        51.0004         46.0004
  20105363.8744     741571.77349    576357.84448                  20105361.5644
        52.0004         44.2504
  22936507.5544    2578100.78549   1997370.85247                  22936505.2544
        44.0004         29.7504
  22521216.5024   -1862905.70349  -1442334.14247                  22521212.2664
        46.7504         33.7504
  23593847.1634    4790889.61749   3713761.00047                  23593846.3624
        40.2504         26.0004
  21144378.0224     602895.78549    466124.76748                  21144373.0964
        50.7504         41.2504
  23388349.0214   -3564901.81249  -2768238.17847                  23388348.7514
        43.0004         27.2504
 04  6 30 18 46 29.9990000  0  8G 3G14G15G18G19G21G22G25
  22774808.5934    2290774.10549   1776470.76647                  22774807.9094
        42.7504         30.0004
  20061424.5364   -1433362.25849  -1109732.69648                  20061420.8094
        51.0004         46.0004
  20106651.0554     748335.11749    581627.97248                  20106648.2674
        52.7504         44.5004
  22938995.6214    2591172.29349   2007556.42147                  22938993.2034
        43.5004         29.5004
  22519750.0824   -1870612.88349  -1448339.75747                  22519745.4764
        45.5004         33.5004
  23599022.0174    4818084.85249   3734952.09646                  23599021.4494
        40.0004         25.5004
  21144805.9974     605147.71149    467879.50348                  21144801.1674
        50.2504         41.2504
  23380589.9434   -3605677.69549  -2800011.56947                  23380588.6614
        43.7504         28.0004
 04  6 30 18 46 39.9990000  0  8G 3G14G15G18G19G21G22G25
  22777437.2264    2304585.41449   1787232.81247                  22777436.5304
        45.2504         31.7504
  20060310.4014   -1439214.91449  -1114293.20548                  20060306.7434
        51.2504         46.5004
  20107943.0534     755125.56349    586919.23548                  20107940.7404
        52.2504         44.5004
  22941479.0964    2604224.12549   2017726.68047                  22941476.8344
        43.0004         30.7504
  22518288.8584   -1878289.03549  -1454321.17347                  22518284.9034
        44.0004         33.2504
  23604195.7304    4845273.66449   3756138.11046                  23604195.2794
        38.5004         24.0004
  21145231.9194     607384.65649    469622.58148                  21145227.0124
        50.0004         41.5004
  23372825.5774   -3646475.55149  -2831802.07047                  23372824.8124
        44.5004         28.7504
 04  6 30 18 46 49.9990000  0  8G 3G14G15G18G19G21G22G25
  22780066.4644    2318403.17249   1797999.86447                  22780065.8514
        43.2504         30.2504
  20059201.9464   -1445041.10949  -1118833.09148                  20059198.1324
        51.0004         46.5004
  20109241.2734     761947.62949    592235.13548                  20109239.0634
        52.7504         44.5004
  22943959.5754    2617260.70749   2027885.04347                  22943957.3674
        43.2504         28.7504
  22516835.4694   -1885929.53949  -1460274.81147                  22516830.9114
        44.5004         33.5004
  23609368.5964    4872460.44949   3777322.59946                  23609369.0944
        39.2504         21.7504
  21145655.6544     609611.15649    471357.51048                  21145651.1614
        50.0004         41.7504
  23365059.8834   -3687290.66849  -2863605.99147                  23365058.4434
        45.2504         28.2504
 04  6 30 18 46 59.9990000  0  8G 3G14G15G18G19G21G22G25
  22782697.4954    2332230.17249   1808774.12647                  22782696.7594
        42.0004         30.5004
  20058098.6444   -1450837.99249  -1123350.15148                  20058094.4284
        51.7504         46.0004
  20110545.7184     768804.26249    597577.94648                  20110543.0724
        51.7504         44.2504
  22946437.8474    2630285.08249   2038033.90347                  22946435.8114
        41.5004         27.2504
  22515388.4204   -1893531.55149  -1466198.46747                  22515384.1974
        45.2504         33.0004
  23614542.6194    4899648.09449   3798507.64546                  23614542.3364
        38.7504         22.2504
  21146077.8844     611830.22749    473086.64448                  21146073.3084
        50.5004         42.0004
  23357290.1144   -3728119.99649  -2895421.01847                  23357288.1994
        44.7504         28.0004
 04  6 30 18 47  9.9990000  0  8G 3G14G15G18G19G21G22G25
  22785330.9304    2346064.52349   1819554.13347                  22785329.6634
        44.0004         30.5004
  20057001.0234   -1456607.45349  -1127845.83648                  20056996.9414
        51.5004         46.0004
  20111857.1664     775693.64549    602946.29548                  20111855.0554
        51.5004         44.2504
  22948913.9914    2643295.35249   2048171.75947                  22948911.7294
        41.0004         27.7504
  22513948.6384   -1901096.91049  -1472093.55947                  22513944.5194
        45.0004         33.7504
  23619716.4984    4926834.64849   3819692.03246                  23619715.7134
        37.5004         20.5004
  21146498.1954     614039.93049    474808.49248                  21146493.3674
        50.2504         42.0004
  23349517.0834   -3768965.34049  -2927248.52747                  23349515.3344
        45.0004         26.7504
 04  6 30 18 47 39.9990000  4  2
2.000000                                                    COMMENT
END OF STATIC OBSERVATION                                   COMMENT
 04  6 30 18 47 39.9990000  0  8G 3G14G15G18G19G21G22G25
  22793233.4754    2387592.69549   1851913.68647                  22793232.7794
        43.5004         31.0004
  20053735.1404   -1473769.62149  -1141218.95848                  20053730.9554
        51.5004         46.0004
  20115824.3974     796539.99249    619190.19448                  20115821.9754
        52.0004         44.5004
  22956321.4004    2682224.19949   2078505.87447                  22956320.0194
        39.5004         27.2504
  22509668.2984   -1923591.36349  -1489621.72047                  22509664.1784
        46.0004         32.7504
  23635232.7574    5008369.13749   3883225.18746                  23635230.2114
        36.2504         20.0004
  21147745.8614     620595.04349    479916.34448                  21147741.1504
        51.0004         42.0004
  23326177.2424   -3891614.39549  -3022819.05247                  23326175.9244
        46.0004         26.5004
 04  6 30 18 47 49.9990000  0  8G 3G14G15G18G19G21G22G25
  22795869.1064    2401446.24649   1862708.64047                  22795869.0844
        44.5004         31.5004
  20052656.1684   -1479438.87949  -1145636.56548                  20052651.8154
        51.5004         46.5004
  20117158.4324     803550.92249    624653.24048                  20117155.6034
        51.7504         44.7504
  22958785.3644    2695169.26649   2088592.92047                  22958783.3394
        40.5004         27.7504
  22508254.9834   -1931019.59849  -1495409.95447                  22508250.4094
        45.2504         34.0004
  23640404.2564    5035541.51249   3904398.39046                  23640400.8364
        38.0004         20.5004
  21148157.4004     622758.24249    481601.95048                  21148152.5014
        50.7504         42.5004
  23318391.1924   -3932531.88349  -3054702.78447                  23318389.7304
        45.0004         27.0004
 04  6 30 18 47 59.9990000  0  8G 3G14G15G18G19G21G22G25
  22798506.9744    2415306.61349   1873508.94447                  22798506.3834
        44.5004         31.0004
  20051582.8744   -1485080.98449  -1150033.00648                  20051579.0324
        51.7504         46.0004
  20118498.1664     810594.41849    630141.68248                  20118496.1084
        51.5004         44.5004
  22961245.7994    2708100.25849   2098669.01347                  22961243.5564
        41.0004         28.0004
  22506848.3484   -1938411.35549  -1501169.77847                  22506843.8054
        46.2504         33.5004
  23645574.5454    5062712.35549   3925570.42746                  23645571.1694
        40.5004         21.2504
  21148567.3404     624912.03949    483280.23748                  21148562.5614
        50.0004         41.7504
  23310601.3294   -3973464.90649  -3086598.58947                  23310600.7884
        45.0004         27.0004
 04  6 30 18 48  9.9990000  0  8G 3G14G15G18G19G21G22G25
  22801145.1894    2429171.07449   1884312.40647                  22801144.3924
        44.7504         30.7504
  20050513.5884   -1490698.50849  -1154410.28048                  20050509.7594
        51.7504         46.0004
  20119844.2144     817667.96149    635653.53548                  20119842.3044
        51.5004         44.2504
  22963703.2854    2721014.55949   2108732.10347                  22963701.6814
        41.0004         28.2504
  22505448.0744   -1945769.17649  -1506903.12947                  22505444.1144
        46.2504         33.7504
  23650744.3054    5089878.90649   3946739.12046                  23650741.4514
        39.7504         22.7504
  21148974.7544     627053.91049    484949.23248                  21148970.2664
        50.2504         41.7504
  23302808.8634   -4014415.87949  -3118508.41147                  23302807.7664
        45.0004         27.0004
 04  6 30 18 48 19.9990000  0  8G 3G14G15G18G19G21G22G25
  22803784.2204    2443038.86349   1895118.45847                  22803783.5444
        45.5004         30.7504
  20049448.8334   -1496292.26249  -1158769.06048                  20049444.8604
        52.0004         45.5004
  20121196.0504     824770.80149    641188.21248                  20121193.9294
        51.7504         44.2504
  22966158.2684    2733911.44149   2118781.58447                  22966155.8944
        40.7504         28.0004
  22504054.4474   -1953093.87549  -1512610.69847                  22504049.6154
        45.5004         33.5004
  23655913.0414    5117040.67249   3967904.11746                  23655910.5854
        38.5004         22.5004
  21149379.8084     629183.12149    486608.34748                  21149375.3644
        50.5004         42.0004
  23295011.4994   -4055385.47749  -3150432.75347                  23295011.7594
        44.5004         26.0004
 04  6 30 18 48 29.9990000  0  8G 3G14G15G18G19G21G22G25
  22806423.4664    2456909.11749   1905926.42847                  22806422.4064
        46.0004         31.7504
  20048389.2524   -1501862.98049  -1163109.88148                  20048385.2924
        51.7504         45.0004
  20122553.0724     831902.21549    646745.14748                  20122550.9334
        52.0004         44.0004
  22968608.7154    2746790.32449   2128817.05847                  22968606.7874
        41.5004         27.2504
  22502666.9174   -1960386.14549  -1518292.99847                  22502661.9234
        45.0004         33.5004
  23661080.9394    5144196.80949   3989064.61546                  23661078.0334
        40.0004         22.7504
  21149782.8114     631299.00449    488257.07248                  21149777.8374
        51.0004         41.0004
  23287212.3124   -4096374.30949  -3182372.05747                  23287212.4624
        43.7504         25.7504
 04  6 30 18 48 39.9990000  0  8G 3G14G15G18G19G21G22G25
  22809064.2074    2470784.95349   1916738.76547                  22809063.4164
        45.5004         31.7504
  20047333.9824   -1507407.50849  -1167430.30448                  20047330.0824
        51.5004         46.0004
  20123916.7394     839065.36749    652326.81848                  20123914.1264
        51.5004         45.0004
  22971056.7164    2759654.27349   2138840.88747                  22971054.2614
        40.5004         27.5004
  22501285.8014   -1967642.86349  -1523947.59947                  22501281.3294
        46.2504         33.5004
  23666246.8424    5171350.33249   4010223.20246                  23666245.6494
        37.5004         22.5004
  21150183.3304     633404.76249    489897.91348                  21150178.6084
        50.2504         42.0004
  23279409.9974   -4137378.99249  -3214323.75547                  23279409.9104
        43.2504         25.7504
 04  6 30 18 48 49.9990000  0  8G 3G14G15G18G19G21G22G25
  22811705.9324    2484667.23449   1927556.11947                  22811705.1024
        46.0004         31.7504
  20046283.7674   -1512924.91849  -1171729.56848                  20046280.5904
        51.7504         45.7504
  20125285.6854     846261.19549    657933.96048                  20125283.4094
        52.5004         45.0004
  22973502.3244    2772504.38349   2148853.98347                  22973499.9144
        42.2504         27.5004
  22499911.9344   -1974862.96549  -1529573.65247                  22499907.4714
        46.2504         33.5004
  23671412.8944    5198502.29349   4031380.55146                  23671412.7244
        39.2504         24.5004
  21150582.4624     635501.36749    491531.63448                  21150577.4724
        51.0004         41.7504
  23271603.7144   -4178398.53949  -3246286.99747                  23271603.7334
        44.0004         25.7504
 04  6 30 18 48 59.9990000  0  8G 3G14G15G18G19G21G22G25
  22814348.9074    2498555.23849   1938377.90147                  22814347.5424
        46.0004         31.2504
  20045239.2634   -1518415.89849  -1176008.25848                  20045235.7494
        51.0004         45.7504
  20126661.1484     853489.00449    663566.01148                  20126659.0194
        51.5004         44.5004
  22975944.3574    2785339.97749   2158855.70547                  22975942.6454
        42.5004         27.0004
  22498544.5424   -1982047.21549  -1535171.77947                  22498540.3444
        45.7504         33.5004
  23676579.8534    5225651.92649   4052536.02246                  23676579.7554
        38.0004         22.5004
  21150979.1084     637588.12149    493157.66248                  21150974.9044
        50.5004         41.7504
  23263794.8904   -4219433.42649  -3278262.22047                  23263794.6454
        44.2504         26.0004
 04  6 30 18 49  9.9990000  0  8G 3G14G15G18G19G21G22G25
  22816992.7154    2512448.28549   1949203.65547                  22816990.8514
        46.0004         31.5004
  20044198.9964   -1523881.06249  -1180266.82848                  20044195.2524
        51.5004         45.5004
  20128042.5524     860748.25449    669222.56648                  20128040.2994
        52.2504         44.5004
  22978384.2584    2798160.61349   2168845.80347                  22978381.7894
        42.0004         27.7504
  22497184.4754   -1989196.16849  -1540742.38847                  22497180.1764
        46.0004         34.0004
  23681744.7964    5252798.60949   4073689.22946                  23681745.1244
        38.2504         23.0004
  21151374.1714     639664.44149    494775.57548                  21151370.1344
        50.5004         42.0004
  23255983.8034   -4260484.14849  -3310249.77947                  23255982.8994
        44.2504         26.5004
 04  6 30 18 49 19.9990000  0  8G 3G14G15G18G19G21G22G25
  22819637.6474    2526348.44549   1960034.92347                  22819636.3254
        46.0004         31.2504
  20043164.4024   -1529318.28949  -1184503.62848                  20043160.5554
        52.0004         45.2504
  20129430.1754     868041.11349    674905.29948                  20129428.0474
        51.7504         44.2504
  22980821.3974    2810968.40649   2178825.87547                  22980818.9834
        42.7504         28.0004
  22495831.3004   -1996307.69549  -1546283.84847                  22495827.0954
        47.5004         34.0004
  23686911.2124    5279944.45749   4094841.72646                  23686911.3004
        37.5004         22.0004
  21151768.2524     641732.57849    496387.10248                  21151763.4154
        51.5004         41.2504
  23248169.3564   -4301548.40649  -3342247.87047                  23248168.6484
        44.7504         27.0004
 04  6 30 18 49 29.9990000  0  8G 3G14G15G18G19G21G22G25
  22822283.9374    2540254.79749   1970871.04147                  22822282.4444
        47.0004         31.0004
  20042134.7264   -1534728.41449  -1188719.30048                  20042131.2794
        51.5004         45.2504
  20130824.1274     875366.73849    680613.58548                  20130821.9454
        52.0004         44.0004
  22983256.1654    2823762.50449   2188795.27747                  22983253.5724
        41.7504         28.2504
  22494484.7524   -2003382.59449  -1551796.75047                  22494480.5144
        47.0004         34.0004
  23692076.9534    5307088.59849   4115992.97346                  23692076.8814
        36.5004         22.2504
  21152159.9234     643791.72749    497991.63848                  21152155.5064
        51.0004         42.0004
  23240353.0094   -4342626.93449  -3374257.07247                  23240351.5194
        45.5004         26.7504
 04  6 30 18 49 39.9990000  0  8G 3G14G15G18G19G21G22G25
  22824930.7464    2554165.36349   1981710.42347                  22824928.9254
        46.2504         30.0004
  20041109.8184   -1540113.32849  -1192915.35148                  20041106.6154
        52.2504         45.0004
  20132224.2274     882723.31649    686345.96948                  20132221.7544
        51.2504         43.5004
  22985687.5264    2836541.09449   2198752.62047                  22985685.6854
        41.2504         28.2504
  22493144.9624   -2010422.73049  -1557282.59447                  22493141.2084
        46.2504         33.7504
  23697242.5164    5334229.13349   4137141.36346                  23697242.1184
        38.7504         22.7504
  21152549.8374     645840.06349    499587.73048                  21152545.1224
        50.7504         41.7504
  23232532.7564   -4383721.51649  -3406278.81047                  23232531.3604
        45.0004         26.0004
 04  6 30 18 49 49.9990000  0  8G 3G14G15G18G19G21G22G25
  22827579.7564    2568084.44949   1992556.44547                  22827577.7824
        45.7504         30.5004
  20040091.0984   -1545468.73849  -1197088.39948                  20040087.6954
        52.0004         45.0004
  20133631.0044     890115.19949    692105.87848                  20133628.6124
        51.7504         43.7504
  22988117.8184    2849308.53149   2208701.25047                  22988115.3714
        40.5004         28.0004
  22491813.0074   -2017423.71949  -1562737.92447                  22491808.6664
        47.0004         34.0004
  23702406.3594    5361370.36749   4158290.30046                  23702406.7994
        38.0004         22.2504
  21152938.2934     647881.95749    501178.80748                  21152933.5814
        51.7504         41.2504
  23224710.6774   -4424827.60249  -3438309.47947                  23224708.9394
        45.2504         25.7504
 04  6 30 18 49 59.9990000  0  8G 3G14G15G18G19G21G22G25
  22830229.3914    2582006.25849   2003404.59647                  22830227.1234
        47.0004         31.0004
  20039076.3754   -1550800.32449  -1201242.88848                  20039072.8614
        52.0004         45.0004
  20135043.2454     897536.65649    697888.81848                  20135040.8354
        51.7504         43.7504
  22990544.6994    2862059.17249   2218636.76247                  22990541.8444
        41.2504         29.0004
  22490486.7714   -2024391.34049  -1568167.23447                  22490482.5574
        47.5004         34.2504
  23707571.5884    5388506.44549   4179435.21546                  23707570.9124
        39.5004         22.7504
  21153324.4274     649911.68449    502760.41148                  21153319.7274
        51.5004         41.7504
  23216884.5844   -4465950.75849  -3470353.46347                  23216883.3714
        45.0004         26.5004
 04  6 30 18 50  9.9990000  0  8G 3G14G15G18G19G21G22G25
  22832879.2814    2595933.73049   2014257.16047                  22832878.0744
        46.7504         31.0004
  20038066.8894   -1556105.14549  -1205376.50548                  20038063.2244
        52.5004         45.5004
  20136461.5824     904990.68049    703697.14148                  20136459.1394
        51.0004         43.5004
  22992967.9154    2874796.02049   2228561.57147                  22992965.4254
        41.0004         29.0004
  22489167.9794   -2031322.58249  -1573568.21247                  22489163.7324
        47.5004         35.0004
  23712735.0604    5415640.52749   4200578.58546                  23712733.8964
        39.7504         24.0004
  21153709.0324     651932.31649    504334.93048                  21153704.1734
        51.5004         42.2504
  23209057.1244   -4507087.81249  -3502408.30746                  23209054.7294
        45.5004         24.0004
 04  6 30 18 50 19.9990000  0  8G 3G14G15G18G19G21G22G25
  22835530.7764    2609867.87949   2025114.91747                  22835529.6414
        46.5004         30.0004
  20037062.7414   -1561382.11349  -1209488.43348                  20037059.0824
        51.5004         45.2504
  20137886.4014     912478.43049    709531.75148                  20137883.7554
        52.0004         43.5004
  22995388.8564    2887520.20349   2238476.50147                  22995386.3464
        43.0004         28.5004
  22487856.4144   -2038216.36749  -1578939.99947                  22487852.1244
        46.7504         35.0004
  23717898.6094    5442773.46949   4221721.10746                  23717897.1064
        40.5004         24.7504
  21154091.8134     653944.99249    505903.25348                  21154087.3544
        51.7504         41.7504
  23201225.9044   -4548237.57849  -3534473.00847                  23201223.8824
        45.0004         26.7504
 04  6 30 18 50 29.9990000  0  8G 3G14G15G18G19G21G22G25
  22838182.9504    2623802.52749   2035973.05247                  22838181.7384
        46.0004         30.5004
  20036062.9784   -1566637.35949  -1213583.43848                  20036059.6714
        51.7504         45.2504
  20139316.6664     919993.81649    715387.88148                  20139313.8504
        51.0004         43.5004
  22997807.2784    2900225.77349   2248376.93047                  22997804.6994
        43.0004         28.2504
  22486549.8354   -2045078.76249  -1584287.32747                  22486546.3864
        47.0004         35.0004
  23723060.0714    5469899.30549   4242858.06646                  23723058.5364
        38.0004         22.7504
  21154472.5684     655943.67249    507460.65048                  21154467.2674
        52.2504         41.7504
  23193391.3284   -4589405.97349  -3566552.26146                  23193390.0254
        44.2504         23.5004
 04  6 30 18 50 39.9990000  0  8G 3G14G15G18G19G21G22G25
  22840835.5774    2637742.44949   2046835.30647                  22840834.2194
        45.5004         30.5004
  20035067.7774   -1571865.99249  -1217657.70448                  20035063.9394
        51.2504         45.0004
  20140752.9764     927541.66449    721269.31248                  20140750.9784
        52.2504         43.5004
  23000222.6874    2912917.55549   2258266.61347                  23000219.7534
        41.0004         29.0004
  22485251.2374   -2051904.87549  -1589606.39047                  22485247.2124
        46.7504         34.2504
  23728221.3404    5497022.69549   4263993.12946                  23728219.8674
        39.2504         22.5004
  21154851.2374     657933.19549    509010.91948                  21154846.0864
        51.7504         42.5004
  23185554.9854   -4630588.07049  -3598642.17346                  23185552.7344
        43.7504         24.0004
 04  6 30 18 50 49.9990000  0  8G 3G14G15G18G19G21G22G25
  22843488.5974    2651687.35249   2057701.46947                  22843487.7904
        45.5004         29.5004
  20034078.2404   -1577068.38749  -1221711.52348                  20034073.8754
        51.7504         44.7504
  20142195.4394     935121.71149    727175.83448                  20142192.4944
        51.7504         43.0004
  23002634.8994    2925595.29349   2268145.34547                  23002632.0544
        41.0004         28.0004
  22483958.8904   -2058695.03149  -1594897.41647                  22483955.8774
        46.0004         33.7504
  23733381.5294    5524143.38749   4285126.12046                  23733381.1774
        38.0004         22.5004
  21155227.8634     659913.30549    510553.86448                  21155222.7734
        51.5004         42.0004
  23177714.8934   -4671784.04749  -3630742.93546                  23177713.2004
        43.0004         23.2504
 04  6 30 18 50 59.9990000  0  8G 3G14G15G18G19G21G22G25
  22846142.7254    2665635.32849   2068569.97147                  22846141.5064
        44.7504         29.2504
  20033092.5094   -1582246.25049  -1225746.22248                  20033088.9584
        51.2504         45.0004
  20143643.6544     942732.22749    733106.09548                  20143640.6604
        52.0004         43.7504
  23005044.2884    2938257.25449   2278011.82447                  23005041.7914
        42.2504         28.5004
  22482673.6964   -2065450.96149  -1600161.78847                  22482669.4704
        45.2504         33.5004
  23738541.7364    5551259.59449   4306255.53446                  23738540.6114
        40.5004         22.5004
  21155602.6284     661882.35949    512088.17648                  21155597.7904
        52.0004         42.7504
  23169872.1834   -4712995.51649  -3662855.72446                  23169870.6484
        42.2504         21.7504
 04  6 30 18 51  9.9990000  0  8G 3G14G15G18G19G21G22G25
  22848797.6464    2679587.48049   2079441.78647                  22848796.7944
        45.0004         30.5004
  20032112.1624   -1587398.51249  -1229760.96148                  20032108.3524
        51.2504         45.0004
  20145097.7424     950374.39149    739061.03548                  20145095.1534
        52.5004         43.5004
  23007451.1034    2950904.56349   2287866.84147                  23007448.1994
        43.5004         27.7504
  22481394.5474   -2072171.50849  -1605398.57947                  22481390.9904
        45.7504         34.0004
  23743701.5214    5578372.47549   4327382.40546                  23743700.6104
        39.0004         22.5004
  21155975.2744     663841.46549    513614.76848                  21155970.6934
        52.0004         42.5004
  23162027.8034   -4754221.25049  -3694979.61046                  23162025.9534
        42.0004         25.2504
 04  6 30 18 51 19.9990000  0  8G 3G14G15G18G19G21G22G25
  22851453.2614    2693543.75449   2090316.80047                  22851452.8004
        45.2504         30.5004
  20031136.5474   -1592525.10249  -1233755.71248                  20031132.7904
        52.0004         45.5004
  20146558.2594     958048.28149    745040.67548                  20146555.7204
        51.7504         44.0004
  23009854.5774    2963537.40649   2297710.60647                  23009851.9924
        44.2504         28.7504
  22480122.2624   -2078856.66849  -1610607.80947                  22480118.1684
        47.0004         34.0004
  23748859.2844    5605481.86749   4348506.60946                  23748859.5364
        37.7504         21.7504
  21156346.2224     665790.69949    515133.64948                  21156341.5884
        52.7504         42.0004
  23154180.0024   -4795460.95349  -3727114.38446                  23154178.8404
        42.0004         24.7504
 04  6 30 18 51 29.9990000  0  8G 3G14G15G18G19G21G22G25
  22854111.5624    2707507.50049   2101197.62147                  22854110.1724
        44.7504         31.0004
  20030166.3574   -1597622.73049  -1237727.89248                  20030162.5124
        52.0004         45.5004
  20148025.3584     965757.28149    751047.68448                  20148022.1954
        52.2504         43.7504
  23012256.8894    2976159.09449   2307545.67947                  23012254.2514
        41.0004         28.5004
  22478857.3994   -2085503.05149  -1615786.80047                  22478853.7914
        46.0004         34.0004
  23754018.4084    5632591.34849   4369630.74546                  23754018.4194
        39.2504         22.2504
  21156716.1674     667733.53549    516647.53648                  21156711.0994
        52.0004         42.0004
  23146330.2084   -4836711.20349  -3759257.43846                  23146329.4504
        42.2504         24.5004
 04  6 30 18 51 39.9990000  0  8G 3G14G15G18G19G21G22G25
  22856768.2454    2721474.33249   2112080.85147                  22856768.1794
        45.0004         30.7504
  20029201.2584   -1602695.62149  -1241680.79448                  20029197.5014
        52.5004         45.5004
  20149498.1024     973497.14849    757078.73748                  20149495.5644
        52.2504         44.0004
  23014655.6014    2988765.55949   2317368.86347                  23014653.0194
        42.2504         27.0004
  22477599.4034   -2092114.88749  -1620938.88847                  22477595.8764
        46.2504         33.5004
  23759177.1004    5659696.42249   4390751.53546                  23759176.9204
        39.2504         23.0004
  21157083.7814     669665.75449    518153.16048                  21157078.9904
        52.2504         41.7504
  23138477.2494   -4877976.09049  -3791411.83746                  23138476.8274
        42.5004         23.5004
 04  6 30 18 51 49.9990000  0  8G 3G14G15G18G19G21G22G25
  22859427.6194    2735444.87549   2122966.97047                  22859426.5164
        46.0004         30.7504
  20028240.5734   -1607743.13749  -1245613.92448                  20028236.8674
        52.2504         45.2504
  20150977.0374     981268.46949    763134.30548                  20150974.4364
        53.0004         43.5004
  23017051.9294    3001357.43449   2327180.69747                  23017049.6464
        43.5004         28.2504
  22476348.0244   -2098691.54349  -1626063.56547                  22476344.5774
        46.5004         33.2504
  23764333.6264    5686797.73449   4411869.35846                  23764333.7184
        40.5004         25.2504
  21157449.5844     671587.96549    519650.98148                  21157444.8754
        52.7504         41.2504
  23130622.5424   -4919254.78549  -3823577.02247                  23130621.7034
        43.5004         26.2504
 04  6 30 18 51 59.9990000  0  8G 3G14G15G18G19G21G22G25
  22862086.7494    2749419.27349   2133856.10747                  22862086.2574
        45.5004         31.2504
  20027285.0754   -1612765.06249  -1249527.11948                  20027281.5444
        51.5004         45.5004
  20152461.8384     989071.52049    769214.59648                  20152459.0874
        52.2504         44.0004
  23019445.1874    3013934.96949   2336981.34847                  23019442.9864
        44.0004         27.0004
  22475102.9884   -2105232.77749  -1631160.63647                  22475099.4044
        45.0004         33.5004
  23769490.7144    5713895.58649   4432984.51046                  23769490.6594
        41.0004         24.2504
  21157813.4314     673500.50049    521141.25948                  21157808.6684
        52.2504         41.2504
  23122766.0224   -4960546.84049  -3855752.60247                  23122764.4574
        43.2504         26.5004
 04  6 30 18 52  9.9990000  0  8G 3G14G15G18G19G21G22G25
  22864746.8574    2763397.07049   2144747.86647                  22864745.9374
        44.7504         30.7504
  20026334.2594   -1617761.83649  -1253420.71848                  20026330.4384
        52.2504         45.0004
  20153952.4684     996905.91449    775319.29348                  20153949.9664
        53.0004         43.0004
  23021835.7024    3026497.83649   2346770.55147                  23021833.3344
        43.5004         27.7504
  22473865.1074   -2111738.99249  -1636230.43447                  22473861.7214
        46.5004         33.0004
  23774646.7064    5740989.44549   4454096.47547                  23774647.0664
        41.2504         26.7504
  21158175.3934     675402.93449    522623.65948                  21158170.8764
        51.7504         41.2504
  23114905.3894   -5001852.62549  -3887938.92247                  23114904.2944
        43.7504         26.5004
 04  6 30 18 52 19.9990000  0  8G 3G14G15G18G19G21G22G25
  22867405.5554    2777371.17649   2155636.78447                  22867405.3984
        44.5004         31.0004
  20025386.7284   -1622740.52349  -1257300.20448                  20025382.6424
        52.2504         45.7504
  20155448.2184    1004764.67649    781443.01948                  20155445.6634
        52.0004         43.7504
  23024223.0674    3039039.07049   2356542.95147                  23024219.4734
        43.5004         28.5004
  22472632.2504   -2118217.23449  -1641278.41047                  22472628.8804
        46.0004         34.2504
  23779800.8524    5768072.25449   4475199.91846                  23779800.3754
        41.5004         25.2504
  21158534.1864     677288.35549    524092.83648                  21158529.7374
        52.0004         41.7504
  23107040.8124   -5043179.00449  -3920141.25347                  23107040.7494
        44.2504         28.0004
 04  6 30 18 52 29.9990000  0  8G 3G14G15G18G19G21G22G25
  22870065.2634    2791347.92649   2166527.73847                  22870064.3244
        45.2504         31.2504
  20024444.0644   -1627694.69549  -1261160.59248                  20024440.5474
        51.5004         45.5004
  20156949.1654    1012654.18449    787590.69248                  20156946.5914
        52.5004         44.0004
  23026605.9704    3051565.09049   2366303.49347                  23026603.2114
        43.0004         27.7504
  22471406.1734   -2124661.08249  -1646299.57747                  22471402.5024
        45.5004         33.7504
  23784953.6544    5795150.50049   4496299.75146                  23784953.4604
        42.0004         24.5004
  21158891.0014     679163.18049    525553.73048                  21158885.9474
        51.5004         41.7504
  23099174.6354   -5084519.50049  -3952354.57447                  23099173.7334
        44.0004         29.2504
 04  6 30 18 52 39.9990000  0  8G 3G14G15G18G19G21G22G25
  22872726.2454    2805328.64849   2177421.78547                  22872725.1334
        46.0004         31.7504
  20023506.1734   -1632622.89849  -1265000.75248                  20023502.6094
        51.5004         45.7504
  20158456.8564    1020575.94549    793763.48148                  20158454.5184
        52.0004         44.0004
  23028986.7154    3064077.36349   2376053.29747                  23028984.2114
        43.2504         27.5004
  22470186.6374   -2131069.05149  -1651292.81647                  22470183.4414
        46.2504         33.7504
  23790106.0084    5822225.53949   4517397.14846                  23790105.4594
        42.5004         25.2504
  21159246.1014     681028.92249    527007.55848                  21159240.8854
        51.7504         42.0004
  23091305.2174   -5125872.43749  -3984577.62847                  23091304.8344
        44.0004         29.5004
 04  6 30 18 52 49.9990000  0  8G 3G14G15G18G19G21G22G25
  22875387.0304    2819309.70749   2188316.10147                  22875385.8894
        43.5004         31.0004
  20022572.7964   -1637528.82849  -1268823.55548                  20022569.2054
        51.7504         45.5004
  20159969.5454    1028526.28149    799958.54348                  20159967.0564
        52.5004         44.0004
  23031364.6924    3076572.31649   2385789.58947                  23031362.3844
        45.2504         27.0004
  22468973.3534   -2137444.79349  -1656260.91947                  22468969.7014
        45.7504         34.0004
  23795256.5494    5849293.78149   4538489.22246                  23795256.2594
        42.0004         25.2504
  21159598.6014     682881.99649    528451.50548                  21159593.7724
        51.7504         41.5004
  23083433.1044   -5167241.36749  -4016813.12747                  23083432.1154
        43.5004         29.7504
 04  6 30 18 52 59.9990000  0  8G 3G14G15G18G19G21G22G25
  22878048.8384    2833299.12149   2199216.92547                  22878047.7164
        45.5004         31.0004
  20021644.9934   -1642404.43749  -1272622.73348                  20021641.4494
        52.0004         45.5004
  20161489.6004    1036513.32049    806182.20248                  20161487.2814
        52.2504         44.0004
  23033740.5694    3089058.09449   2395518.73047                  23033738.6494
        45.2504         27.0004
  22467767.8304   -2143780.18749  -1661197.60647                  22467764.2384
        47.0004         34.0004
  23800407.1524    5876363.17649   4559582.20746                  23800407.2974
        42.0004         22.5004
  21159950.6234     684730.48849    529891.88048                  21159945.6254
        52.0004         41.5004
  23075558.5734   -5208618.01649  -4049054.62947                  23075558.6224
        43.5004         29.0004
 04  6 30 18 53  9.9990000  0  8G 3G14G15G18G19G21G22G25
  22880711.7674    2847291.30949   2210119.90447                  22880710.2544
        45.2504         30.2504
  20020721.9314   -1647255.14549  -1276402.50248                  20020718.0864
        51.7504         45.5004
  20163015.3134    1044531.64849    812430.25448                  20163012.8834
        51.5004         44.0004
  23036113.9974    3101529.25049   2405236.51447                  23036111.6684
        44.5004         27.5004
  22466568.7834   -2150080.66449  -1666107.07647                  22466564.7914
        46.5004         33.7504
  23805557.1514    5903428.25049   4580671.82746                  23805557.2554
        41.2504         22.5004
  21160300.1714     686569.00449    531324.49148                  21160295.5674
        51.5004         41.0004
  23067682.6884   -5250007.77349  -4081306.36847                  23067682.4034
        44.0004         30.5004
 04  6 30 18 53 19.9990000  0  8G 3G14G15G18G19G21G22G25
  22883375.0054    2861288.05949   2221026.44447                  22883374.0064
        45.2504         29.2504
  20019804.0044   -1652079.04349  -1280161.38748                  20019800.4504
        52.5004         45.0004
  20164547.6984    1052583.15249    818704.13348                  20164545.2454
        51.5004         42.7504
  23038485.3124    3113987.80949   2414944.45847                  23038482.5274
        43.7504         28.5004
  22465376.9514   -2156344.35949  -1670987.88547                  22465373.1014
        46.5004         32.7504
  23810707.5304    5930490.99249   4601759.70246                  23810707.1324
        41.5004         21.0004
  21160648.6434     688399.50449    532750.84048                  21160643.8964
        51.5004         40.0004
  23059804.4144   -5291408.60549  -4113566.72147                  23059804.2664
        43.7504         27.7504
 04  6 30 18 53 29.9990000  0  8G 3G14G15G18G19G21G22G25
  22886038.4624    2875286.14149   2231934.02047                  22886037.5274
        45.2504         30.5004
  20018890.3204   -1656879.36349  -1283901.89948                  20018886.7274
        51.2504         45.7504
  20166085.3244    1060664.62549    825001.38648                  20166083.0164
        52.0004         44.2504
  23040852.8674    3126430.55949   2424640.09047                  23040850.5964
        46.2504         28.0004
  22464191.3214   -2162574.50049  -1675842.54847                  22464187.4684
        46.7504         33.7504
  23815856.2814    5957547.98849   4622843.02146                  23815855.8144
        41.7504         20.5004
  21160994.8524     690218.76649    534168.44748                  21160989.9344
        52.0004         40.7504
  23051923.6764   -5332823.48849  -4145838.02847                  23051922.9274
        43.5004         29.0004
 04  6 30 18 53 39.9990000  0  8G 3G14G15G18G19G21G22G25
  22888703.3214    2889287.78949   2242844.39547                  22888701.8524
        45.2504         30.5004
  20017981.8534   -1661653.87549  -1287622.29248                  20017978.0254
        52.0004         45.7504
  20167629.3764    1068778.36749    831323.78248                  20167626.8724
        52.0004         44.0004
  23043217.8374    3138859.81349   2434325.21547                  23043215.8884
        46.5004         28.5004
  22463013.1404   -2168768.75849  -1680669.24947                  22463008.7924
        46.7504         34.0004
  23821004.6374    5984601.54749   4643923.60146                  23821003.5764
        41.2504         20.0004
  21161339.0814     692029.15649    535579.15348                  21161334.0454
        51.7504         40.5004
  23044040.2624   -5374249.90649  -4178118.31247                  23044039.2544
        41.7504         28.5004
 04  6 30 18 53 49.9990000  0  8G 3G14G15G18G19G21G22G25
  22891368.8274    2903294.10549   2253758.39447                  22891367.6384
        44.5004         29.7504
  20017078.3944   -1666401.39149  -1291321.65748                  20017074.5764
        52.0004         46.2504
  20169179.7874    1076925.57049    837672.25148                  20169177.4174
        51.5004         44.2504
  23045580.4534    3151276.73049   2444000.73047                  23045578.3324
        44.5004         27.5004
  22461841.3964   -2174926.00449  -1685467.10647                  22461837.0484
        47.0004         34.0004
  23826151.9934    6011652.78149   4665002.42546                  23826151.6294
        41.0004         19.2504
  21161682.3614     693831.84849    536983.83748                  21161677.5974
        50.5004         41.2504
  23036154.9934   -5415686.69549  -4210406.69847                  23036153.7344
        42.2504         30.0004
 04  6 30 18 53 59.9990000  0  8G 3G14G15G18G19G21G22G25
  22894033.8114    2917301.88349   2264673.54147                  22894033.1364
        45.5004         29.7504
  20016179.4554   -1671125.14549  -1295002.49948                  20016176.1694
        51.7504         46.0004
  20170736.1834    1085103.10949    844044.35048                  20170733.6574
        51.5004         43.2504
  23047940.7244    3163678.28549   2453664.22447                  23047938.3734
        46.2504         27.5004
  22460676.2464   -2181049.34049  -1690238.53747                  22460672.1544
        46.2504         34.0004
  23831299.6994    6038698.56349   4686077.06746                  23831298.0584
        41.5004         18.2504
  21162023.3664     695623.82449    538380.18048                  21162018.6874
        51.5004         41.0004
  23028267.4664   -5457136.88749  -4242705.52647                  23028265.9634
        43.0004         29.5004
 04  6 30 18 54  9.9990000  0  8G 3G14G15G18G19G21G22G25
  22896698.2414    2931309.65249   2275588.64747                  22896698.7704
        45.5004         29.7504
  20015284.7274   -1675826.57849  -1298665.96648                  20015281.2444
        52.2504         45.7504
  20172297.5424    1093309.53549    850438.96248                  20172295.1814
        52.0004         43.0004
  23050297.5854    3176063.10949   2463314.72447                  23050294.6024
        45.7504         27.0004
  22459516.8834   -2187140.23049  -1694984.70947                  22459512.4174
        48.2504         34.2504
  23836445.0144    6065737.43449   4707146.23846                  23836443.4694
        41.2504         20.0004
  21162362.0334     697403.55549    539766.97648                  21162357.2314
        51.0004         40.5004
  23020376.8144   -5498601.80949  -4275015.84247                  23020375.3514
        42.5004         28.7504
 04  6 30 18 54 19.9990000  0  8G 3G14G15G18G19G21G22G25
  22899364.9354    2945321.30149   2286506.81347                  22899365.4424
        45.0004         29.5004
  20014395.1574   -1680501.63749  -1302308.87048                  20014391.8184
        51.0004         45.5004
  20173865.3254    1101548.94549    856859.28348                  20173862.7764
        51.7504         43.0004
  23052651.8994    3188435.20349   2472955.29447                  23052649.1574
        46.5004         28.2504
  22458364.8474   -2193194.64549  -1699702.44147                  22458359.8974
        46.7504         32.7504
  23841590.6694    6092773.33249   4728213.05446                  23841588.4764
        42.2504         21.0004
  21162699.2544     699175.22349    541147.49348                  21162694.3214
        51.2504         40.2504
  23012484.3664   -5540077.17649  -4307334.27747                  23012482.7124
        42.5004         28.7504
 04  6 30 18 54 29.9990000  0  8G 3G14G15G18G19G21G22G25
  22902032.2294    2959337.02349   2297428.14947                  22902032.2774
        45.5004         29.2504
  20013511.0944   -1685150.01649  -1305930.98348                  20013507.2634
        52.5004         45.2504
  20175439.6144    1109821.64149    863305.52048                  20175437.1274
        52.0004         43.0004
  23055003.7024    3200794.97749   2482586.26047                  23055001.4874
        46.0004         28.2504
  22457219.9414   -2199212.28549  -1704391.51647                  22457215.2254
        48.0004         33.2504
  23846735.0424    6119806.49249   4749277.77146                  23846732.9654
        42.0004         21.0004
  21163034.7584     700939.18049    542521.99548                  21163029.8024
        50.5004         39.7504
  23004590.0054   -5581562.57849  -4339660.53047                  23004588.2894
        41.5004         28.0004
 04  6 30 18 54 39.9990000  0  8G 3G14G15G18G19G21G22G25
  22904700.0284    2973356.16049   2308352.14347                  22904700.1924
        45.2504         29.5004
  20012631.1764   -1689772.43449  -1309532.86448                  20012627.4594
        51.7504         45.7504
  20177020.0314    1118126.89149    869777.13948                  20177017.7774
        51.5004         43.7504
  23057353.3354    3213141.63349   2492206.99147                  23057351.0754
        46.5004         27.5004
  22456081.3834   -2205193.86349  -1709052.49447                  22456076.8564
        48.5004         33.5004
  23851878.7514    6146836.23849   4770339.86446                  23851876.6604
        42.5004         22.2504
  21163369.1664     702694.75049    543889.96648                  21163364.0154
        51.5004         39.7504
  22996693.8074   -5623058.55549  -4371995.03447                  22996691.9894
        42.2504         29.0004
 04  6 30 18 54 49.9990000  0  8G 3G14G15G18G19G21G22G25
  22907369.0474    2987379.09049   2319279.09247                  22907368.6064
        45.5004         29.0004
  20011756.3954   -1694368.44149  -1313114.16448                  20011752.9314
        52.2504         45.7504
  20178606.6244    1126465.20749    876274.53148                  20178604.4884
        51.7504         43.0004
  23059700.0744    3225475.86349   2501818.08347                  23059697.5594
        45.0004         28.2504
  22454950.5394   -2211138.78149  -1713684.90147                  22454945.6344
        47.7504         34.0004
  23857020.8494    6173862.91849   4791399.53846                  23857019.9884
        42.7504         22.5004
  21163701.5014     704442.41049    545251.79248                  21163696.5594
        51.0004         40.2504
  22988795.5334   -5664564.55949  -4404337.31947                  22988794.2284
        41.0004         29.0004
 04  6 30 18 54 59.9990000  0  8G 3G14G15G18G19G21G22G25
  22910038.2364    3001402.13749   2330206.10947                  22910036.9634
        45.2504         29.0004
  20010886.1444   -1698941.62549  -1316677.69448                  20010882.4064
        51.5004         46.0004
  20180199.2734    1134833.01249    882794.88848                  20180196.6984
        50.5004         43.2504
  23062044.7824    3237794.10249   2511416.67247                  23062041.9444
        45.5004         28.0004
  22453825.0884   -2217050.69149  -1718291.60647                  22453820.6844
        47.5004         33.7504
  23862162.8864    6200883.07849   4812454.14046                  23862161.5384
        41.7504         22.5004
  21164031.7294     706178.62149    546604.67348                  21164027.0774
        50.2504         40.0004
  22980894.6164   -5706084.01249  -4436690.14247                  22980893.9214
        41.0004         28.2504
 04  6 30 18 55  9.9990000  0  8G 3G14G15G18G19G21G22G25
  22912707.0534    3015427.02749   2341134.59947                  22912705.5514
        46.5004         30.0004
  20010020.3874   -1703490.23849  -1320222.06448                  20010016.9134
        51.7504         46.0004
  20181797.4484    1143232.14149    889339.65148                  20181794.8124
        51.5004         42.7504
  23064385.9104    3250098.19949   2521004.24847                  23064383.4394
        46.5004         27.5004
  22452706.8404   -2222927.81649  -1722871.18847                  22452702.0434
        47.2504         33.0004
  23867303.5064    6227898.42649   4833504.95846                  23867302.6184
        42.5004         23.0004
  21164360.4684     707905.30549    547950.14248                  21164356.0964
        51.0004         39.7504
  22972991.2924   -5747614.94549  -4469051.88347                  22972990.7894
        42.5004         30.5004
 04  6 30 18 55 19.9990000  0  8G 3G14G15G18G19G21G22G25
  22915375.0744    3029452.95749   2352063.87847                  22915374.8484
        45.5004         30.2504
  20009159.6854   -1708015.09049  -1323747.92548                  20009156.0864
        52.5004         45.7504
  20183401.5764    1151661.82449    895908.23348                  20183398.8174
        51.5004         42.7504
  23066724.1814    3262387.37949   2530580.22347                  23066721.5744
        44.7504         27.0004
  22451594.7374   -2228770.90649  -1727424.27047                  22451589.9664
        47.7504         33.0004
  23872443.3304    6254908.12949   4854551.41946                  23872442.7564
        41.2504         22.5004
  21164687.1584     709621.62949    549287.52748                  21164682.6364
        50.2504         40.0004
  22965086.5124   -5789157.96549  -4501423.00747                  22965085.4324
        42.7504         31.2504
 04  6 30 18 55 29.9990000  0  7G 3G14G15G18G19G22G25
  22918045.2364    3043482.43849   2362995.90747                  22918044.2884
        45.7504         30.2504
  20008303.3504   -1712513.50449  -1327253.18348                  20008300.1854
        51.7504         45.7504
  20185012.1994    1160124.65249    902502.63748                  20185009.5764
        51.0004         43.0004
  23069060.5864    3274664.27749   2540146.62547                  23069057.3614
        45.2504         25.7504
  22450490.3714   -2234577.38749  -1731948.79247                  22450485.6114
        47.0004         32.7504
  21165012.0974     711330.30949    550618.97248                  21165007.5034
        50.5004         39.5004
  22957178.7434   -5830710.34449  -4533801.47347                  22957178.3574
        42.5004         30.2504
 04  6 30 18 55 39.9990000  0  7G 3G14G15G18G19G22G25
  22920715.6344    3057515.03549   2373930.38847                  22920714.5114
        45.5004         29.7504
  20007452.5204   -1716985.88349  -1330738.15048                  20007449.4034
        52.2504         45.5004
  20186628.3374    1168620.31349    909122.63248                  20186626.1534
        51.0004         43.0004
  23071393.7674    3286928.56649   2549703.18947                  23071391.9824
        46.5004         27.5004
  22449391.7154   -2240347.54349  -1736445.01547                  22449387.0694
        46.2504         32.5004
  21165335.7584     713031.02049    551944.20248                  21165331.1574
        51.0004         39.5004
  22949269.9074   -5872272.27049  -4566187.35947                  22949269.1724
        42.0004         29.0004
 04  6 30 18 55 49.9990000  0  7G 3G14G15G18G19G22G25
  22923384.9094    3071548.71949   2384865.69847                  22923385.2724
        45.0004         29.2504
  20006605.7454   -1721434.21149  -1334204.40048                  20006602.1594
        52.0004         45.2504
  20188251.3604    1177146.88349    915766.68848                  20188249.0174
        51.0004         42.5004
  23073725.6754    3299178.38349   2559248.45347                  23073722.5824
        45.2504         27.2504
  22448300.1484   -2246083.41049  -1740914.55747                  22448296.0494
        45.0004         32.7504
  21165657.5864     714721.85949    553261.71948                  21165652.9704
        50.7504         39.7504
  22941358.6164   -5913845.60949  -4598582.14947                  22941358.8844
        41.5004         30.0004
 04  6 30 18 55 59.9990000  0  7G 3G14G15G18G19G22G25
  22926057.2794    3085589.93049   2395806.90147                  22926056.9634
        44.2504         28.5004
  20005765.4174   -1725852.03949  -1337646.84948                  20005761.6854
        51.7504         45.5004
  20189880.6914    1185710.86349    922439.92548                  20189878.2284
        51.2504         43.2504
  23076054.6474    3311420.23449   2568787.52147                  23076052.2664
        45.5004         27.2504
  22447216.3104   -2251778.40649  -1745352.20647                  22447212.4794
        46.0004         32.5004
  21165978.5464     716409.36349    554576.66548                  21165974.1084
        50.2504         39.7504
  22933446.5064   -5955423.72349  -4630980.63347                  22933446.2414
        41.5004         29.2504
 04  6 30 18 56  9.9990000  0  7G 3G14G15G18G19G22G25
  22928730.6084    3099632.67649   2406749.28147                  22928729.0374
        44.7504         29.7504
  20004929.2194   -1730245.26649  -1341070.15048                  20004925.6384
        51.7504         45.7504
  20191516.4734    1194306.34049    929137.68448                  20191513.9594
        51.5004         43.2504
  23078381.5134    3323648.30149   2578315.88347                  23078379.1844
        45.7504         26.0004
  22446139.4834   -2257438.50849  -1749762.68147                  22446135.6914
        45.5004         33.0004
  21166298.0064     718087.70349    555884.46248                  21166293.9424
        50.2504         39.5004
  22925532.1744   -5997012.35549  -4663387.34547                  22925531.6044
        42.5004         29.0004
 04  6 30 18 56 19.9990000  0  7G 3G14G15G18G19G22G25
  22931402.0584    3113671.64549   2417688.73347                  22931401.2224
        44.0004         29.5004
  20004097.0134   -1734619.18749  -1344478.40848                  20004093.2894
        51.7504         46.0004
  20193157.1144    1202928.04749    935855.89748                  20193154.8414
        51.0004         43.2504
  23080705.3274    3335857.30949   2587829.37647                  23080702.2144
        44.5004         26.5004
  22445068.1494   -2263068.97749  -1754150.06347                  22445064.2784
        45.5004         33.7504
  21166614.4554     719751.59449    557180.99848                  21166610.2384
        50.0004         39.5004
  22917614.9974   -6038616.69949  -4695806.29447                  22917614.3334
        41.5004         29.0004
 04  6 30 18 56 29.9990000  0  7G 3G14G15G18G19G22G25
  22934073.6194    3127714.40249   2428631.12747                  22934072.8804
        43.5004         28.5004
  20003269.2914   -1738966.16449  -1347865.65248                  20003265.7854
        51.7504         45.5004
  20194804.4934    1211583.64149    942600.50448                  20194801.9114
        52.0004         43.0004
  23083025.9054    3348055.00449   2597334.04047                  23083023.4054
        45.5004         25.7504
  22444003.7924   -2268662.19949  -1758508.41847                  22443999.4944
        46.5004         34.5004
  21166929.9934     721408.73449    558472.26947                  21166925.2194
        50.7504         39.2504
  22909696.7604   -6080228.89549  -4728231.35247                  22909695.6814
        42.2504         29.0004
 04  6 30 18 56 39.9990000  0  7G 3G14G15G18G19G22G25
  22936747.2584    3141759.19549   2439575.07447                  22936745.9804
        44.7504         29.2504
  20002447.1224   -1743287.94149  -1351233.28048                  20002443.7614
        51.7504         45.0004
  20196457.5004    1220271.41849    949370.19548                  20196455.1044
        51.7504         42.5004
  23085344.7984    3360239.68449   2606828.59047                  23085342.2954
        44.5004         26.5004
  22442946.0814   -2274219.78149  -1762839.00947                  22442942.2084
        47.0004         34.0004
  21167243.7554     723057.50449    559757.02347                  21167238.9524
        50.5004         39.2504
  22901775.8504   -6121850.55549  -4760663.78547                  22901775.1084
        41.7504         28.7504
 04  6 30 18 56 49.9990000  0  7G 3G14G15G18G19G22G25
  22939419.9504    3155808.91849   2450522.91247                  22939419.1634
        45.2504         29.5004
  20001630.1574   -1747581.55949  -1354578.95248                  20001626.4334
        51.5004         45.2504
  20198117.3244    1228994.39549    956167.31748                  20198115.4054
        51.7504         43.0004
  23087661.2764    3372414.48049   2616315.40247                  23087658.4894
        44.0004         27.5004
  22441895.5404   -2279738.77749  -1767139.53147                  22441891.7904
        47.0004         34.0004
  21167556.4174     724700.85249    561037.56147                  21167551.5654
        50.2504         39.2504
  22893854.3724   -6163478.53549  -4793101.13247                  22893853.4264
        41.5004         28.5004
 04  6 30 18 56 59.9990000  0  7G 3G14G15G18G19G22G25
  22942094.6884    3169862.01249   2461473.34947                  22942093.6814
        45.0004         28.7504
  20000817.9544   -1751848.46149  -1357903.81148                  20000814.3024
        51.5004         44.5004
  20199783.6334    1237751.10549    962990.70348                  20199781.4354
        51.7504         42.5004
  23089976.0884    3384577.82449   2625793.31347                  23089974.1654
        45.0004         27.2504
  22440852.8874   -2285220.72349  -1771411.19047                  22440848.9934
        47.0004         32.7504
  21167867.9074     726337.38349    562312.76947                  21167862.9974
        50.7504         39.0004
  22885931.6074   -6205114.09049  -4825544.40147                  22885929.9664
        41.0004         27.7504
 04  6 30 18 57  9.9990000  0  7G 3G14G15G18G19G22G25
  22944769.3244    3183915.80149   2472424.34047                  22944767.8834
        44.0004         30.5004
  20000010.9854   -1756091.31649  -1361209.94748                  20000007.1514
        52.2504         45.2504
  20201456.2634    1246538.93049    969838.35448                  20201453.8694
        51.7504         43.0004
  23092288.1494    3396727.20749   2635260.34847                  23092286.1454
        44.7504         26.5004
  22439815.8644   -2290668.21149  -1775655.99147                  22439812.1774
        46.5004         33.2504
  21168177.6654     727964.55549    563580.68547                  21168173.2144
        50.7504         39.2504
  22878007.1404   -6246759.69549  -4857995.54647                  22878004.2704
        41.0004         27.0004
 04  6 30 18 57 19.9990000  0  7G 3G14G15G18G19G22G25
  22947443.1984    3197968.37549   2483374.39147                  22947442.6724
        45.2504         31.0004
  19999207.6824   -1760312.03149  -1364498.82248                  19999203.7314
        52.0004         45.0004
  20203133.8214    1255355.98049    976708.76848                  20203131.3414
        51.2504         43.0004
  23094597.2604    3408860.84449   2644715.10647                  23094595.3014
        44.5004         27.7504
  22438785.7524   -2296083.12949  -1779875.43147                  22438781.7944
        46.7504         34.0004
  21168485.4064     729580.50449    564839.86047                  21168480.2104
        50.5004         39.0004
  22870079.2204   -6288417.08649  -4890455.77747                  22870077.7284
        42.0004         27.5004
 04  6 30 18 57 29.9990000  0  7G 3G14G15G18G19G22G25
  22950117.4364    3212021.05149   2494324.52447                  22950116.6944
        46.0004         32.7504
  19998409.1714   -1764509.19549  -1367769.33148                  19998405.4464
        51.5004         45.7504
  20204817.6134    1264203.71949    983603.11948                  20204815.5954
        51.7504         43.2504
  23096903.2774    3420980.16449   2654158.72847                  23096901.3724
        43.0004         28.0004
  22437761.6964   -2301463.98849  -1784068.27447                  22437757.4764
        47.2504         33.5004
  21168790.9934     731186.68849    566091.44748                  21168786.4904
        49.7504         39.5004
  22862150.5004   -6330084.74649  -4922924.05947                  22862148.7524
        42.0004         27.7504
 04  6 30 18 57 39.9990000  0  7G 3G14G15G18G19G22G25
  22952792.9394    3226078.10249   2505278.05447                  22952791.6934
        45.2504         32.0004
  19997615.5484   -1768678.44949  -1371018.11048                  19997611.9864
        51.5004         45.2504
  20206507.7864    1273086.44949    990524.70848                  20206505.5254
        52.0004         43.0004
  23099207.6464    3433089.57449   2663594.57147                  23099205.9694
        43.5004         26.2504
  22436744.6144   -2306806.52349  -1788231.32247                  22436741.0834
        46.0004         33.2504
  21169095.3854     732787.52049    567338.83147                  21169090.2524
        50.0004         39.0004
  22854221.0264   -6371758.22749  -4955396.89847                  22854218.3384
        43.2504         27.5004
 04  6 30 18 57 49.9990000  0  7G 3G14G15G18G19G22G25
  22955467.4674    3240136.05549   2516232.27147                  22955466.9824
        46.5004         32.2504
  19996826.8324   -1772823.20749  -1374247.78448                  19996822.9864
        52.0004         45.2504
  20208203.9434    1282000.82849    997470.97948                  20208201.6304
        51.5004         42.5004
  23101509.7724    3445185.71549   2673020.13947                  23101507.3914
        42.7504         25.7504
  22435735.2084   -2312114.19149  -1792367.15947                  22435731.1454
        47.2504         33.5004
  21169398.6274     734379.62549    568579.43247                  21169393.7714
        49.2504         38.5004
  22846288.2124   -6413440.80149  -4987876.78447                  22846286.3694
        44.0004         27.5004
 04  6 30 18 57 59.9990000  0  7G 3G14G15G18G19G22G25
  22958142.2644    3254190.30149   2527183.61247                  22958141.4684
        45.7504         31.5004
  19996041.7274   -1776948.06649  -1377461.95848                  19996038.3374
        51.5004         45.2504
  20209905.6184    1290942.33649   1004438.37948                  20209903.2664
        51.0004         42.5004
  23103808.5554    3457264.00849   2682431.78147                  23103806.4794
        44.5004         26.7504
  22434731.0464   -2317391.50049  -1796479.35347                  22434726.6154
        46.5004         33.5004
  21169698.8924     735958.51649    569809.73447                  21169694.3224
        50.0004         38.5004
  22838354.1254   -6455136.83249  -5020367.16447                  22838352.2034
        43.5004         28.0004
 04  6 30 18 58  9.9990000  0  7G 3G14G15G18G19G22G25
  22960816.7384    3268247.10549   2538136.95547                  22960816.5864
        45.5004         30.2504
  19995262.1904   -1781046.69549  -1380655.69948                  19995258.2824
        52.0004         44.7504
  20211613.4314    1299917.23049   1011431.79948                  20211611.4474
        51.2504         41.7504
  23106104.7904    3469330.94149   2691834.56947                  23106102.6474
        45.0004         27.0004
  22433733.8264   -2322632.03949  -1800562.89347                  22433729.9064
        47.5004         34.0004
  21169998.1264     737530.61349    571034.74347                  21169992.9634
        50.5004         38.5004
  22830417.9524   -6496839.88349  -5052863.01547                  22830417.2834
        42.5004         28.0004
 04  6 30 18 58 19.9990000  0  7G 3G14G15G18G19G22G25
  22963492.2864    3282306.51249   2549092.32547                  22963491.9274
        46.0004         31.5004
  19994486.9614   -1785119.03549  -1383828.94348                  19994483.1644
        52.5004         45.5004
  20213327.7134    1308925.70349   1018451.38848                  20213325.7424
        51.5004         42.0004
  23108398.7474    3481386.57449   2701228.54647                  23108396.9884
        44.0004         28.5004
  22432743.4194   -2327835.72349  -1804617.71647                  22432739.4084
        47.2504         33.5004
  21170295.9844     739096.01249    572254.52747                  21170291.0074
        50.0004         38.5004
  22822481.0184   -6538549.66049  -5085364.11347                  22822480.2064
        43.5004         28.5004
 04  6 30 18 58 29.9990000  0  7G 3G14G15G18G19G22G25
  22966168.1924    3296368.72749   2560049.86947                  22966167.9684
        45.2504         30.0004
  19993717.2924   -1789164.88749  -1386981.56348                  19993713.3364
        52.2504         45.5004
  20215048.3524    1317967.99649   1025497.31448                  20215046.1194
        51.7504         42.2504
  23110690.8984    3493431.21149   2710613.95547                  23110689.0724
        45.0004         29.0004
  22431760.5394   -2333002.35249  -1808643.67147                  22431756.1014
        47.5004         33.0004
  21170592.8164     740655.01649    573469.33147                  21170587.7234
        50.2504         38.2504
  22814542.6734   -6580265.75449  -5117870.13247                  22814541.7384
        44.0004         28.5004
 04  6 30 18 58 39.9990000  0  7G 3G14G15G18G19G22G25
  22968844.9254    3310434.55549   2571010.23147                  22968844.5184
        45.2504         29.5004
  19992952.6284   -1793183.28949  -1390112.78848                  19992948.9684
        51.7504         45.7504
  20216775.7104    1327044.96149   1032570.26348                  20216773.7624
        52.0004         43.0004
  23112980.6004    3505465.74649   2719991.48447                  23112978.9944
        45.7504         29.0004
  22430784.5304   -2338131.03949  -1812640.06347                  22430780.4694
        47.5004         34.0004
  21170888.5374     742208.55949    574679.87547                  21170883.6654
        50.0004         38.5004
  22806603.1794   -6621987.14549  -5150380.26847                  22806602.5964
        43.7504         28.5004
 04  6 30 18 58 49.9990000  0  7G 3G14G15G18G19G22G25
  22971520.7784    3324497.91049   2581968.67447                  22971520.3804
        45.5004         28.7504
  19992192.1504   -1797180.36349  -1393227.38748                  19992188.1854
        52.5004         46.0004
  20218508.6494    1336150.64149   1039665.59548                  20218506.4454
        51.5004         43.0004
  23115268.0264    3517484.26649   2729356.52647                  23115265.8644
        44.5004         27.7504
  22429814.5304   -2343227.77049  -1816611.54847                  22429810.4024
        48.5004         33.0004
  21171182.0194     743750.71149    575881.54547                  21171177.0844
        50.0004         38.5004
  22798661.4144   -6663719.79349  -5182899.19847                  22798661.3804
        43.7504         30.0004
 04  6 30 18 58 59.9990000  0  7G 3G14G15G18G19G22G25
  22974197.6164    3338564.12149   2592929.32047                  22974196.9214
        45.5004         28.7504
  19991436.3534   -1801150.64149  -1396321.10648                  19991432.7824
        52.0004         45.5004
  20220247.8934    1345290.47749   1046787.53948                  20220245.5324
        51.5004         43.0004
  23117552.4644    3529492.32049   2738713.43347                  23117551.1254
        44.0004         28.5004
  22428851.6934   -2348287.11749  -1820553.90947                  22428847.6734
        48.0004         33.5004
  21171473.9124     745286.92649    577078.59947                  21171469.6014
        50.0004         38.5004
  22790718.5414   -6705458.05549  -5215422.50847                  22790718.4184
        45.0004         29.5004
 04  6 30 18 59  9.9990000  0  7G 3G14G15G18G19G22G25
  22976874.5274    3352631.70349   2603891.08047                  22976873.3974
        44.7504         28.0004
  19990685.6494   -1805095.60949  -1399395.11048                  19990681.6924
        52.0004         45.5004
  20221993.1884    1354463.02749   1053934.97748                  20221991.1054
        52.0004         43.0004
  23119836.4424    3541488.44949   2748061.04947                  23119833.8154
        45.5004         29.7504
  22427895.8404   -2353310.57049  -1824468.28147                  22427891.6614
        47.2504         32.7504
  21171765.2884     746815.78949    578269.91947                  21171760.6814
        51.0004         38.0004
  22782775.3324   -6747203.20749  -5247951.15647                  22782774.8554
        45.0004         29.5004
 04  6 30 18 59 19.9990000  0  7G 3G14G15G18G19G22G25
  22979551.2794    3366700.20349   2614853.52547                  22979550.4424
        44.5004         26.5004
  19989939.6484   -1809015.66849  -1402449.70448                  19989935.7044
        52.0004         45.2504
  20223744.9774    1363667.89149   1061107.58048                  20223742.6444
        51.5004         42.5004
  23122116.2514    3553472.35549   2757399.12847                  23122114.2454
        45.7504         29.2504
  22426946.6034   -2358298.48049  -1828354.98947                  22426942.3324
        48.0004         32.5004
  21172054.6634     748337.00049    579455.26647                  21172049.8374
        50.0004         37.5004
  22774829.9934   -6788955.52749  -5280485.41547                  22774829.2784
        45.7504         29.0004
 04  6 30 18 59 29.9990000  0  7G 3G14G15G18G19G22G25
  22982228.3254    3380767.96949   2625815.42047                  22982227.6474
        45.0004         27.7504
  19989198.0314   -1812912.37949  -1405486.09848                  19989194.4164
        52.5004         45.5004
  20225502.5574    1372903.48849   1068304.14248                  20225500.1294
        52.0004         43.5004
  23124394.3034    3565442.48449   2766726.48347                  23124392.1384
        44.0004         30.0004
  22426003.7014   -2363252.39849  -1832215.19047                  22425999.7214
        47.5004         32.5004
  21172342.5334     749848.94549    580633.40047                  21172337.7074
        49.0004         37.7504
  22766883.3294   -6830716.48449  -5313026.39147                  22766882.3164
        45.5004         30.2504
 04  6 30 18 59 39.9990000  0  7G 3G14G15G18G19G22G25
  22984904.7594    3394835.06649   2636776.76647                  22984904.1344
        44.5004         28.7504
  19988461.1054   -1816785.59449  -1408504.19248                  19988457.7314
        52.2504         45.5004
  20227265.9474    1382170.01249   1075524.80148                  20227263.7854
        51.7504         43.0004
  23126669.5284    3577399.03949   2776043.27647                  23126667.2494
        45.5004         30.0004
  22425067.9574   -2368172.24249  -1836048.83647                  22425063.4314
        47.0004         32.7504
  21172628.2524     751351.91049    581804.53947                  21172623.7264
        49.7504         37.7504
  22758935.0424   -6872485.69549  -5345573.82547                  22758933.9924
        45.7504         30.0004
 04  6 30 18 59 49.9990000  0  7G 3G14G15G18G19G22G25
  22987583.4074    3408908.07049   2647742.72047                  22987581.5404
        45.0004         28.5004
  19987729.9764   -1820628.75449  -1411498.86348                  19987726.3984
        52.5004         45.7504
  20229036.4434    1391474.11749   1082774.75048                  20229033.9914
        51.7504         43.2504
  23128942.9864    3589348.72349   2785354.67747                  23128941.9804
        44.7504         30.2504
  22424139.4944   -2373051.33249  -1839850.74247                  22424135.5614
        47.2504         33.5004
  21172914.2684     752852.58649    582973.89947                  21172909.3114
        50.0004         37.7504
  22750986.4044   -6914256.48049  -5378122.47547                  22750985.2934
        46.2504         29.7504
 04  6 30 18 59 59.9990000  0  7G 3G14G15G18G19G22G25
  22990262.2544    3422984.64549   2658711.47247                  22990260.6204
        45.7504         28.7504
  19987003.6744   -1824444.16449  -1414471.90748                  19986999.9074
        52.0004         45.7504
  20230813.9134    1400813.45749   1090052.14348                  20230811.3864
        52.5004         43.5004
  23131215.7034    3601289.17649   2794658.91147                  23131213.0914
        45.5004         30.5004
  22423218.2324   -2377892.03549  -1843622.72447                  22423214.1204
        47.7504         33.0004
  21173198.4314     754348.66849    584139.67147                  21173193.6304
        49.7504         37.5004
  22743036.8214   -6956031.01649  -5410674.02647                  22743036.0504
        45.7504         31.0004
 04  6 30 19  0  9.9990000  0  7G 3G14G15G18G19G22G25
  22992941.9894    3437063.78549   2669682.22447                  22992940.4714
        46.5004         29.0004
  19986282.8544   -1828232.77049  -1417424.05948                  19986279.0784
        51.5004         45.5004
  20232597.7214    1410187.17249   1097356.34348                  20232595.5204
        51.7504         43.0004
  23133485.9394    3613219.56349   2803955.28947                  23133483.8694
        45.2504         30.0004
  22422304.0424   -2382695.23049  -1847365.47247                  22422300.0894
        47.0004         32.7504
  21173482.4514     755839.34849    585301.24147                  21173477.4604
        49.5004         37.5004
  22735086.5654   -6997809.86749  -5443228.94147                  22735085.4104
        46.5004         31.0004
 04  6 30 19  0 19.9990000  0  7G 3G14G15G18G19G22G25
  22995621.5414    3451144.16849   2680653.93147                  22995619.8084
        46.5004         29.0004
  19985566.9474   -1831995.79749  -1420356.28648                  19985563.0514
        52.5004         45.5004
  20234387.5854    1419594.00449   1104686.33648                  20234385.4604
        52.0004         43.0004
  23135754.0884    3625138.73049   2813242.94147                  23135751.9144
        45.2504         29.5004
  22421396.1724   -2387462.19149  -1851079.98947                  22421392.0124
        46.5004         32.7504
  21173764.4164     757323.33649    586457.58447                  21173759.4724
        49.0004         37.7504
  22727135.5054   -7039594.29349  -5475788.21347                  22727133.8294
        46.2504         30.5004
 04  6 30 19  0 29.9990000  0  7G 3G14G15G18G19G22G25
  22998301.9244    3465229.03549   2691629.11147                  22998300.4584
        45.0004         29.2504
  19984856.2654   -1835730.02049  -1423266.07948                  19984852.6304
        52.0004         45.0004
  20236184.8904    1429037.21149   1112044.66848                  20236182.3024
        52.2504         43.0004
  23138021.1024    3637050.05149   2822524.46047                  23138018.3594
        45.5004         29.5004
  22420497.5224   -2392189.60949  -1854763.71947                  22420492.9704
        47.5004         31.7504
  21174046.4764     758803.99649    587611.32747                  21174041.5874
        48.7504         37.2504
  22719183.5464   -7081380.88349  -5508349.18447                  22719181.9444
        46.5004         30.5004
 04  6 30 19  0 39.9990000  0  7G 3G14G15G18G19G22G25
  23000982.4844    3479316.96149   2702606.68547                  23000981.5834
        46.0004         29.7504
  19984150.7804   -1839436.89849  -1426154.55648                  19984147.1034
        52.0004         45.2504
  20237988.3014    1438515.48049   1119430.32648                  20237986.1514
        51.5004         43.0004
  23140286.4954    3648952.18049   2831798.84747                  23140283.3174
        45.0004         29.7504
  22419605.2334   -2396878.92649  -1858417.72747                  22419600.9994
        47.5004         32.2504
  21174327.5404     760280.10549    588761.55247                  21174322.5264
        49.5004         37.2504
  22711231.0134   -7123170.82849  -5540912.74447                  22711229.5084
        45.5004         30.5004
 04  6 30 19  0 49.9990000  0  7G 3G14G15G18G19G22G25
  23003664.6384    3493407.27349   2713586.11947                  23003662.6664
        46.5004         29.5004
  19983450.5804   -1843116.93749  -1429022.12248                  19983447.2394
        52.5004         45.0004
  20239798.7654    1448028.24249   1126842.85548                  20239796.2514
        51.7504         42.7504
  23142549.3424    3660844.56649   2841065.63247                  23142547.0774
        45.0004         30.0004
  22418719.8934   -2401530.66049  -1862042.47147                  22418715.7344
        47.2504         32.5004
  21174607.2034     761751.03149    589907.71847                  21174602.1754
        49.2504         36.7504
  22703277.6984   -7164964.51649  -5573479.22447                  22703276.3864
        45.7504         31.7504
 04  6 30 19  0 59.9990000  0  7G 3G14G15G18G19G22G25
  23006346.6514    3507501.44549   2724568.57847                  23006344.5164
        46.7504         30.0004
  19982755.5444   -1846768.55949  -1431867.53048                  19982751.9704
        52.0004         45.2504
  20241615.3444    1457577.00049   1134283.44348                  20241612.9674
        51.7504         43.0004
  23144810.3594    3672728.82849   2850326.05547                  23144807.9974
        44.0004         31.0004
  22417841.6334   -2406143.21149  -1865636.66747                  22417837.3794
        47.0004         32.5004
  21174886.0954     763218.39149    591051.11947                  21174881.3684
        49.0004         37.7504
  22695324.1724   -7206760.35249  -5606047.36747                  22695323.3034
        44.5004         32.0004
 04  6 30 19  1  9.9990000  0  7G 3G14G15G18G19G22G25
  23009028.9974    3521599.50449   2735554.09347                  23009027.8644
        46.2504         30.5004
  19982066.2074   -1850391.69149  -1434690.76448                  19982062.2324
        52.0004         45.2504
  20243439.3224    1467161.90249   1141752.18848                  20243436.5634
        52.0004         42.5004
  23147070.5964    3684605.07849   2859580.25347                  23147068.8384
        45.7504         31.0004
  22416972.0144   -2410716.53949  -1869200.29647                  22416967.4664
        47.0004         33.5004
  21175165.0634     764682.25849    592191.78547                  21175159.9964
        49.5004         38.0004
  22687370.3674   -7248557.96949  -5638616.91247                  22687369.2904
        45.7504         31.7504
 04  6 30 19  1 19.9990000  0  7G 3G14G15G18G19G22G25
  23011712.3714    3535701.68849   2746542.78047                  23011711.1454
        46.2504         29.5004
  19981382.1364   -1853986.12549  -1437491.62248                  19981378.3564
        51.7504         44.7504
  20245270.2934    1476783.24649   1149249.33148                  20245268.5404
        51.5004         42.5004
  23149329.2034    3696473.71949   2868828.52247                  23149326.9874
        44.7504         30.2504
  22416108.6764   -2415250.37549  -1872733.18247                  22416104.9024
        47.0004         32.5004
  21175442.9934     766143.09849    593330.09947                  21175438.1004
        49.0004         37.5004
  22679416.1774   -7290356.96149  -5671187.53647                  22679415.9154
        45.7504         31.2504
 04  6 30 19  1 29.9990000  0  7G 3G14G15G18G19G22G25
  23014396.8174    3549804.92649   2757532.31847                  23014395.0244
        46.0004         29.7504
  19980702.7684   -1857554.82049  -1440272.41548                  19980699.4494
        51.0004         44.7504
  20247107.8324    1486438.00449   1156772.51448                  20247105.2254
        51.2504         42.2504
  23151585.5234    3708331.68449   2878068.49047                  23151583.1844
        44.7504         31.0004
  22415253.3294   -2419747.82449  -1876237.67647                  22415249.1024
        47.0004         32.7504
  21175719.7714     767597.87949    594463.68847                  21175714.8164
        48.5004         37.2504
  22671461.6624   -7332160.17649  -5703761.43847                  22671460.3184
        45.0004         31.5004
 04  6 30 19  1 39.9990000  0  7G 3G14G15G18G19G22G25
  23017079.7104    3563911.39149   2768524.33147                  23017079.2134
        46.2504         28.5004
  19980029.3474   -1861095.55949  -1443031.44448                  19980025.5844
        52.0004         44.2504
  20248951.7984    1496128.45349   1164323.49648                  20248949.4564
        51.2504         42.2504
  23153840.8744    3720181.25449   2887301.90447                  23153838.3664
        44.7504         29.7504
  22414404.7684   -2424206.57449  -1879712.04647                  22414400.3234
        46.7504         32.2504
  21175996.4454     769048.84849    595594.30447                  21175991.0324
        48.5004         36.5004
  22663506.1114   -7373965.25849  -5736336.79747                  22663505.6124
        43.5004         31.0004
 04  6 30 19  1 49.9990000  0  7G 3G14G15G18G19G22G25
  23019765.2764    3578020.75049   2779518.64247                  23019763.9344
        45.7504         28.7504
  19979360.6074   -1864608.62549  -1445768.88848                  19979357.3054
        51.2504         44.7504
  20250802.2314    1505854.28949   1171902.06448                  20250800.0524
        51.5004         42.5004
  23156093.8124    3732022.35549   2896528.72447                  23156091.5244
        44.7504         29.7504
  22413563.6704   -2428626.87949  -1883156.44447                  22413558.8234
        47.2504         33.7504
  21176271.5754     770495.88749    596721.87547                  21176266.4384
        49.5004         37.2504
  22655550.0734   -7415772.36749  -5768913.72747                  22655549.8654
        43.7504         30.7504
 04  6 30 19  1 59.9990000  0  7G 3G14G15G18G19G22G25
  23022450.9164    3592132.30549   2790514.66247                  23022449.1104
        46.0004         28.5004
  19978696.9694   -1868094.73049  -1448485.33348                  19978693.4534
        52.0004         44.2504
  20252659.5994    1515614.90649   1179507.72448                  20252657.5394
        51.0004         42.5004
  23158345.6214    3743854.28549   2905748.40647                  23158343.4494
        43.2504         29.2504
  22412729.5924   -2433009.32049  -1886571.33647                  22412725.4814
        46.5004         33.5004
  21176545.8954     771938.39149    597845.89547                  21176540.9134
        50.0004         36.7504
  22647593.9814   -7457581.95349  -5801492.61447                  22647594.2054
        44.5004         31.2504
 04  6 30 19  2  9.9990000  0  7G 3G14G15G18G19G22G25
  23025136.2264    3606246.87149   2801512.99247                  23025134.7494
        46.0004         28.7504
  19978039.1234   -1871553.05149  -1451180.12748                  19978036.0274
        51.0004         44.5004
  20254524.0294    1525411.18849   1187141.19148                  20254521.6644
        51.2504         42.5004
  23160594.7414    3755677.93449   2914961.61747                  23160593.0114
        42.5004         28.0004
  22411903.1404   -2437353.10949  -1889956.10647                  22411898.7684
        46.0004         33.7504
  21176819.5314     773377.25449    598967.09047                  21176815.1234
        49.0004         37.5004
  22639637.6094   -7499393.00449  -5834072.61747                  22639637.4244
        44.7504         31.5004
 04  6 30 19  2 19.9990000  0  7G 3G14G15G18G19G22G25
  23027823.3494    3620366.80549   2812515.52047                  23027822.1614
        45.5004         28.0004
  19977386.5374   -1874981.05549  -1453851.30548                  19977383.2864
        51.2504         44.2504
  20256395.6624    1535245.69549   1194804.43148                  20256393.6164
        51.5004         42.5004
  23162843.5094    3767495.93849   2924170.43147                  23162841.8744
        42.5004         29.0004
  22411084.2494   -2441655.75849  -1893308.83147                  22411080.1184
        45.5004         34.0004
  21177093.2494     774814.96549    600087.37347                  21177088.5964
        49.2504         37.5004
  22631681.6614   -7541202.86749  -5866651.70247                  22631681.4504
        45.0004         30.5004
 04  6 30 19  2 29.9990000  0  7G 3G14G15G18G19G22G25
  23030511.7324    3634491.64849   2823521.85747                  23030510.1014
        46.0004         28.7504
  19976740.0704   -1878379.20349  -1456499.22048                  19976736.4324
        51.2504         44.2504
  20258274.0564    1545117.96549   1202497.10348                  20258271.7584
        51.5004         42.5004
  23165092.1944    3779307.93049   2933374.56947                  23165089.6844
        41.0004         28.0004
  22410273.4044   -2445917.75049  -1896629.88447                  22410269.2634
        47.0004         34.0004
  21177366.3354     776251.23449    601206.53147                  21177361.7654
        49.0004         37.5004
  22623725.2144   -7583011.83249  -5899230.10347                  22623725.1874
        45.5004         31.0004
 04  6 30 19  2 39.9990000  0  7G 3G14G15G18G19G22G25
  23033199.4764    3648620.91449   2834531.67347                  23033198.5044
        45.7504         28.7504
  19976099.2684   -1881748.00449  -1459124.25848                  19976095.4944
        51.0004         44.0004
  20260160.0304    1555027.50449   1210218.80948                  20260157.5534
        51.2504         42.7504
  23167337.7774    3791113.46549   2942573.68047                  23167336.2124
        42.2504         28.0004
  22409469.9244   -2450139.54749  -1899919.59547                  22409465.2894
        46.2504         34.0004
  21177639.3314     777685.63749    602324.24347                  21177634.5754
        49.0004         37.5004
  22615769.6534   -7624820.30549  -5931808.11547                  22615768.9784
        45.0004         31.2504
 04  6 30 19  2 49.9990000  0  7G 3G14G15G18G19G22G25
  23035889.2704    3662753.11349   2845543.79047                  23035888.1334
        46.2504         28.7504
  19975462.9744   -1885088.82849  -1461727.50048                  19975459.7884
        50.2504         43.5004
  20262052.1734    1564972.90249   1217968.46248                  20262049.7574
        51.5004         42.5004
  23169583.2344    3802911.19149   2951766.68847                  23169581.5664
        42.2504         27.7504
  22408674.0154   -2454322.48049  -1903179.02547                  22408669.7444
        45.2504         33.5004
  21177911.9284     779116.85949    603439.47047                  21177907.2154
        50.0004         37.0004
  22607813.4954   -7666629.53149  -5964386.71747                  22607812.9414
        45.5004         29.7504
 04  6 30 19  2 59.9990000  0  7G 3G14G15G18G19G22G25
  23038578.7264    3676887.91049   2856557.87247                  23038577.8214
        45.5004         29.0004
  19974832.5694   -1888402.03549  -1464309.21648                  19974829.1094
        51.0004         44.5004
  20263951.8054    1574953.87149   1225745.83948                  20263949.0934
        51.0004         43.2504
  23171826.2664    3814700.80549   2960953.40447                  23171825.1424
        42.0004         26.7504
  22407884.9244   -2458466.88749  -1906408.45347                  22407881.6244
        45.5004         33.5004
  21178183.5444     780544.53549    604551.94847                  21178178.7264
        50.0004         37.5004
  22599857.2684   -7708439.62549  -5996965.98247                  22599856.5364
        44.7504         30.0004
 04  6 30 19  3  9.9990000  0  7G 3G14G15G18G19G22G25
  23041269.3744    3691027.21949   2867575.51747                  23041268.4124
        45.0004         29.0004
  19974207.8604   -1891685.60949  -1466867.85448                  19974204.2304
        51.5004         44.7504
  20265858.2544    1584972.50849   1233552.55848                  20265855.6414
        51.7504         42.2504
  23174068.3904    3826484.48449   2970135.46547                  23174067.8384
        41.2504         27.2504
  22407103.7954   -2462570.72349  -1909606.27647                  22407099.8994
        47.7504         34.5004
  21178455.0944     781970.78149    605663.31147                  21178450.2004
        49.7504         37.0004
  22591901.6794   -7750248.37949  -6029544.20747                  22591900.5874
        44.5004         29.7504
 04  6 30 19  3 19.9990000  0  7G 3G14G15G18G19G22G25
  23043960.1094    3705168.01649   2878594.27847                  23043959.5104
        45.2504         29.0004
  19973588.2084   -1894942.51649  -1469405.71048                  19973584.6204
        51.0004         44.7504
  20267771.3054    1595025.80549   1241386.29948                  20267769.2034
        51.7504         43.0004
  23176309.8024    3838259.20749   2979310.57347                  23176308.3934
        41.2504         26.5004
  22406330.5494   -2466637.05949  -1912774.84347                  22406326.6104
        46.5004         34.7504
  21178725.4624     783392.71549    606771.30247                  21178720.6354
        48.7504         37.2504
  22583945.5564   -7792058.61349  -6062123.57247                  22583943.8584
        44.5004         29.7504
 04  6 30 19  3 29.9990000  0  7G 3G14G15G18G19G22G25
  23046650.9294    3719309.44549   2889613.57447                  23046650.7894
        44.7504         28.2504
  19972973.4524   -1898173.50449  -1471923.36548                  19972969.8134
        50.5004         44.2504
  20269690.8004    1605113.00449   1249246.44948                  20269688.1144
        51.0004         42.5004
  23178548.6194    3850024.34049   2988478.17747                  23178546.8644
        42.0004         27.2504
  22405563.6964   -2470666.56649  -1915914.71547                  22405560.2374
        43.2504         34.7504
  21178994.9184     784809.63749    607875.39247                  21178990.2554
        49.5004         37.5004
  22575988.5534   -7833870.97749  -6094704.59947                  22575987.4124
        45.0004         29.7504
 04  6 30 19  3 39.9990000  0  7G 3G14G15G18G19G22G25
  23049343.8714    3733458.17249   2900638.55047                  23049343.3744
        45.2504         29.0004
  19972364.7854   -1901371.99249  -1474415.69648                  19972361.3744
        50.7504         44.0004
  20271617.9864    1615240.79349   1257138.21748                  20271615.7454
        52.0004         42.7504
  23180786.8984    3861786.54749   2997643.52147                  23180785.1254
        42.7504         27.7504
  22404805.2644   -2474652.60549  -1919020.74047                  22404800.8364
        46.2504         33.5004
  21179264.6704     786228.30949    608980.84047                  21179259.8934
        49.0004         38.0004
  22568033.3524   -7875678.66049  -6127281.99547                  22568031.0654
        46.0004         30.0004
 04  6 30 19  3 49.9990000  0  7G 3G14G15G18G19G22G25
  23052035.6164    3747606.62549   2911663.29047                  23052035.6684
        44.2504         28.2504
  19971760.8574   -1904545.51649  -1476888.57648                  19971756.9194
        52.0004         44.7504
  20273551.6014    1625401.60949   1265055.73748                  20273549.1464
        52.0004         42.5004
  23183023.1614    3873538.40249   3006800.80647                  23183021.9454
        43.5004         28.0004
  22404053.9194   -2478602.75849  -1922098.79047                  22404049.6244
        47.2504         34.0004
  21179533.6774     787641.18849    610081.77547                  21179529.5464
        49.0004         37.5004
  22560076.9304   -7917488.99649  -6159861.44547                  22560074.4784
        44.7504         29.5004
 04  6 30 19  3 59.9990000  0  7G 3G14G15G18G19G22G25
  23054728.5884    3761757.69949   2922690.07747                  23054728.9494
        44.5004         28.7504
  19971162.2304   -1907691.04349  -1479339.64448                  19971158.6464
        51.2504         43.7504
  20275491.8934    1635598.50449   1273001.36148                  20275489.4284
        51.7504         42.5004
  23185257.8164    3885282.98849   3015952.39247                  23185256.6574
        42.5004         28.2504
  22403308.7984   -2482514.07449  -1925146.58347                  22403305.2704
        47.7504         33.5004
  21179802.3624     789051.32049    611180.57647                  21179797.4224
        48.7504         36.2504
  22552120.7754   -7959298.93749  -6192440.58547                  22552118.3344
        44.2504         28.5004
 04  6 30 19  4  9.9990000  0  7G 3G14G15G18G19G22G25
  23057422.8694    3775912.90649   2933720.07547                  23057423.0864
        44.5004         28.2504
  19970569.4774   -1910807.09449  -1481767.73048                  19970565.8284
        52.0004         44.5004
  20277440.2154    1645833.00449   1280976.29248                  20277437.7774
        52.0004         43.0004
  23187491.8344    3897021.81649   3025099.51247                  23187490.3274
        42.7504         27.7504
  22402572.7294   -2486384.84849  -1928162.76947                  22402569.2064
        48.0004         34.5004
  21180070.3234     790460.31649    612278.50447                  21180065.9044
        49.0004         37.0004
  22544165.2794   -8001106.69949  -6225018.02747                  22544162.5204
        43.7504         28.0004
 04  6 30 19  4 19.9990000  0  7G 3G14G15G18G19G22G25
  23060116.3504    3790071.41849   2944752.66547                  23060116.9894
        44.5004         28.2504
  19969981.8834   -1913894.32049  -1484173.37348                  19969978.0244
        52.0004         44.5004
  20279394.2624    1656104.47749   1288980.03148                  20279391.7104
        52.2504         42.5004
  23189724.7544    3908754.34449   3034241.75647                  23189722.3324
        42.5004         27.2504
  22401843.9604   -2490215.87549  -1931147.99247                  22401840.0264
        47.7504         33.7504
  21180338.4554     791867.57449    613375.05547                  21180333.0724
        49.2504         37.0004
  22536209.3634   -8042912.83249  -6257594.20047                  22536207.1264
        44.5004         29.0004
 04  6 30 19  4 29.9990000  0  7G 3G14G15G18G19G22G25
  23062812.4694    3804236.02049   2955790.02347                  23062812.4254
        44.0004         29.2504
  19969400.4024   -1916949.98049  -1486554.40648                  19969397.0264
        51.7504         45.0004
  20281356.5344    1666415.68049   1297014.73048                  20281354.1434
        51.5004         43.0004
  23191956.5484    3920483.33649   3043381.23247                  23191954.6994
        42.2504         28.5004
  22401123.1134   -2494004.33249  -1934100.05447                  22401118.9484
        47.7504         35.0004
  21180606.7464     793275.95349    614472.48047                  21180600.8634
        48.7504         37.5004
  22528254.6384   -8084714.37149  -6290166.80347                  22528252.3354
        44.7504         29.2504
 04  6 30 19  4 39.9990000  0  7G 3G14G15G18G19G22G25
  23065508.0304    3818402.03949   2966828.44447                  23065508.0194
        44.0004         28.5004
  19968823.9984   -1919978.62949  -1488914.39048                  19968820.2554
        51.5004         45.0004
  20283325.4024    1676762.03549   1305076.81348                  20283322.7384
        52.0004         43.0004
  23194187.2994    3932204.31649   3052514.43147                  23194185.1774
        42.5004         28.0004
  22400409.0224   -2497754.82049  -1937022.50047                  22400405.7314
        47.7504         34.5004
  21180873.7294     794680.89549    615567.25047                  21180868.8664
        49.2504         37.2504
  22520300.3964   -8126515.79749  -6322739.32547                  22520298.0994
        44.2504         30.7504
 04  6 30 19  4 49.9990000  0  7G 3G14G15G18G19G22G25
  23068204.1824    3832568.62949   2977867.31647                  23068203.6434
        44.7504         28.2504
  19968253.0554   -1922981.13749  -1491254.00548                  19968249.1274
        51.7504         45.0004
  20285300.5164    1687142.70749   1313165.65048                  20285297.6894
        52.2504         42.7504
  23196416.2414    3943916.51649   3061640.81147                  23196413.7304
        43.5004         27.7504
  22399702.9774   -2501468.18749  -1939916.04547                  22399699.0794
        47.5004         34.0004
  21181140.0884     796081.56349    616658.68947                  21181135.0254
        49.2504         36.5004
  22512345.0574   -8168317.76649  -6355312.24547                  22512343.7044
        44.7504         30.0004
 04  6 30 19  4 59.9990000  0  7G 3G14G15G18G19G22G25
  23070900.5624    3846737.30549   2988907.80147                  23070899.4554
        45.0004         28.0004
  19967686.7944   -1925955.96549  -1493572.05548                  19967683.0964
        51.7504         45.0004
  20287282.9394    1697559.34049   1321282.48248                  20287279.8184
        51.5004         42.5004
  23198643.0034    3955621.58249   3070761.61547                  23198640.9834
        43.2504         27.7504
  22399003.4484   -2505142.80149  -1942779.40047                  22398999.2424
        46.7504         33.5004
  21181406.2294     797479.70749    617748.13447                  21181401.6214
        49.0004         36.7504
  22504391.1514   -8210118.59049  -6387884.31447                  22504389.7154
        45.0004         29.0004
 04  6 30 19  5  9.9990000  0  7G 3G14G15G18G19G22G25
  23073596.6134    3860904.23849   2999946.99147                  23073595.1904
        45.0004         27.7504
  19967125.0424   -1928906.80149  -1495871.41448                  19967121.6754
        52.0004         45.0004
  20289271.4324    1708008.17249   1329424.42548                  20289268.8554
        51.5004         42.0004
  23200868.5504    3967315.76649   3079873.93447                  23200866.2854
        43.0004         28.2504
  22398310.6184   -2508782.46949  -1945615.51547                  22398306.7404
        47.5004         34.5004
  21181671.2004     798871.67249    618832.78247                  21181666.0204
        49.2504         37.0004
  22496435.8114   -8251921.76649  -6420458.19147                  22496434.9564
        45.5004         29.7504
 04  6 30 19  5 19.9990000  0  7G 3G14G15G18G19G22G25
  23076292.0124    3875072.40249   3010987.08847                  23076291.3904
        44.5004         27.5004
  19966568.6184   -1931830.66449  -1498149.74348                  19966565.4874
        51.5004         45.5004
  20291266.5004    1718492.21149   1337593.79348                  20291263.7174
        50.7504         42.5004
  23203092.4894    3979002.23449   3088980.24647                  23203090.5634
        42.7504         28.0004
  22397625.2214   -2512384.14849  -1948422.03847                  22397621.0614
        46.5004         34.2504
  21181935.5354     800260.42249    619914.90547                  21181930.8434
        48.7504         37.5004
  22488481.1154   -8293724.13749  -6453031.45747                  22488480.3164
        45.5004         29.7504
 04  6 30 19  5 29.9990000  0  7G 3G14G15G18G19G22G25
  23078989.4584    3889243.09849   3022029.19847                  23078988.2174
        44.7504         28.0004
  19966018.0144   -1934726.19949  -1500406.00448                  19966014.0224
        50.7504         45.5004
  20293268.4924    1729012.85949   1345791.69848                  20293265.7104
        52.0004         42.0004
  23205315.0094    3990682.37149   3098081.61847                  23205313.2244
        43.5004         26.7504
  22396947.3854   -2515946.48849  -1951197.89147                  22396943.6934
        43.5004         33.7504
  21182199.4774     801647.37949    620995.65247                  21182194.4604
        49.5004         37.5004
  22480526.5394   -8335524.10949  -6485602.83647                  22480526.4714
        45.2504         30.2504
 04  6 30 19  5 39.9990000  0  7G 3G14G15G18G19G22G25
  23081685.9424    3903417.35549   3033074.05547                  23081685.6374
        45.5004         28.0004
  19965472.2424   -1937592.34049  -1502639.36748                  19965468.5744
        51.0004         45.7504
  20295277.4504    1739571.20349   1354018.96248                  20295275.2284
        51.0004         42.2504
  23207536.8564    4002357.31649   3107178.95147                  23207535.1064
        43.5004         28.2504
  22396277.1864   -2519468.38749  -1953942.21947                  22396273.0404
        42.5004         34.5004
  21182462.9144     803033.76649    622075.95247                  21182458.4434
        48.0004         37.5004
  22472572.6964   -8377320.69549  -6518171.59147                  22472572.5454
        45.2504         30.0004
 04  6 30 19  5 49.9990000  0  7G 3G14G15G18G19G22G25
  23084384.4484    3917597.74649   3044123.67947                  23084384.1324
        45.5004         28.2504
  19964933.3064   -1940426.53949  -1504847.84548                  19964929.4514
        52.0004         45.7504
  20297294.6314    1750169.80949   1362277.61048                  20297291.9254
        51.7504         41.7504
  23209758.5674    4014029.64849   3116274.25547                  23209755.9864
        44.0004         27.7504
  22395615.2264   -2522947.37549  -1956653.14747                  22395611.0694
        45.0004         34.7504
  21182727.5564     804422.10249    623157.76147                  21182722.8974
        48.7504         37.2504
  22464621.0894   -8419111.02749  -6550735.47447                  22464620.1534
        45.2504         31.2504
 04  6 30 19  5 59.9990000  0  7G 3G14G15G18G19G22G25
  23087083.6944    3931780.85549   3055175.43347                  23087082.9554
        45.0004         28.7504
  19964399.3074   -1943232.21149  -1507034.07848                  19964395.4394
        51.7504         45.7504
  20299317.8764    1760805.30149   1370565.00148                  20299315.4354
        50.5004         41.7504
  23211978.2644    4025696.07449   3125364.94147                  23211975.9494
        44.5004         27.5004
  22394960.1964   -2526386.72749  -1959333.16247                  22394956.7234
        46.7504         34.0004
  21182991.4124     805809.21149    624238.62747                  21182986.3714
        48.7504         37.2504
  22456669.2854   -8460898.24649  -6583296.92947                  22456668.3734
        45.7504         30.7504
 04  6 30 19  6  9.9990000  0  7G 3G14G15G18G19G22G25
  23089782.8884    3945963.54349   3066226.88147                  23089781.9864
        45.7504         27.5004
  19963870.6374   -1946012.35249  -1509200.41848                  19963866.6824
        52.2504         46.0004
  20301348.3414    1771474.76249   1378878.86348                  20301346.2264
        50.7504         42.0004
  23214197.1714    4037353.69149   3134448.80047                  23214193.8284
        42.0004         28.5004
  22394313.2114   -2529789.46149  -1961984.66547                  22394308.5804
        45.5004         34.5004
  21183254.1284     807192.12549    625316.21347                  21183249.1164
        47.5004         36.5004
  22448717.0994   -8502685.16449  -6615858.12247                  22448716.3614
        46.5004         31.2504
 04  6 30 19  6 19.9990000  0  7G 3G14G15G18G19G22G25
  23092482.0934    3960150.57449   3077281.67047                  23092481.6364
        45.2504         28.2504
  19963346.9164   -1948762.17249  -1511343.13548                  19963343.4944
        50.5004         45.5004
  20303385.8814    1782182.96549   1387222.91048                  20303383.9474
        50.7504         41.2504
  23216414.2434    4049007.32049   3143529.49547                  23216411.4664
        44.5004         27.5004
  22393673.8514   -2533150.82449  -1964603.91047                  22393669.4084
        42.5004         34.5004
  21183517.6004     808575.65249    626394.28047                  21183512.6744
        49.0004         36.5004
  22440767.0044   -8544466.93049  -6648415.34247                  22440765.2024
        46.5004         31.5004
 04  6 30 19  6 29.9990000  0  7G 3G14G15G18G19G22G25
  23095182.4504    3974339.00849   3088337.57047                  23095182.2324
        46.0004         28.2504
  19962828.6014   -1951484.61349  -1513464.51748                  19962825.0174
        50.7504         45.5004
  20305430.4034    1792927.03549   1395594.90048                  20305428.4124
        51.5004         41.7504
  23218630.3934    4060654.12949   3152604.95647                  23218628.4494
        43.5004         26.7504
  22393040.7704   -2536473.69549  -1967193.16447                  22393036.7154
        42.0004         34.2504
  21183780.6904     809956.88749    627470.55947                  21183775.4244
        48.5004         36.7504
  22432816.0934   -8586246.33249  -6680970.68847                  22432814.4704
        47.2504         32.0004
 04  6 30 19  6 39.9990000  0  7G 3G14G15G18G19G22G25
  23097883.0144    3988530.39549   3099395.81047                  23097882.1984
        45.5004         28.0004
  19962316.3274   -1954178.02749  -1515563.28148                  19962313.0434
        51.7504         45.5004
  20307481.8544    1803708.56649   1403996.09948                  20307479.6964
        50.0004         41.5004
  23220846.3224    4072295.81649   3161676.36547                  23220843.5854
        43.5004         27.2504
  22392416.2214   -2539756.49649  -1969751.20347                  22392412.7854
        44.5004         34.7504
  21184043.2924     811337.62149    628546.46347                  21184038.4044
        47.2504         36.5004
  22424866.4624   -8628021.58649  -6713522.81247                  22424864.7904
        47.0004         32.5004
 04  6 30 19  6 49.9990000  0  7G 3G14G15G18G19G22G25
  23100584.7524    4002725.55149   3110456.92347                  23100583.4714
        44.5004         28.7504
  19961809.3254   -1956841.51249  -1517638.72148                  19961805.8294
        52.2504         46.0004
  20309541.1714    1814528.49249   1412427.20148                  20309538.5954
        50.2504         42.0004
  23223060.1034    4083933.38749   3170744.58847                  23223058.4664
        44.0004         27.0004
  22391799.3294   -2542998.23449  -1972277.22547                  22391795.6624
        47.0004         34.5004
  21184305.9864     812718.80549    629622.71947                  21184300.7884
        46.5004         36.7504
  22416918.3164   -8669791.59449  -6746070.83247                  22416916.2654
        46.7504         32.5004
 04  6 30 19  6 59.9990000  0  7G 3G14G15G18G19G22G25
  23103285.1044    4016920.23849   3121517.71647                  23103284.7734
        45.0004         29.0004
  19961307.4104   -1959479.18049  -1519694.05148                  19961303.7194
        52.0004         45.5004
  20311606.4684    1825382.71149   1420885.02848                  20311604.4804
        50.5004         42.2504
  23225273.3764    4095562.71549   3179806.39147                  23225271.4834
        43.5004         27.0004
  22391189.5574   -2546203.11749  -1974774.54947                  22391186.0354
        46.7504         34.0004
  21184568.3584     814096.43049    630696.17047                  21184562.8014
        46.2504         36.5004
  22408969.9084   -8711560.32049  -6778617.87547                  22408967.6644
        47.5004         32.7504
 04  6 30 19  7  9.9990000  0  7G 3G14G15G18G19G22G25
  23105988.0614    4031121.54349   3132583.64547                  23105987.1564
        45.2504         28.5004
  19960811.7114   -1962084.03549  -1521723.80748                  19960808.2184
        51.2504         45.5004
  20313680.0344    1836278.29749   1429375.08948                  20313677.6484
        49.5004         42.0004
  23227486.2594    4107190.89149   3188867.30947                  23227483.9044
        44.2504         28.0004
  22390587.9014   -2549364.05949  -1977237.61947                  22390584.3604
        47.5004         34.5004
  21184831.0154     815477.58649    631772.40947                  21184826.0314
        45.0004         36.7504
  22401022.9314   -8753320.56649  -6811158.28547                  22401020.6624
        47.0004         31.5004
 04  6 30 19  7 19.9990000  0  7G 3G14G15G18G19G22G25
  23108691.3294    4045327.45749   3143653.17947                  23108690.9084
        45.0004         29.5004
  19960321.9134   -1964657.98449  -1523729.48848                  19960318.5024
        51.2504         45.0004
  20315761.0744    1847213.34849   1437895.88848                  20315758.6504
        50.5004         41.5004
  23229698.2684    4118816.08249   3197925.85047                  23229696.0754
        43.5004         26.5004
  22389994.7724   -2552483.01649  -1979667.99947                  22389990.9054
        47.2504         33.5004
  21185093.9434     816860.35249    632849.87047                  21185089.3664
        46.0004         36.7504
  22393077.2934   -8795074.14849  -6843693.52447                  22393075.1204
        46.5004         31.5004
 04  6 30 19  7 29.9990000  0  7G 3G14G15G18G19G22G25
  23111394.8994    4059533.94549   3154723.14047                  23111393.9324
        45.7504         28.5004
  19959837.0824   -1967205.03949  -1525714.19748                  19959834.0994
        51.0004         44.7504
  20317848.5504    1858183.82849   1446444.31548                  20317846.4204
        50.5004         41.2504
  23231909.1454    4130434.38749   3206979.07847                  23231907.5794
        45.5004         25.7504
  22389408.3144   -2555563.98849  -1982068.75547                  22389404.5824
        47.2504         33.0004
  21185356.7594     818240.82049    633925.56847                  21185351.7914
        46.2504         35.7504
  22385132.4694   -8836824.86349  -6876226.52447                  22385130.6954
        46.2504         31.5004
 04  6 30 19  7 39.9990000  0  8G 3G11G14G15G18G19G22G25
  23114098.3374    4073741.88749   3165794.25347                  23114097.7534
        45.0004         29.0004
  23920709.0284     -39423.96559
        41.5004
  19959357.8194   -1969724.22349  -1527677.21448                  19959353.9794
        51.0004         44.7504
  20319943.3044    1869190.71149   1455021.09848                  20319940.8974
        50.0004         42.0004
  23234119.3474    4142046.83649   3216027.71247                  23234117.1434
        44.0004         27.0004
  22388829.2084   -2558605.97349  -1984439.14447                  22388825.5344
        47.2504         34.0004
  21185619.3194     819620.03149    635000.26147                  21185614.4344
        45.5004         36.2504
  22377188.6194   -8878571.58649  -6908756.39347                  22377186.3474
        46.5004         31.0004
 04  6 30 19  7 49.9990000  0  8G 3G11G14G15G18G19G22G25
  23116802.6644    4087951.81649   3176866.89347                  23116801.7334
        46.0004         27.5004
  23912662.0384     -81709.51249    -39947.22556                  23912659.1574
        42.0004         22.2504
  19958883.7274   -1972215.03149  -1529618.10048                  19958880.2784
        51.5004         45.5004
  20322044.9484    1880234.53149   1463626.65348                  20322042.3394
        51.2504         42.5004
  23236327.7234    4153654.03949   3225072.26347                  23236326.1624
        43.0004         26.2504
  22388258.1894   -2561608.43049  -1986778.72547                  22388254.5844
        47.0004         34.7504
  21185881.7354     820998.51249    636074.39547                  21185877.3214
        46.5004         36.0004
  22369245.3494   -8920313.64849  -6941282.64547                  22369243.6094
        46.5004         31.7504
 04  6 30 19  7 59.9990000  0  8G 3G11G14G15G18G19G22G25
  23119506.7184    4102160.66849   3187938.72047                  23119505.4964
        46.0004         29.0004
  23904615.0354    -123997.50049    -72898.90846                  23904611.6014
        42.0004         22.5004
  19958414.7674   -1974680.48049  -1531539.23348                  19958410.5624
        50.7504         45.0004
  20324152.9704    1891312.33649   1472258.69848                  20324150.3064
        49.5004         42.5004
  23238535.0624    4165252.99649   3234110.38747                  23238533.9214
        44.0004         28.0004
  22387693.9004   -2564574.33249  -1989089.83347                  22387690.4704
        45.5004         34.5004
  21186143.3574     822373.43449    637145.76147                  21186138.7884
        44.5004         36.0004
  22361302.8554   -8962053.81649  -6973807.43447                  22361300.6124
        46.5004         32.2504
 04  6 30 19  8  9.9990000  0  8G 3G11G14G15G18G19G22G25
  23122210.6844    4116372.55949   3199012.91747                  23122210.2744
        45.5004         28.7504
  23896567.7464    -166283.75049   -105849.23246                  23896564.9164
        41.7504         22.2504
  19957951.2514   -1977116.37149  -1533437.33448                  19957947.9584
        49.2504         44.7504
  20326268.2264    1902428.30949   1480920.48748                  20326265.8714
        50.7504         42.7504
  23240741.0464    4176848.02049   3243145.46246                  23240739.8004
        45.2504         25.5004
  22387137.0554   -2567499.53549  -1991369.22147                  22387133.6044
        43.0004         34.7504
  21186405.4324     823749.01249    638217.63447                  21186400.1834
        47.5004         36.2504
  22353360.7674   -9003787.83649  -7006327.42947                  22353359.1684
        46.0004         32.5004
 04  6 30 19  8 19.9990000  0  8G 3G11G14G15G18G19G22G25
  23124914.6894    4130582.81649   3210085.86947                  23124914.5864
        45.2504         27.7504
  23888521.4104    -208572.60549   -138801.56846                  23888517.6274
        42.5004         21.2504
  19957491.8254   -1979527.34849  -1535316.02148                  19957488.5194
        48.5004         44.5004
  20328390.0304    1913577.77349   1489608.37348                  20328387.4704
        50.2504         42.2504
  23242946.6294    4188434.43449   3252173.83347                  23242945.3774
        43.7504         26.7504
  22386587.6234   -2570388.74649  -1993620.56147                  22386583.8844
        42.0004         34.5004
  21186666.3954     825120.62949    639286.42147                  21186661.5484
        47.0004         35.5004
  22345418.6694   -9045520.10549  -7038846.05147                  22345417.7484
        45.5004         32.0004
 04  6 30 19  8 29.9990000  0  8G 3G11G14G15G18G19G22G25
  23127619.0434    4144796.30149   3221161.24747                  23127619.0834
        44.7504         28.2504
  23880474.2344    -250859.00049   -171752.02546                  23880470.8234
        43.2504         22.7504
  19957039.1614   -1981908.51649  -1537171.48448                  19957035.8494
        50.2504         44.0004
  20330518.5634    1924765.72749   1498326.24248                  20330516.3974
        51.2504         41.5004
  23245150.6544    4200017.23849   3261199.36947                  23245149.3644
        45.0004         26.5004
  22386046.0084   -2573236.95349  -1995839.95047                  22386041.5024
        45.0004         35.0004
  21186927.2484     826493.27049    640356.00847                  21186922.7514
        47.5004         35.5004
  22337479.0974   -9087245.55949  -7071359.35947                  22337477.9604
        45.5004         31.2504
 04  6 30 19  8 39.9990000  0  8G 3G11G14G15G18G19G22G25
  23130323.3464    4159006.76249   3232234.34347                  23130323.0624
        45.0004         28.2504
  23872426.5214    -293149.16849   -204705.37846                  23872423.3144
        42.7504         22.5004
  19956590.4794   -1984266.16049  -1539008.61748                  19956587.0034
        50.0004         43.5004
  20332654.0274    1935985.91849   1507069.24348                  20332651.3644
        51.0004         41.5004
  23247352.5094    4211590.28949   3270217.30846                  23247351.1494
        45.2504         25.2504
  22385510.1254   -2576050.46149  -1998032.30647                  22385506.7104
        44.5004         34.5004
  21187187.6214     827860.82449    641421.62647                  21187182.6894
        47.5004         35.0004
  22329538.9784   -9128970.30549  -7103872.12347                  22329537.8814
        45.2504         32.5004
 04  6 30 19  8 49.9990000  0  8G 3G11G14G15G18G19G22G25
  23133028.8154    4173221.36349   3243310.62947                  23133028.2394
        44.5004         27.5004
  23864379.0414    -335435.77349   -237656.01246                  23864376.3834
        42.7504         22.2504
  19956147.8044   -1986592.99249  -1540821.73548                  19956143.6924
        50.2504         43.7504
  20334796.5144    1947245.62149   1515843.02748                  20334793.7964
        51.0004         41.2504
  23249554.4374    4223160.96549   3279233.42546                  23249553.0084
        45.5004         25.0004
  22384982.7524   -2578822.02749  -2000191.97447                  22384979.0764
        47.0004         36.0004
  21187448.0914     829230.60249    642488.98047                  21187443.9674
        48.0004         35.5004
  22321600.4964   -9170686.91449  -7136378.54547                  22321599.5044
        45.5004         32.7504
 04  6 30 19  8 59.9990000  0  8G 3G11G14G15G18G19G22G25
  23135733.8984    4187438.66449   3254389.03647                  23135733.5814
        45.0004         28.0004
  23856332.6964    -377719.87549   -270604.59346                  23856329.7184
        42.0004         22.5004
  19955710.6914   -1988890.32449  -1542611.85748                  19955706.9624
        50.5004         43.7504
  20336946.5164    1958543.53949   1524646.59448                  20336944.1654
        51.5004         41.7504
  23251755.6994    4234727.94149   3288246.59546                  23251754.4804
        44.2504         24.2504
  22384463.1094   -2581552.94549  -2002319.95947                  22384459.4444
        47.0004         35.2504
  21187709.4784     830601.33249    643557.09047                  21187704.2424
        47.5004         35.5004
  22313663.8004   -9212396.56649  -7168879.53847                  22313662.7434
        46.0004         32.5004
 04  6 30 19  9  9.9990000  0  8G 3G11G14G15G18G19G22G25
  23138439.9724    4201657.07849   3265468.26547                  23138438.9264
        45.0004         29.0004
  23848286.0764    -420003.11349   -303552.55646                  23848284.2754
        41.7504         22.0004
  19955278.7424   -1991159.81649  -1544380.31448                  19955275.2654
        50.7504         44.0004
  20339103.3034    1969878.03549   1533478.64948                  20339101.0074
        51.0004         41.2504
  23253956.3094    4246289.66849   3297255.72346                  23253954.3104
        45.0004         25.5004
  22383950.8094   -2584244.87949  -2004417.59947                  22383947.1994
        47.0004         35.0004
  21187969.9334     831971.46149    644624.69847                  21187964.7714
        48.0004         35.7504
  22305727.5554   -9254100.74649  -7201376.28747                  22305726.5594
        46.0004         32.5004
 04  6 30 19  9 19.9990000  0  8G 3G11G14G15G18G19G22G25
  23141145.7814    4215875.30549   3276547.39347                  23141144.8414
        45.2504         29.7504
  23840240.3364    -462286.39849   -336500.56646                  23840237.7744
        41.0004         22.2504
  19954851.7434   -1993402.64149  -1546127.95948                  19954848.1974
        50.7504         44.2504
  20341266.8304    1981247.95749   1542338.33548                  20341264.9514
        51.0004         41.2504
  23256155.0504    4257845.02349   3306259.86147                  23256153.1404
        45.5004         26.7504
  22383445.3414   -2586898.99249  -2006485.73147                  22383442.5174
        46.7504         35.0004
  21188230.2364     833339.82449    645690.97247                  21188225.5074
        48.2504         36.0004
  22297791.9054   -9295800.45749  -7233869.52847                  22297791.2474
        45.5004         32.5004
 04  6 30 19  9 29.9990000  0  8G 3G11G14G15G18G19G22G25
  23143850.7074    4230094.84449   3287627.52747                  23143850.1054
        44.7504         28.0004
  23832194.1964    -504568.04349   -369447.31846                  23832191.7194
        41.5004         22.7504
  19954430.7854   -1995617.32449  -1547853.69448                  19954427.0594
        51.2504         44.0004
  20343437.3554    1992654.79349   1551226.75848                  20343435.4164
        51.5004         41.7504
  23258353.6014    4269395.64849   3315260.29247                  23258350.9164
        45.7504         26.5004
  22382948.0884   -2589513.82049  -2008523.27647                  22382944.3344
        46.5004         34.7504
  21188490.6954     834708.03949    646757.09447                  21188485.6064
        48.0004         35.5004
  22289858.1414   -9337493.95349  -7266357.96547                  22289856.8114
        45.0004         32.2504
 04  6 30 19  9 39.9990000  0  8G 3G11G14G15G18G19G22G25
  23146557.3184    4244314.44549   3298707.72847                  23146556.3124
        45.2504         27.7504
  23824148.1434    -546849.16049   -402393.62146                  23824145.8384
        42.5004         22.7504
  19954014.1554   -1997805.08249  -1549558.43448                  19954010.0744
        50.2504         43.5004
  20345615.1804    2004097.42249   1560143.09048                  20345612.9524
        51.0004         41.7504
  23260550.3394    4280940.30549   3324256.10247                  23260548.0734
        45.2504         26.5004
  22382457.7374   -2592090.44149  -2010531.03947                  22382454.5374
        46.5004         34.7504
  21188750.6464     836075.01249    647822.25747                  21188746.0164
        46.5004         35.2504
  22281924.6494   -9379182.32049  -7298842.37547                  22281923.7024
        45.0004         31.5004
